[[{"header":{"parameterUnit":"m.s-1","parameterCategory":1,"la1":30.6,"la2":28.766,"lo1":-90.7593,"lo2":-88.6598,"dy":0.0162,"dx":0.0183,"nx":116,"ny":114,"refTime":"2023-06-12T06:00:00:Z","depth":0,"parameterNumber":2,"parameterNumberName":"U-component_of_WINDS"},"data":[0.0,0.0,0.0,0.0,0.0,0.0,0.0,0.0,0.0,0.0,0.0,0.0,0.0,0.0,0.0,0.0,0.0,0.0,0.0,0.0,0.0,0.0,0.0,0.0,0.0,0.0,0.0,0.0,0.0,0.0,0.0,0.0,0.0,0.0,0.0,0.0,0.0,0.0,0.0,0.0,0.0,0.0,0.0,0.0,0.0,0.0,0.0,0.0,0.0,0.0,0.0,0.0,0.0,0.0,0.0,0.0,0.0,0.0,0.0,0.0,0.0,0.0,0.0,0.0,0.0,0.0,0.0,0.0,0.0,0.0,0.0,0.0,0.0,0.0,0.0,0.0,0.0,0.0,0.0,0.0,0.0,0.0,0.0,0.0,0.0,0.0,0.0,0.0,0.0,0.0,0.0,0.0,0.0,0.0,0.0,0.0,0.0,0.0,0.0,0.0,0.0,0.0,0.0,0.0,0.0,0.0,0.0,0.0,0.0,0.0,0.0,0.0,0.0,0.0,0.0,0.0,0.0,0.0,0.0,0.0,0.0,0.0,0.0,0.0,0.0,0.0,0.0,0.0,0.0,0.0,0.0,0.0,0.0,0.0,0.0,0.0,0.0,0.0,0.0,0.0,0.0,0.0,0.0,0.0,0.0,0.0,0.0,0.0,0.0,0.0,0.0,0.0,0.0,0.0,0.0,0.0,0.0,0.0,0.0,0.0,0.0,0.0,0.0,0.0,0.0,0.0,0.0,0.0,0.0,0.0,0.0,0.0,0.0,0.0,0.0,0.0,0.0,0.0,0.0,0.0,0.0,0.0,0.0,0.0,0.0,0.0,0.0,0.0,0.0,0.0,0.0,0.0,0.0,0.0,0.0,0.0,0.0,0.0,0.0,0.0,0.0,0.0,0.0,0.0,0.0,0.0,0.0,0.0,0.0,0.0,0.0,0.0,0.0,0.0,0.0,0.0,0.0,0.0,0.0,0.0,0.0,0.0,0.0,0.0,0.0,0.0,0.0,0.0,0.0,0.0,0.0,0.0,0.0,0.0,0.0,0.0,0.0,0.0,0.0,0.0,0.0,0.0,0.0,0.0,0.0,0.0,0.0,0.0,0.0,0.0,0.0,0.0,0.0,0.0,0.0,0.0,0.0,0.0,0.0,0.0,0.0,0.0,0.0,0.0,0.0,0.0,0.0,0.0,0.0,0.0,0.0,0.0,0.0,0.0,0.0,0.0,0.0,0.0,0.0,0.0,0.0,0.0,0.0,0.0,0.0,0.0,0.0,0.0,0.0,0.0,0.0,0.0,0.0,0.0,0.0,0.0,0.0,0.0,0.0,0.0,0.0,0.0,0.0,0.0,0.0,0.0,0.0,0.0,0.0,0.0,0.0,0.0,0.0,0.0,0.0,0.0,0.0,0.0,0.0,0.0,0.0,0.0,0.0,0.0,0.0,0.0,0.0,0.0,0.0,0.0,0.0,0.0,0.0,0.0,0.0,0.0,0.0,0.0,0.0,0.0,0.0,0.0,0.0,0.0,0.0,0.0,0.0,0.0,0.0,0.0,0.0,0.0,0.0,0.0,0.0,0.0,0.0,0.0,0.0,0.0,0.0,0.0,0.0,0.0,0.0,0.0,0.0,0.0,0.0,0.0,0.0,0.0,0.0,0.0,0.0,0.0,0.0,0.0,0.0,0.0,0.0,0.0,0.0,0.0,0.0,0.0,0.0,0.0,0.0,0.0,0.0,0.0,0.0,0.0,0.0,0.0,0.0,0.0,0.0,0.0,0.0,0.0,0.0,0.0,0.0,0.0,0.0,0.0,0.0,0.0,0.0,0.0,0.0,0.0,0.0,0.0,0.0,0.0,0.0,0.0,0.0,0.0,0.0,0.0,0.0,0.0,0.0,0.0,0.0,0.0,0.0,0.0,0.0,0.0,0.0,0.0,0.0,0.0,0.0,0.0,0.0,0.0,0.0,0.0,0.0,0.0,0.0,0.0,0.0,0.0,0.0,0.0,0.0,0.0,0.0,0.0,0.0,0.0,0.0,0.0,0.0,0.0,0.0,0.0,0.0,0.0,0.0,0.0,0.0,0.0,0.0,0.0,0.0,0.0,0.0,0.0,0.0,0.0,0.0,0.0,0.0,0.0,0.0,0.0,0.0,0.0,0.0,0.0,0.0,0.0,0.0,0.0,0.0,0.0,0.0,0.0,0.0,0.0,0.0,0.0,0.0,0.0,0.0,0.0,0.0,0.0,0.0,0.0,0.0,0.0,0.0,0.0,0.0,0.0,0.0,0.0,0.0,0.0,0.0,0.0,0.0,0.0,0.0,0.0,0.0,0.0,0.0,0.0,0.0,0.0,0.0,0.0,0.0,0.0,0.0,0.0,0.0,0.0,0.0,0.0,0.0,0.0,0.0,0.0,0.0,0.0,0.0,0.0,0.0,0.0,0.0,0.0,0.0,0.0,0.0,0.0,0.0,0.0,0.0,0.0,0.0,0.0,0.0,0.0,0.0,0.0,0.0,0.0,0.0,0.0,0.0,0.0,0.0,0.0,0.0,0.0,0.0,0.0,0.0,0.0,0.0,0.0,0.0,0.0,0.0,0.0,0.0,0.0,0.0,0.0,0.0,0.0,0.0,0.0,0.0,0.0,0.0,0.0,0.0,0.0,0.0,0.0,0.0,0.0,0.0,0.0,0.0,0.0,0.0,0.0,0.0,0.0,0.0,0.0,0.0,0.0,0.0,0.0,0.0,0.0,0.0,0.0,0.0,0.0,0.0,0.0,0.0,0.0,0.0,0.0,0.0,0.0,0.0,0.0,0.0,0.0,0.0,0.0,0.0,0.0,0.0,0.0,0.0,0.0,0.0,0.0,0.0,0.0,0.0,0.0,0.0,0.0,0.0,0.0,0.0,0.0,0.0,0.0,0.0,0.0,0.0,0.0,0.0,0.0,0.0,0.0,0.0,0.0,0.0,0.0,0.0,0.0,0.0,0.0,0.0,0.0,0.0,0.0,0.0,0.0,0.0,0.0,0.0,0.0,0.0,0.0,0.0,0.0,0.0,0.0,0.0,0.0,0.0,0.0,0.0,0.0,0.0,0.0,0.0,0.0,0.0,0.0,0.0,0.0,0.0,0.0,0.0,0.0,0.0,0.0,0.0,0.0,0.0,0.0,0.0,0.0,0.0,0.0,0.0,0.0,0.0,0.0,0.0,0.0,0.0,0.0,0.0,0.0,0.0,0.0,0.0,0.0,0.0,0.0,0.0,0.0,0.0,0.0,0.0,0.0,0.0,0.0,0.0,0.0,0.0,0.0,0.0,0.0,0.0,0.0,0.0,0.0,0.0,0.0,0.0,0.0,0.0,0.0,0.0,0.0,0.0,0.0,0.0,0.0,0.0,0.0,0.0,0.0,0.0,0.0,0.0,0.0,0.0,0.0,0.0,0.0,0.0,0.0,0.0,0.0,0.0,0.0,0.0,0.0,0.0,0.0,0.0,0.0,0.0,0.0,0.0,0.0,0.0,0.0,0.0,0.0,0.0,0.0,0.0,0.0,0.0,0.0,0.0,0.0,0.0,0.0,0.0,0.0,0.0,0.0,0.0,0.0,0.0,0.0,0.0,0.0,0.0,0.0,0.0,0.0,0.0,0.0,0.0,0.0,0.0,0.0,0.0,0.0,0.0,0.0,0.0,0.0,0.0,0.0,0.0,0.0,0.0,0.0,0.0,0.0,0.0,0.0,0.0,0.0,0.0,0.0,0.0,0.0,0.0,0.0,0.0,0.0,0.0,0.0,0.0,0.0,0.0,0.0,0.0,0.0,0.0,0.0,0.0,0.0,0.0,0.0,0.0,0.0,0.0,0.0,0.0,0.0,0.0,0.0,0.0,0.0,0.0,0.0,0.0,0.0,0.0,0.0,0.0,0.0,0.0,0.0,0.0,0.0,0.0,0.0,0.0,0.0,0.0,0.0,0.0,0.0,0.0,0.0,0.0,0.0,0.0,0.0,0.0,0.0,0.0,0.0,0.0,0.0,0.0,0.0,0.0,0.0,0.0,0.0,0.0,0.0,0.0,0.0,0.0,0.0,0.0,0.0,0.0,0.0,0.0,0.0,0.0,0.0,0.0,0.0,0.0,0.0,0.0,0.0,0.0,0.0,0.0,0.0,0.0,0.0,0.0,0.0,0.0,0.0,0.0,0.0,0.0,0.0,0.0,0.0,0.0,0.0,0.0,0.0,0.0,0.0,0.0,0.0,0.0,0.0,0.0,0.0,0.0,0.0,0.0,0.0,0.0,0.0,0.0,0.0,0.0,0.0,0.0,0.0,0.0,0.0,0.0,0.0,0.0,0.0,0.0,0.0,0.0,0.0,0.0,0.0,0.0,0.0,0.0,0.0,0.0,0.0,0.0,0.0,0.0,0.0,0.0,0.0,0.0,0.0,0.0,0.0,0.0,0.0,0.0,0.0,0.0,0.0,0.0,0.0,0.0,0.0,0.0,0.0,0.0,0.0,0.0,0.0,0.0,0.0,0.0,0.0,0.0,0.0,0.0,0.0,0.0,0.0,0.0,0.0,0.0,0.0,0.0,0.0,0.0,0.0,0.0,0.0,0.0,0.0,0.0,0.0,0.0,0.0,0.0,0.0,0.0,0.0,0.0,0.0,0.0,0.0,0.0,0.0,0.0,0.0,0.0,0.0,0.0,0.0,0.0,0.0,0.0,0.0,0.0,0.0,0.0,0.0,0.0,0.0,0.0,0.0,0.0,0.0,0.0,0.0,0.0,0.0,0.0,0.0,0.0,0.0,0.0,0.0,0.0,0.0,0.0,0.0,0.0,0.0,0.0,0.0,0.0,0.0,0.0,0.0,0.0,0.0,0.0,0.0,0.0,0.0,0.0,0.0,0.0,0.0,0.0,0.0,0.0,0.0,0.0,0.0,0.0,0.0,0.0,0.0,0.0,0.0,0.0,0.0,0.0,0.0,0.0,0.0,0.0,0.0,0.0,0.0,0.0,0.0,0.0,0.0,0.0,0.0,0.0,0.0,0.0,0.0,0.0,0.0,0.0,0.0,0.0,0.0,0.0,0.0,0.0,0.0,0.0,0.0,0.0,0.0,0.0,0.0,0.0,0.0,0.0,0.0,0.0,0.0,0.0,0.0,0.0,0.0,0.0,0.0,0.0,0.0,0.0,0.0,0.0,0.0,0.0,0.0,0.0,0.0,0.0,0.0,0.0,0.0,0.0,0.0,0.0,0.0,0.0,0.0,0.0,0.0,0.0,0.0,0.0,0.0,0.0,0.0,0.0,0.0,0.0,0.0,0.0,0.0,0.0,0.0,0.0,0.0,0.0,0.0,0.0,0.0,0.0,0.0,0.0,0.0,0.0,0.0,0.0,0.0,0.0,0.0,0.0,0.0,0.0,0.0,0.0,0.0,0.0,0.0,0.0,0.0,0.0,0.0,0.0,0.0,0.0,0.0,0.0,0.0,0.0,0.0,0.0,0.0,0.0,0.0,0.0,0.0,0.0,0.0,0.0,0.0,0.0,0.0,0.0,0.0,0.0,0.0,0.0,0.0,0.0,0.0,0.0,0.0,0.0,0.0,0.0,0.0,0.0,0.0,0.0,0.0,0.0,0.0,0.0,0.0,0.0,0.0,0.0,0.0,0.0,0.0,0.0,0.0,0.0,0.0,0.0,0.0,0.0,0.0,0.0,0.0,0.0,0.0,0.0,0.0,0.0,0.0,0.0,0.0,0.0,0.0,0.0,0.0,0.0,0.0,0.0,0.0,0.0,0.0,0.0,0.0,0.0,0.0,0.0,0.0,0.0,0.0,0.0,0.0,0.0,0.0,0.0,0.0,0.0,0.0,0.0,0.0,0.0,0.0,0.0,0.0,0.0,0.0,0.0,0.0,0.0,0.0,0.0,0.0,0.0,0.0,0.0,0.0,0.0,0.0,0.0,0.0,0.0,0.0,0.0,0.0,0.0,0.0,0.0,0.0,0.0,0.0,0.0,0.0,0.0,0.0,0.0,0.0,0.0,0.0,0.0,0.0,0.0,0.0,0.0,0.0,0.0,0.0,0.0,0.0,0.0,0.0,0.0,0.0,0.0,0.0,0.0,0.0,-2.9785,-2.9766,0.0,0.0,0.0,0.0,0.0,0.0,0.0,0.0,0.0,0.0,0.0,0.0,0.0,0.0,0.0,0.0,0.0,0.0,0.0,0.0,0.0,0.0,0.0,0.0,0.0,0.0,0.0,0.0,0.0,0.0,0.0,0.0,0.0,0.0,0.0,0.0,0.0,0.0,0.0,0.0,0.0,0.0,0.0,0.0,0.0,0.0,0.0,0.0,0.0,0.0,0.0,0.0,0.0,0.0,0.0,0.0,0.0,0.0,0.0,0.0,0.0,0.0,0.0,0.0,0.0,0.0,0.0,0.0,0.0,0.0,0.0,0.0,0.0,0.0,0.0,0.0,0.0,0.0,0.0,0.0,0.0,0.0,0.0,0.0,0.0,0.0,0.0,0.0,0.0,0.0,0.0,0.0,0.0,0.0,0.0,0.0,0.0,0.0,0.0,0.0,0.0,0.0,0.0,0.0,0.0,0.0,0.0,0.0,0.0,0.0,0.0,0.0,0.0,0.0,-3.0879,-3.0742,0.0,0.0,0.0,0.0,0.0,0.0,0.0,0.0,0.0,0.0,0.0,0.0,0.0,0.0,0.0,0.0,0.0,0.0,0.0,0.0,0.0,0.0,0.0,0.0,0.0,0.0,0.0,0.0,0.0,0.0,0.0,0.0,0.0,0.0,0.0,0.0,0.0,0.0,0.0,0.0,0.0,0.0,0.0,0.0,0.0,0.0,0.0,0.0,0.0,0.0,0.0,0.0,0.0,0.0,0.0,0.0,0.0,0.0,0.0,0.0,0.0,0.0,0.0,0.0,0.0,0.0,0.0,0.0,0.0,0.0,0.0,0.0,0.0,0.0,0.0,0.0,0.0,0.0,0.0,0.0,0.0,0.0,0.0,0.0,0.0,0.0,0.0,0.0,0.0,0.0,0.0,0.0,0.0,0.0,0.0,0.0,0.0,0.0,0.0,0.0,0.0,0.0,0.0,0.0,0.0,0.0,0.0,0.0,-3.1894,-3.2148,-3.25,-3.2578,-3.2851,-3.3203,-3.25,-3.2266,-3.2383,-3.2226,0.0,0.0,0.0,0.0,0.0,0.0,0.0,0.0,0.0,0.0,0.0,0.0,0.0,0.0,0.0,0.0,0.0,0.0,0.0,0.0,0.0,0.0,0.0,0.0,0.0,0.0,0.0,0.0,0.0,0.0,0.0,0.0,0.0,0.0,0.0,0.0,0.0,0.0,0.0,0.0,0.0,0.0,0.0,0.0,0.0,0.0,0.0,0.0,0.0,0.0,0.0,0.0,0.0,0.0,0.0,0.0,0.0,0.0,0.0,0.0,0.0,0.0,0.0,0.0,0.0,0.0,0.0,0.0,0.0,0.0,0.0,0.0,0.0,0.0,0.0,0.0,0.0,0.0,0.0,0.0,0.0,0.0,0.0,0.0,0.0,0.0,-2.8775,-2.873,0.0,0.0,0.0,0.0,0.0,0.0,0.0,0.0,0.0,0.0,0.0,0.0,0.0,-3.1309,-3.1426,-3.2109,-3.2519,-3.2637,-3.3379,-3.3769,-3.3828,-3.4199,-3.4609,-3.5039,-3.4941,0.0,-3.3203,-3.248,0.0,0.0,0.0,0.0,0.0,0.0,0.0,0.0,0.0,0.0,0.0,0.0,0.0,0.0,0.0,0.0,0.0,0.0,0.0,0.0,0.0,0.0,0.0,0.0,0.0,0.0,0.0,0.0,0.0,0.0,0.0,0.0,0.0,0.0,0.0,0.0,0.0,0.0,0.0,0.0,0.0,0.0,0.0,0.0,0.0,0.0,0.0,0.0,0.0,0.0,0.0,0.0,0.0,0.0,0.0,0.0,0.0,0.0,0.0,0.0,0.0,0.0,0.0,0.0,0.0,0.0,0.0,0.0,0.0,0.0,0.0,0.0,0.0,0.0,0.0,0.0,0.0,0.0,0.0,0.0,0.0,0.0,0.0,0.0,0.0,-2.8615,-2.8926,-2.8926,-2.9297,-2.9492,0.0,0.0,0.0,0.0,0.0,0.0,0.0,0.0,0.0,-3.2305,-3.2734,-3.3203,-3.3691,-3.4062,-3.4492,-3.498,-3.5351,-3.5664,-3.5898,-3.6074,-3.6406,-3.6797,-3.6562,-3.6269,-3.5859,-3.4531,-3.3945,-3.3867,0.0,0.0,0.0,0.0,-3.4297,-3.4531,0.0,0.0,0.0,0.0,0.0,0.0,0.0,0.0,0.0,0.0,0.0,0.0,0.0,0.0,0.0,0.0,0.0,0.0,0.0,0.0,0.0,0.0,0.0,0.0,0.0,0.0,0.0,0.0,0.0,0.0,0.0,0.0,0.0,0.0,0.0,0.0,0.0,0.0,0.0,0.0,0.0,0.0,0.0,0.0,0.0,0.0,0.0,0.0,0.0,0.0,0.0,0.0,0.0,0.0,0.0,0.0,0.0,0.0,0.0,0.0,0.0,0.0,0.0,0.0,0.0,0.0,0.0,0.0,0.0,0.0,0.0,0.0,0.0,0.0,0.0,0.0,0.0,-2.8613,-2.9121,-2.9238,-2.9648,-2.9863,0.0,0.0,0.0,0.0,0.0,0.0,-3.1953,-3.2422,-3.3047,-3.3906,-3.4355,-3.4941,-3.5723,-3.5937,-3.6367,-3.6992,-3.7207,-3.748,-3.7793,-3.791,-3.8125,-3.8418,-3.8105,-3.8066,-3.8125,-3.6426,-3.5508,-3.5195,-3.5078,-3.5098,-3.5195,-3.5195,-3.5488,-3.5879,0.0,0.0,0.0,0.0,0.0,0.0,0.0,0.0,0.0,0.0,0.0,0.0,0.0,0.0,0.0,0.0,0.0,0.0,0.0,0.0,0.0,0.0,0.0,0.0,0.0,0.0,0.0,0.0,0.0,0.0,0.0,0.0,0.0,0.0,0.0,0.0,0.0,0.0,0.0,-3.8743,0.0,0.0,0.0,0.0,0.0,0.0,0.0,0.0,0.0,0.0,0.0,0.0,0.0,0.0,0.0,0.0,0.0,0.0,0.0,0.0,0.0,0.0,0.0,0.0,0.0,0.0,0.0,0.0,0.0,0.0,0.0,0.0,0.0,0.0,0.0,0.0,0.0,0.0,0.0,-3.0078,-3.0547,0.0,0.0,0.0,0.0,-3.0859,-3.1601,-3.2441,-3.3281,-3.373,-3.4375,-3.5273,-3.5703,-3.6133,-3.6601,-3.7402,-3.7812,-3.7871,-3.8691,-3.9082,-3.9121,-3.957,-3.9766,-3.9805,-3.9766,-3.9531,-3.9004,-3.7305,-3.6601,-3.6523,-3.6113,-3.6211,-3.6582,-3.6582,-3.6836,-3.7207,0.0,0.0,0.0,0.0,0.0,0.0,0.0,0.0,0.0,0.0,0.0,0.0,0.0,0.0,0.0,0.0,0.0,0.0,0.0,0.0,0.0,0.0,0.0,0.0,0.0,0.0,0.0,0.0,0.0,0.0,0.0,0.0,0.0,0.0,0.0,0.0,0.0,0.0,0.0,0.0,0.0,-3.8015,0.0,0.0,0.0,0.0,0.0,0.0,0.0,0.0,0.0,0.0,0.0,0.0,0.0,0.0,0.0,0.0,0.0,0.0,0.0,0.0,0.0,0.0,0.0,0.0,0.0,0.0,0.0,0.0,0.0,0.0,0.0,0.0,0.0,0.0,0.0,0.0,0.0,-3.1406,-3.1855,0.0,-3.2656,-3.2344,-3.2344,-3.2891,-3.3476,-3.418,-3.5039,-3.5762,-3.6543,-3.7422,-3.7851,-3.8418,-3.9141,-3.9453,-3.9726,-4.0019,-4.0332,-4.0469,-4.0469,-4.0644,-4.0723,-4.0723,-4.0723,-4.0469,-4.0,-3.9394,-3.8496,-3.7461,-3.7305,-3.7168,-3.707,-3.707,-3.7344,-3.7695,0.0,0.0,0.0,0.0,0.0,0.0,0.0,0.0,0.0,0.0,0.0,0.0,0.0,0.0,0.0,0.0,0.0,0.0,0.0,0.0,0.0,0.0,0.0,0.0,0.0,0.0,0.0,0.0,0.0,0.0,0.0,0.0,0.0,0.0,0.0,0.0,0.0,0.0,0.0,0.0,0.0,0.0,-3.8266,0.0,0.0,0.0,0.0,0.0,0.0,0.0,0.0,0.0,0.0,0.0,0.0,0.0,0.0,0.0,0.0,0.0,0.0,0.0,0.0,0.0,0.0,0.0,0.0,0.0,0.0,0.0,0.0,0.0,0.0,0.0,0.0,0.0,0.0,0.0,-3.2207,-3.293,-3.3535,-3.4101,-3.4668,-3.4219,-3.418,-3.4902,-3.5332,-3.5957,-3.6836,-3.7559,-3.834,-3.9199,-3.9492,-4.0,-4.0742,-4.0742,-4.0879,-4.1172,-4.1172,-4.1172,-4.1172,-4.1172,-4.1172,-4.1172,-4.1172,-4.1016,-4.0742,-4.0742,-3.998,-3.8769,-3.8476,-3.8281,-3.8164,-3.7988,-3.8223,-3.8574,0.0,0.0,0.0,0.0,0.0,0.0,0.0,0.0,0.0,0.0,0.0,0.0,0.0,0.0,0.0,0.0,0.0,0.0,0.0,0.0,0.0,0.0,0.0,0.0,0.0,0.0,0.0,0.0,0.0,0.0,0.0,0.0,0.0,0.0,0.0,0.0,0.0,0.0,0.0,0.0,0.0,0.0,-4.0425,0.0,0.0,0.0,0.0,0.0,0.0,0.0,0.0,0.0,0.0,0.0,0.0,0.0,0.0,0.0,0.0,0.0,0.0,0.0,0.0,0.0,0.0,0.0,0.0,0.0,0.0,0.0,0.0,0.0,0.0,0.0,0.0,0.0,-3.1621,-3.2344,-3.3379,-3.4648,-3.5566,-3.6094,-3.6113,-3.6094,-3.6269,-3.6719,-3.7148,-3.7754,-3.8594,-3.9043,-3.9668,-4.0527,-4.0566,-4.0762,-4.1191,-4.1191,-4.1191,-4.1191,-4.1172,-4.1191,-4.1211,-4.1191,-4.1172,-4.1191,-4.1172,-4.1172,-4.1172,-4.1172,-4.0918,-4.0449,-3.959,-3.9512,-3.9844,-3.9394,-3.9512,-3.9824,0.0,0.0,0.0,0.0,0.0,0.0,0.0,0.0,0.0,0.0,0.0,0.0,0.0,0.0,0.0,0.0,0.0,0.0,0.0,0.0,0.0,0.0,0.0,0.0,0.0,0.0,0.0,0.0,0.0,0.0,0.0,0.0,0.0,0.0,0.0,0.0,0.0,0.0,0.0,0.0,0.0,0.0,-4.0949,0.0,0.0,0.0,0.0,0.0,0.0,0.0,0.0,0.0,0.0,0.0,0.0,0.0,0.0,0.0,0.0,0.0,0.0,0.0,0.0,0.0,0.0,0.0,0.0,0.0,0.0,0.0,0.0,0.0,0.0,0.0,0.0,-3.2578,-3.2461,-3.4277,-3.5957,-3.6914,-3.7246,-3.7637,-3.8262,-3.7773,-3.7715,-3.8457,-3.8926,-3.9414,-3.9961,-4.0391,-4.0879,-4.1426,-4.1445,-4.1504,-4.1621,-4.1621,-4.1621,-4.1621,-4.1328,-4.1484,-4.207,-4.1445,-4.1348,-4.1621,-4.1308,-4.1172,-4.1172,-4.1172,-4.1094,-4.0937,-4.0371,-4.0059,-3.9883,-3.9746,-3.9785,-3.9883,0.0,0.0,0.0,0.0,0.0,0.0,0.0,0.0,0.0,0.0,0.0,0.0,0.0,0.0,0.0,0.0,0.0,0.0,0.0,0.0,0.0,0.0,0.0,0.0,0.0,0.0,0.0,0.0,0.0,0.0,0.0,0.0,0.0,0.0,0.0,0.0,0.0,0.0,0.0,0.0,0.0,0.0,-4.3557,-4.2283,-4.1204,-4.0375,-3.9898,-3.9295,-3.8718,-3.8718,0.0,0.0,0.0,0.0,0.0,0.0,0.0,0.0,0.0,0.0,0.0,0.0,0.0,0.0,0.0,0.0,0.0,0.0,0.0,0.0,0.0,0.0,0.0,0.0,-3.3809,-3.4805,-3.5156,-3.6523,-3.7793,-3.8652,-3.9062,-3.9473,-3.998,-3.9746,-3.9746,-4.0254,-4.0547,-4.0879,-4.1289,-4.1387,-4.1621,-4.2051,-4.207,-4.207,-4.207,-4.1894,-4.1894,-4.2051,-4.1641,-4.1777,-4.2402,-4.1738,-4.1562,-4.1777,-4.1348,-4.1172,-4.1172,-4.1172,-4.1172,-4.1152,0.0,0.0,0.0,0.0,-4.0312,-4.0156,0.0,0.0,0.0,0.0,0.0,0.0,0.0,0.0,0.0,0.0,0.0,0.0,0.0,0.0,0.0,0.0,0.0,0.0,0.0,0.0,0.0,0.0,0.0,0.0,0.0,0.0,0.0,0.0,0.0,0.0,0.0,0.0,0.0,0.0,0.0,0.0,0.0,0.0,0.0,0.0,0.0,0.0,-4.7154,-4.5522,-4.4493,-4.3765,-4.2785,-4.1433,-3.9973,-3.9973,0.0,0.0,0.0,0.0,0.0,0.0,0.0,0.0,0.0,0.0,0.0,0.0,0.0,0.0,0.0,0.0,0.0,0.0,0.0,0.0,0.0,0.0,0.0,0.0,-3.5937,-3.7851,-3.8809,-3.8984,-3.9277,-4.0019,-4.082,-4.1308,-4.1308,-4.166,-4.1875,-4.1875,-4.1875,-4.2031,-4.2402,0.0,0.0,0.0,0.0,-4.25,-4.25,-4.2129,-4.2129,-4.25,-4.207,-4.2109,-4.2558,-4.209,-4.1875,-4.1855,-4.1426,-4.1211,-4.1172,-4.1172,-4.1172,-4.1172,-4.1172,-4.1172,-4.1172,-4.1172,-4.0937,-4.0586,0.0,0.0,0.0,0.0,0.0,0.0,0.0,0.0,0.0,0.0,0.0,0.0,0.0,0.0,0.0,0.0,0.0,0.0,0.0,0.0,0.0,0.0,0.0,0.0,0.0,0.0,0.0,0.0,0.0,0.0,0.0,0.0,0.0,0.0,0.0,0.0,0.0,0.0,0.0,0.0,0.0,0.0,-4.8335,-4.7104,-4.5748,-4.4443,-4.4217,-4.3087,-4.1735,-4.1735,-4.0953,-4.0023,-4.0023,0.0,0.0,0.0,0.0,0.0,0.0,0.0,0.0,0.0,0.0,0.0,0.0,0.0,0.0,0.0,0.0,0.0,0.0,0.0,0.0,-3.6641,-3.8047,-3.9375,-4.0957,-4.1465,-4.1621,-4.1445,-4.1875,-4.2187,-4.2187,-4.2266,-4.2305,-4.2305,-4.2305,-4.2344,-4.2422,-4.2344,-4.25,-4.293,-4.2949,-4.2949,-4.2949,-4.2871,-4.2871,-4.2949,-4.2519,0.0,-4.3437,-4.2656,-4.2305,-4.2285,-4.1855,-4.1484,-4.1172,-4.1172,-4.1172,-4.1172,-4.1172,-4.1172,-4.1172,-4.1172,-4.1113,-4.1055,0.0,0.0,0.0,0.0,0.0,0.0,0.0,0.0,0.0,0.0,0.0,0.0,0.0,0.0,0.0,0.0,0.0,0.0,0.0,0.0,0.0,0.0,0.0,0.0,0.0,0.0,0.0,0.0,0.0,0.0,0.0,0.0,0.0,0.0,0.0,0.0,0.0,0.0,0.0,0.0,0.0,0.0,-5.1096,-4.9715,-4.8159,-4.6652,-4.6376,-4.4844,-4.2986,-4.2986,-4.2258,-4.1279,-4.1028,-4.0752,-3.9844,0.0,0.0,0.0,0.0,0.0,0.0,0.0,0.0,0.0,0.0,0.0,0.0,0.0,0.0,-3.2871,0.0,0.0,-3.6953,-3.8906,-4.0312,-4.1523,-4.2598,-4.3144,-4.3086,-4.2207,-4.2305,-4.2422,-4.2422,-4.2812,-4.3066,-4.3066,-4.3066,-4.3262,-4.3711,-4.3105,-4.3047,-4.3711,-4.373,-4.373,-4.373,-4.373,-4.3848,-4.4043,-4.3379,-4.3418,-4.4023,-4.3144,-4.2637,-4.2402,-4.1973,-4.1562,-4.1172,-4.1172,-4.1172,-4.1172,-4.1172,-4.1172,-4.1172,-4.1172,-4.1172,-4.1172,0.0,0.0,0.0,0.0,0.0,0.0,0.0,0.0,0.0,0.0,0.0,0.0,0.0,0.0,0.0,0.0,0.0,0.0,0.0,0.0,0.0,0.0,0.0,0.0,0.0,0.0,0.0,0.0,0.0,0.0,0.0,0.0,0.0,0.0,0.0,0.0,0.0,0.0,0.0,0.0,0.0,0.0,-5.3406,-5.2101,-5.0619,-4.9163,-4.836,-4.6376,-4.4091,-4.374,-4.2986,-4.2137,-4.163,-4.1505,-4.0814,-3.7275,-3.5882,0.0,0.0,0.0,0.0,0.0,0.0,0.0,0.0,0.0,-3.2402,-3.3359,-3.4101,-3.5019,-3.6504,-3.8242,-3.9824,-4.0957,-4.2383,-4.3476,-4.3906,-4.4219,-4.4004,-4.293,-4.2812,-4.2812,-4.2812,-4.3437,-4.3848,-4.3848,-4.3848,-4.4121,-4.4726,-4.3769,-4.3574,-4.4375,-4.4394,-4.4433,-4.4512,-4.4512,-4.4687,-4.5019,-4.4219,-4.4043,-4.4375,-4.3574,-4.291,-4.2402,-4.1894,-4.1484,-4.1172,-4.1172,-4.1172,-4.1172,-4.1172,-4.1172,-4.1172,-4.1172,-4.1172,-4.1172,0.0,0.0,0.0,0.0,0.0,0.0,0.0,0.0,0.0,0.0,0.0,0.0,0.0,0.0,0.0,0.0,0.0,0.0,0.0,0.0,0.0,0.0,0.0,0.0,0.0,0.0,0.0,0.0,0.0,0.0,0.0,0.0,0.0,0.0,0.0,0.0,0.0,0.0,0.0,0.0,0.0,0.0,-5.3005,-5.2804,-5.2026,-5.0795,-4.9238,-4.723,-4.507,-4.3564,-4.266,-4.2213,-4.2137,-4.2112,-4.1414,-3.787,0.0,-3.5232,-3.183,-3.0859,-3.082,-3.082,-3.1426,-3.2226,0.0,0.0,-3.4707,-3.5976,-3.6309,-3.7012,-3.9082,-3.9961,-4.1035,-4.3027,-4.3848,-4.4394,-4.4824,-4.4609,-4.4336,-4.4199,-4.418,-4.418,-4.418,-4.4258,-4.4316,-4.4316,-4.4316,-4.418,-4.3867,-4.3711,-4.3867,-4.4375,-4.4394,-4.457,-4.4961,-4.4961,-4.498,-4.5019,-4.4551,-4.4355,-4.4375,-4.3867,-4.3183,-4.2383,-4.1582,-4.1211,-4.1172,-4.1172,-4.1172,-4.1172,-4.1172,-4.1172,-4.1172,-4.1172,-4.1172,-4.1172,0.0,0.0,0.0,0.0,0.0,0.0,0.0,0.0,0.0,0.0,0.0,0.0,0.0,0.0,0.0,0.0,0.0,0.0,0.0,0.0,0.0,0.0,0.0,0.0,0.0,0.0,0.0,0.0,0.0,0.0,0.0,0.0,0.0,0.0,0.0,0.0,0.0,0.0,0.0,0.0,0.0,0.0,-5.3231,-5.195,-5.077,-4.969,-4.8636,-4.6652,0.0,0.0,-4.1882,-4.163,-4.1304,-4.143,-4.1151,-3.8493,-3.7347,0.0,-3.3027,-3.1736,0.0,0.0,-3.2832,-3.3633,-3.5,-3.5781,-3.6582,-3.7871,-3.875,-3.9785,-4.1445,-4.2519,-4.3516,0.0,-4.5215,-4.5566,-4.5742,-4.5195,-4.457,-4.4062,-4.3769,-4.3828,-4.4355,-4.4629,-4.4766,-4.4766,-4.5,-4.5058,-4.4863,-4.4609,-4.4687,-4.5137,-4.5137,-4.5234,-4.541,-4.5644,-4.5644,-4.541,-4.5234,-4.4883,-4.4394,-4.4199,-4.3496,-4.2383,-4.1543,-4.1172,-4.1172,-4.1172,-4.1172,-4.1172,-4.1172,-4.1172,-4.1172,-4.1172,-4.1172,-4.1385,0.0,0.0,0.0,0.0,0.0,0.0,0.0,0.0,0.0,0.0,0.0,0.0,0.0,0.0,0.0,0.0,0.0,0.0,0.0,0.0,0.0,0.0,0.0,0.0,0.0,0.0,0.0,0.0,0.0,0.0,0.0,0.0,0.0,0.0,0.0,0.0,0.0,0.0,0.0,0.0,0.0,0.0,-5.2578,-5.0519,-4.8862,-4.7556,-4.6979,-4.5196,0.0,0.0,-4.0752,-4.0852,-4.0601,-4.0802,-4.0707,-3.9038,-3.7488,-3.5904,-3.4111,0.0,0.0,-3.3789,-3.4648,-3.5586,-3.7344,-3.8144,-3.8906,-4.0176,-4.1113,-4.2012,-4.3066,-4.4023,-4.4844,-4.541,-4.5859,-4.6094,-4.5957,-4.5215,-4.4297,-4.3301,-4.2695,-4.2715,-4.3594,-4.4277,-4.4707,-4.4844,-4.5254,-4.5508,-4.5508,-4.5195,-4.5234,-4.5664,-4.5683,-4.5723,-4.584,-4.6152,-4.6152,-4.584,-4.5605,-4.5176,-4.4551,-4.4082,-4.3262,-4.2207,-4.1484,-4.1172,-4.1172,-4.1172,-4.1172,-4.125,-4.1753,-4.1695,-4.1327,-4.2427,-4.2139,-4.1463,0.0,0.0,0.0,0.0,0.0,0.0,0.0,0.0,0.0,0.0,0.0,0.0,0.0,0.0,0.0,0.0,0.0,0.0,0.0,0.0,0.0,0.0,0.0,0.0,0.0,0.0,0.0,0.0,0.0,0.0,0.0,0.0,0.0,0.0,0.0,0.0,0.0,0.0,0.0,0.0,0.0,0.0,-5.0343,-4.8636,-4.6627,-4.4669,-4.4116,0.0,0.0,0.0,-3.9295,-3.9848,-4.035,-4.0526,0.0,-3.9375,-3.6308,0.0,0.0,0.0,-3.3789,-3.5508,-3.6875,-3.8262,-4.0,-4.1055,-4.2031,-4.3301,-4.3281,-4.3164,-4.3594,-4.3711,-4.4023,-4.4902,-4.541,-4.5547,-4.5117,-4.4297,-4.3281,-4.2012,-4.1113,-4.0937,0.0,-4.3008,-4.3926,-4.4375,-4.4805,-4.5039,-4.5039,-4.5039,-4.5234,-4.5664,-4.5683,-4.5879,-4.6289,-4.6289,-4.6289,-4.6269,-4.5449,-4.5039,-4.4941,-4.3262,-4.2246,-4.1797,-4.1367,-4.1172,-4.1172,-4.1172,-4.1172,-4.1385,-4.3304,-4.2846,-4.1695,-4.5425,-4.4398,-4.1463,0.0,0.0,0.0,0.0,0.0,0.0,0.0,0.0,0.0,0.0,0.0,0.0,0.0,0.0,0.0,0.0,0.0,0.0,0.0,0.0,0.0,0.0,0.0,0.0,0.0,0.0,0.0,0.0,0.0,0.0,0.0,0.0,0.0,0.0,0.0,0.0,0.0,0.0,0.0,0.0,0.0,0.0,-4.949,-4.5974,-4.3714,-4.2178,0.0,0.0,0.0,0.0,0.0,0.0,-3.8241,0.0,0.0,-3.8929,-3.7247,-3.5525,0.0,0.0,-3.5996,-3.7695,-3.9121,-4.0527,-4.2246,-4.2851,-4.3183,-4.3613,-4.2695,-4.1777,-4.1621,-4.1836,-4.2207,-4.2793,-4.4219,-4.5098,-4.4668,-4.4082,-4.3125,-4.1562,-4.0879,0.0,0.0,0.0,0.0,-4.3867,-4.4609,-4.5019,-4.5019,-4.5566,-4.5937,-4.6094,-4.6094,-4.6152,-4.6308,-4.6308,-4.6016,-4.5449,-4.457,-4.4141,-4.4121,-4.2949,-4.2207,-4.1856,-4.2742,-4.2427,-4.1327,-4.256,-4.3151,-4.3228,-4.3869,-4.4473,-4.5201,-4.6514,-4.6167,-4.5351,0.0,0.0,0.0,0.0,0.0,0.0,0.0,0.0,0.0,0.0,0.0,0.0,0.0,0.0,0.0,0.0,0.0,0.0,0.0,0.0,0.0,0.0,0.0,0.0,0.0,0.0,0.0,0.0,0.0,0.0,0.0,0.0,0.0,0.0,0.0,0.0,0.0,0.0,0.0,0.0,0.0,0.0,-4.6828,-4.3187,-4.1103,0.0,0.0,0.0,0.0,0.0,0.0,0.0,0.0,-3.799,-3.8718,-3.9295,-3.8761,-3.8167,0.0,-3.971,-4.0286,-4.1231,-4.241,-4.3498,-4.4561,-4.4268,-4.3535,-4.293,-4.168,-4.0582,-4.0256,-3.9825,-4.003,-4.1271,-4.225,-4.3008,-4.3223,-4.2851,-4.2109,-4.0859,-4.0312,-4.0,0.0,0.0,0.0,-4.3144,-4.4062,-4.4687,-4.5,-4.5703,-4.6152,-4.6289,-4.6308,-4.6308,-4.6308,-4.6152,-4.5644,-4.4805,-4.5088,-4.5022,-4.4541,-4.382,-4.3711,-4.3963,-4.4078,-4.3815,-4.338,-4.4623,-4.5127,-4.5201,-4.5923,-4.6514,-4.7175,-4.8578,-4.865,-4.8289,0.0,0.0,0.0,0.0,0.0,0.0,0.0,0.0,0.0,0.0,0.0,0.0,0.0,0.0,0.0,0.0,0.0,0.0,0.0,0.0,0.0,0.0,0.0,0.0,0.0,0.0,0.0,0.0,0.0,0.0,0.0,0.0,0.0,0.0,0.0,0.0,0.0,0.0,0.0,0.0,0.0,0.0,-4.261,-4.04,0.0,0.0,0.0,0.0,0.0,0.0,0.0,0.0,0.0,0.0,-3.9823,-4.045,-4.0844,-4.1224,-4.2141,-4.4319,-4.6244,-4.595,-4.6532,-4.7187,-4.6985,-4.5352,-4.3411,-4.1719,-4.0597,-3.9745,0.0,0.0,-3.7599,-4.0277,-3.9951,-3.9785,-4.1055,-4.0898,-4.0488,0.0,0.0,0.0,0.0,0.0,0.0,-4.2344,0.0,-4.4082,-4.498,-4.5469,-4.5879,-4.625,-4.6289,-4.6289,-4.6269,-4.5859,-4.532,-4.4582,-4.6947,-4.7454,-4.6369,-4.5926,-4.656,-4.7813,-4.5481,-4.549,-4.7118,-4.7192,-4.7265,-4.7411,-4.9295,-4.8912,-4.785,-5.1562,-5.1771,-5.0222,0.0,0.0,0.0,0.0,0.0,0.0,0.0,0.0,0.0,0.0,0.0,0.0,0.0,0.0,0.0,0.0,0.0,0.0,0.0,0.0,0.0,0.0,0.0,0.0,0.0,0.0,0.0,0.0,0.0,0.0,0.0,0.0,0.0,0.0,0.0,0.0,0.0,0.0,0.0,0.0,0.0,0.0,-4.0902,0.0,0.0,0.0,0.0,0.0,0.0,0.0,0.0,0.0,0.0,0.0,-4.0049,-4.1831,-4.3179,-4.4484,-4.6271,-4.7941,-4.9184,-4.9085,-4.9349,-4.9456,-4.8596,-4.7071,-4.5352,-4.3735,-4.134,-3.9196,0.0,0.0,0.0,-3.9108,-4.0372,0.0,-4.2012,-4.2285,0.0,0.0,0.0,-4.084,-4.1269,-4.1308,0.0,0.0,-4.3398,-4.4082,-4.498,-4.5742,-4.6055,-4.584,-4.6133,-4.6152,-4.584,-4.541,-4.5803,-4.7175,-4.7191,-4.7645,-4.8554,-4.8421,-4.8418,-4.8531,-4.9313,-4.9171,-4.8351,-4.9859,-5.0446,-5.0423,-5.0554,-5.1465,-5.2735,-5.3283,-5.3203,-5.2759,0.0,0.0,0.0,0.0,0.0,0.0,0.0,0.0,0.0,0.0,0.0,0.0,0.0,0.0,0.0,0.0,0.0,0.0,0.0,0.0,0.0,0.0,0.0,0.0,0.0,0.0,0.0,0.0,0.0,0.0,0.0,0.0,0.0,0.0,0.0,0.0,0.0,0.0,0.0,0.0,0.0,0.0,0.0,0.0,0.0,0.0,0.0,0.0,0.0,0.0,0.0,-3.917,-4.0023,-4.1204,-4.271,-4.5171,0.0,-4.8519,-4.9698,-5.2003,-5.3619,-5.2202,-5.1931,-5.1431,-4.9222,-4.7118,-4.4852,-4.2237,-4.0088,0.0,0.0,0.0,0.0,0.0,0.0,0.0,-4.1367,-4.1797,-4.1992,0.0,-4.2031,0.0,-4.2344,-4.2519,-4.293,0.0,-4.3691,-4.4082,-4.498,-4.5469,-4.5801,-4.5957,-4.5996,-4.582,-4.5391,-4.6231,-4.6943,-4.7541,-4.9134,-5.0287,-5.0964,-5.0733,-5.1007,-5.1618,-5.1626,-5.1457,-5.136,-5.2429,-5.2888,-5.2864,-5.2571,-5.3313,-5.4607,-5.421,-5.4084,-5.4084,0.0,0.0,0.0,0.0,0.0,0.0,0.0,0.0,0.0,0.0,0.0,0.0,0.0,0.0,0.0,0.0,0.0,0.0,0.0,0.0,0.0,0.0,0.0,0.0,0.0,0.0,0.0,0.0,0.0,0.0,0.0,0.0,0.0,0.0,0.0,0.0,0.0,0.0,0.0,0.0,0.0,0.0,0.0,0.0,0.0,0.0,0.0,0.0,0.0,0.0,-4.0927,-4.163,-4.261,-4.44,-4.6577,-4.9414,-5.1448,-5.2834,-5.3057,-5.5998,-5.8146,-5.5062,-5.4051,-5.2926,-4.9264,-4.6377,-4.3376,-3.9724,0.0,-3.8182,-3.8271,0.0,-3.6091,-3.9175,0.0,-3.7716,-4.0633,-4.1107,-4.1502,-4.2363,-4.3133,-4.3509,-4.3324,-4.3633,-4.4229,-4.4931,-4.4679,-4.4695,-4.5464,-4.5562,-4.6108,-4.7101,-4.6809,-4.643,-4.6091,-4.8128,-4.8725,-4.7917,-5.1807,-5.3604,-5.3477,-5.3096,-5.3864,-5.5393,-5.3157,-5.318,-5.4787,-5.4787,-5.4787,-5.4787,-5.4712,-5.4712,-5.4762,-5.4712,-5.4687,-5.4687,0.0,0.0,0.0,0.0,0.0,0.0,0.0,0.0,0.0,0.0,-3.3275,-3.3664,0.0,0.0,0.0,0.0,0.0,0.0,0.0,0.0,0.0,0.0,0.0,0.0,0.0,0.0,0.0,0.0,0.0,0.0,0.0,0.0,0.0,0.0,0.0,0.0,0.0,0.0,0.0,0.0,0.0,0.0,0.0,0.0,0.0,0.0,0.0,0.0,0.0,0.0,-4.1178,-4.2585,-4.5874,-4.7807,-4.9515,-5.2754,-5.4888,-5.6396,-5.7299,-5.8748,-5.9481,-5.7074,-5.5108,-5.2994,-5.0058,-4.6884,0.0,0.0,0.0,-3.9907,-3.9531,-3.9012,0.0,-4.2218,0.0,0.0,0.0,0.0,-4.4284,0.0,0.0,0.0,0.0,0.0,0.0,0.0,0.0,-4.8171,-4.8337,-4.8605,-4.9702,-5.1678,-5.1405,-5.1295,-5.152,-5.1123,-5.1683,-5.3272,-5.3218,-5.4047,-5.5656,-5.5556,-5.5751,-5.6068,-5.5578,-5.5626,-5.5917,-5.5917,-5.5917,-5.5892,-5.5415,-5.5516,-5.5867,-5.5415,-5.5239,-5.5239,0.0,0.0,0.0,0.0,0.0,0.0,0.0,-3.3841,-3.3462,-3.3066,-3.3604,-3.3993,-3.3993,-3.4891,0.0,0.0,0.0,0.0,0.0,0.0,0.0,0.0,0.0,0.0,0.0,0.0,0.0,0.0,0.0,0.0,0.0,0.0,0.0,0.0,0.0,0.0,0.0,0.0,0.0,0.0,0.0,0.0,0.0,0.0,0.0,0.0,0.0,0.0,0.0,0.0,-4.163,-4.3639,-4.723,-4.9715,-5.1925,-5.4963,-5.6821,-5.8127,-5.9257,-6.0161,-6.0161,-5.765,-5.5164,-5.2427,-4.9088,0.0,0.0,0.0,0.0,-4.0099,-4.0124,0.0,0.0,0.0,0.0,0.0,0.0,0.0,0.0,0.0,0.0,0.0,0.0,0.0,0.0,0.0,0.0,-5.1018,-5.1018,-5.1235,-5.1734,-5.2563,-5.2563,-5.2563,-5.2563,-5.3222,-5.3747,-5.4241,-5.4854,-5.5485,-5.6219,-5.6219,-5.6219,-5.6219,-5.6219,-5.6219,-5.6219,-5.6219,-5.6219,-5.6194,-5.5917,-5.5968,-5.6168,-5.5917,-5.5817,-5.5817,0.0,0.0,0.0,0.0,0.0,0.0,0.0,-3.4101,-3.3771,-3.3727,-3.445,-3.4872,-3.4713,-3.519,-3.5519,0.0,0.0,0.0,0.0,0.0,0.0,0.0,0.0,0.0,0.0,0.0,0.0,-3.7404,0.0,0.0,0.0,0.0,0.0,0.0,0.0,0.0,0.0,0.0,0.0,0.0,0.0,0.0,0.0,0.0,0.0,0.0,0.0,0.0,0.0,0.0,-4.2007,-4.4141,-4.7129,-5.0218,-5.3231,-5.5767,-5.7625,-5.9031,-5.991,-6.0638,-6.0487,-5.7575,-5.4712,-5.1599,-4.7807,-4.4719,0.0,0.0,-3.9798,-3.9998,-4.0425,0.0,0.0,0.0,0.0,0.0,0.0,0.0,0.0,0.0,0.0,0.0,0.0,0.0,0.0,0.0,0.0,-5.4069,-5.3661,-5.4069,-5.4153,-5.3842,-5.4107,-5.413,-5.3819,-5.5344,-5.5674,-5.4933,-5.6476,-5.6922,-5.6394,-5.6394,-5.6319,-5.6219,-5.6219,-5.6219,-5.6219,-5.6219,-5.6219,-5.6219,-5.6219,-5.6219,-5.6219,-5.6219,-5.6219,-5.6219,0.0,0.0,0.0,0.0,0.0,0.0,0.0,-3.4569,-3.4568,-3.4418,-3.5583,-3.6167,-3.5497,-3.5459,-3.5519,0.0,0.0,0.0,0.0,0.0,0.0,0.0,0.0,0.0,0.0,0.0,0.0,-3.7404,-3.7799,0.0,0.0,0.0,0.0,0.0,0.0,-3.3822,0.0,0.0,0.0,0.0,0.0,0.0,0.0,0.0,0.0,0.0,0.0,0.0,0.0,0.0,0.0,-4.3363,-4.5221,-4.8736,-5.2528,-5.4285,0.0,0.0,-5.9533,-6.0362,-6.0387,-5.7097,-5.3833,-5.0544,-4.7154,0.0,0.0,0.0,-4.0099,-4.045,-4.0501,-4.1297,0.0,0.0,0.0,0.0,0.0,0.0,0.0,0.0,0.0,0.0,0.0,0.0,0.0,0.0,-5.7746,-5.8031,-5.5975,-5.777,-5.889,-5.884,-5.889,-5.889,-5.884,-5.8547,-5.8349,-5.8249,-5.7976,-5.7524,-5.6972,-5.6972,-5.6696,-5.6219,-5.6219,-5.6219,-5.6219,-5.6219,-5.6219,-5.6219,-5.6219,-5.6219,-5.6219,-5.6219,-5.6219,-5.6219,0.0,0.0,0.0,0.0,0.0,0.0,-3.5021,-3.4516,-3.4273,-3.5015,-3.5569,-3.5846,-3.5522,-3.5519,-3.5519,0.0,0.0,0.0,0.0,0.0,0.0,0.0,0.0,0.0,0.0,0.0,-3.7165,-3.7404,-3.7817,0.0,0.0,0.0,0.0,0.0,0.0,-3.3897,-3.3947,0.0,0.0,0.0,0.0,0.0,0.0,0.0,0.0,0.0,0.0,0.0,0.0,0.0,0.0,0.0,-4.1882,-4.4342,0.0,0.0,-5.4712,-5.6897,-5.8579,-5.9834,-5.996,-5.6972,-5.3457,-5.0067,-4.7405,0.0,0.0,-4.0777,-4.0799,-4.1103,-4.1455,-4.1911,-4.2539,0.0,0.0,0.0,0.0,0.0,0.0,0.0,0.0,0.0,0.0,0.0,0.0,0.0,-5.8993,-5.9095,-5.8266,-5.8719,-5.9031,-5.9031,-5.9031,-5.9031,-5.9031,-5.9131,-5.9031,-5.873,-5.8504,-5.7926,-5.7047,-5.7399,-5.7072,-5.6219,-5.657,-5.652,-5.6219,-5.6219,-5.6219,-5.6219,-5.6219,-5.6219,-5.6219,-5.6219,-5.6219,-5.6219,0.0,0.0,0.0,0.0,0.0,-3.4197,-3.5134,-3.445,-3.4203,-3.534,-3.5519,-3.5519,-3.5519,-3.5519,-3.5519,-3.5519,0.0,0.0,0.0,0.0,0.0,0.0,0.0,0.0,0.0,0.0,-3.7614,-3.7404,-3.7974,-3.7956,0.0,0.0,-3.4815,-3.423,0.0,0.0,0.0,0.0,0.0,0.0,0.0,0.0,0.0,0.0,0.0,0.0,0.0,0.0,0.0,0.0,0.0,0.0,0.0,0.0,0.0,0.0,-5.1649,-5.431,-5.642,-5.8152,-5.8805,-5.6545,-5.3055,-4.964,0.0,0.0,0.0,-4.1326,-4.1455,-4.1706,-4.2137,-4.2338,-4.259,0.0,0.0,0.0,0.0,0.0,0.0,0.0,0.0,0.0,0.0,0.0,0.0,0.0,-5.9483,-5.9483,-5.9483,-5.9006,-5.878,-5.8956,-5.8956,-5.8956,-5.8956,-5.9307,-5.9307,-5.8956,-5.8805,-5.8227,-5.7298,-5.7524,-5.7123,-5.6244,-5.662,-5.657,-5.6219,-5.6219,-5.6219,-5.6219,-5.6219,-5.6219,-5.6219,-5.6219,-5.6219,-5.6219,0.0,0.0,0.0,0.0,0.0,0.0,-3.4519,-3.4516,-3.4711,-3.54,-3.5519,-3.5519,-3.5519,-3.5519,-3.5519,-3.5519,0.0,0.0,0.0,0.0,0.0,0.0,0.0,0.0,0.0,0.0,-3.8063,-3.7404,-3.8715,-3.8294,-3.6251,-3.6212,-3.5075,-3.3162,0.0,0.0,0.0,0.0,0.0,0.0,0.0,0.0,0.0,0.0,0.0,0.0,0.0,0.0,0.0,0.0,0.0,0.0,0.0,0.0,0.0,0.0,-4.7807,-5.2251,-5.2829,-5.4988,-5.6796,-5.5666,-5.2477,-4.9163,0.0,0.0,0.0,-4.1401,-4.1756,-4.2213,-4.2213,-4.2665,-4.2961,-4.2986,0.0,0.0,0.0,0.0,0.0,0.0,0.0,0.0,0.0,0.0,0.0,0.0,-5.9483,0.0,-5.9483,-5.9006,-5.8956,-5.9458,-5.9483,-5.9483,-5.9483,-5.9483,-5.9483,-5.9483,-5.8956,-5.8428,-5.7876,-5.7298,-5.6746,-5.6219,-5.6219,-5.6219,-5.6219,-5.6219,-5.6219,-5.6219,-5.6219,-5.6219,-5.6219,-5.6219,-5.6219,-5.6219,0.0,0.0,0.0,0.0,0.0,0.0,0.0,-3.4789,-3.4711,-3.54,-3.5519,-3.5519,-3.5519,-3.5519,-3.5519,-3.5519,0.0,0.0,0.0,0.0,0.0,0.0,0.0,0.0,0.0,0.0,-3.8302,-3.8093,-3.9439,-3.9736,-3.9011,-3.7563,-3.677,-3.6458,-3.5237,-3.4881,0.0,0.0,0.0,0.0,0.0,0.0,0.0,0.0,0.0,0.0,0.0,0.0,0.0,0.0,0.0,0.0,0.0,0.0,0.0,0.0,0.0,0.0,-4.9515,-5.1272,-5.2327,-5.1599,-4.9665,-4.7581,-4.6301,0.0,0.0,-4.2484,-4.2585,-4.2766,-4.2766,-4.2861,-4.3112,-4.3489,-4.3689,0.0,0.0,0.0,0.0,0.0,0.0,0.0,0.0,0.0,0.0,-5.9483,-5.9483,-5.9483,-5.9483,-5.9332,-5.9156,-5.8981,-5.8956,-5.8956,-5.8956,-5.9307,-5.9307,-5.8956,-5.8805,-5.8227,-5.7323,-5.7524,-5.7123,-5.6244,-5.662,-5.657,-5.6219,-5.6219,-5.6219,-5.6219,-5.6219,-5.6219,-5.6219,-5.6219,-5.6219,-5.6219,0.0,0.0,0.0,0.0,0.0,0.0,0.0,-3.4997,-3.5011,-3.5459,-3.5519,-3.5519,-3.5519,-3.5519,-3.5519,-3.5519,0.0,0.0,0.0,0.0,0.0,0.0,0.0,0.0,0.0,-3.7734,-3.8512,-3.8781,-3.9424,-3.9925,-4.0123,-3.7889,-3.7081,-3.7419,-3.5756,-3.5182,0.0,0.0,0.0,0.0,0.0,0.0,-3.8944,0.0,0.0,0.0,0.0,0.0,0.0,0.0,0.0,0.0,0.0,0.0,0.0,0.0,0.0,0.0,0.0,-4.8159,-4.9188,-4.9264,-4.7883,0.0,0.0,0.0,0.0,0.0,-4.2986,-4.3037,-4.3237,-4.3288,-4.3463,-4.4016,-4.4292,0.0,0.0,0.0,0.0,0.0,0.0,0.0,0.0,0.0,0.0,-5.9483,-5.9483,-5.9483,-5.9483,-5.9483,-5.9257,-5.873,-5.873,-5.8805,-5.9006,-5.9131,-5.9031,-5.873,-5.8504,-5.7926,-5.7047,-5.7198,-5.6872,-5.6219,-5.657,-5.652,0.0,-5.6219,-5.6219,-5.6219,-5.6219,-5.6219,-5.6219,-5.6219,-5.6219,-5.6219,0.0,0.0,0.0,0.0,0.0,0.0,0.0,-3.51,-3.5519,-3.5519,-3.5519,-3.5519,-3.5519,-3.5519,-3.5519,-3.5519,0.0,0.0,0.0,0.0,0.0,0.0,0.0,0.0,-3.6537,-3.7793,-3.8781,-3.9373,-3.8993,-3.9178,-3.9873,-3.7461,-3.6515,-3.6698,-3.5896,-3.5508,-3.5633,-3.6734,-3.7211,-3.7337,-3.8492,-3.8944,0.0,0.0,0.0,0.0,0.0,0.0,0.0,0.0,0.0,0.0,0.0,0.0,0.0,0.0,0.0,0.0,0.0,0.0,0.0,0.0,0.0,0.0,0.0,0.0,0.0,0.0,0.0,0.0,-4.3714,-4.384,-4.4041,-4.4593,0.0,0.0,0.0,0.0,0.0,0.0,0.0,0.0,0.0,0.0,-5.9483,-5.9483,-5.9483,-5.9483,-5.9483,-5.9483,-5.9257,-5.873,-5.8679,-5.8905,-5.9382,-5.8905,-5.8629,-5.8604,-5.8077,-5.7524,-5.6972,-5.6445,-5.6219,-5.6219,-5.6219,-5.6219,-5.6219,-5.6219,-5.6219,-5.6219,-5.6219,-5.6219,-5.6219,-5.6219,-5.6219,-5.6219,0.0,0.0,0.0,0.0,0.0,0.0,0.0,0.0,0.0,0.0,-3.5519,-3.5519,-3.5519,-3.5519,-3.5519,0.0,0.0,0.0,0.0,0.0,0.0,0.0,0.0,0.0,-3.7195,-3.8482,-3.926,-3.9373,-3.9392,-3.9925,-4.0973,-3.8321,-3.7792,-3.9011,-3.6593,-3.578,-3.6207,-3.6885,-3.7437,-3.7889,-3.8592,-3.912,0.0,0.0,0.0,0.0,-3.9697,-3.9697,0.0,0.0,0.0,0.0,0.0,0.0,0.0,0.0,-3.9697,-3.9948,-4.1153,0.0,-4.2861,-4.3539,-4.3696,-4.3564,0.0,0.0,0.0,0.0,0.0,0.0,0.0,0.0,0.0,0.0,0.0,0.0,0.0,0.0,0.0,0.0,0.0,0.0,0.0,0.0,-5.9483,-5.9483,-5.9483,-5.9483,-5.9483,-5.9483,-5.9257,-5.873,-5.8303,-5.8152,-5.8278,-5.8152,-5.7876,-5.7424,-5.7298,-5.6947,-5.6394,-5.6269,-5.6219,-5.6219,-5.6219,-5.6219,-5.6219,-5.6219,-5.6219,-5.6219,-5.6219,-5.6219,-5.6219,-5.6219,-5.6219,-5.6219,0.0,0.0,0.0,0.0,0.0,0.0,0.0,0.0,0.0,0.0,0.0,0.0,0.0,0.0,0.0,0.0,0.0,0.0,0.0,0.0,0.0,0.0,0.0,-3.7135,-3.7404,-3.8422,-3.9379,-4.0307,-3.9829,-4.0271,-4.1439,-3.8878,-3.8176,-3.8979,-3.6842,-3.6081,-3.6455,-3.7211,-3.7739,-3.809,-3.8919,0.0,0.0,0.0,0.0,0.0,-3.9697,-3.9697,0.0,-3.9697,-3.9697,-3.9697,0.0,0.0,0.0,0.0,-3.9873,-4.0149,-4.0425,-4.0874,-4.1455,-4.2062,-4.2615,-4.2986,0.0,0.0,0.0,0.0,0.0,0.0,0.0,0.0,0.0,0.0,0.0,0.0,0.0,0.0,0.0,0.0,0.0,0.0,0.0,-5.9106,-5.9483,-5.9483,-5.9483,-5.9483,-5.9483,-5.9282,-5.8905,-5.8353,-5.7801,-5.7625,-5.7901,-5.7374,-5.6972,-5.6646,-5.6646,-5.6369,-5.5842,-5.5842,-5.5842,-5.5817,-5.5566,-5.5465,-5.5465,-5.5465,-5.5465,-5.5465,-5.5465,-5.5616,-5.5842,-5.5842,-5.5993,-5.6168,0.0,0.0,0.0,0.0,0.0,0.0,0.0,0.0,0.0,0.0,0.0,0.0,0.0,0.0,0.0,0.0,0.0,0.0,0.0,0.0,0.0,0.0,0.0,-3.6926,-3.7554,-3.8302,-3.9529,-4.1235,-4.0363,-4.0469,-4.1504,-3.939,-3.8227,-3.7946,-3.6875,-3.6455,-3.6606,-3.7563,-3.8065,-3.8241,-3.927,0.0,0.0,0.0,0.0,0.0,0.0,0.0,0.0,-3.9697,-3.9747,-3.9823,-3.9823,0.0,0.0,0.0,0.0,0.0,-4.0651,-4.1053,-4.158,-4.2087,-4.2615,-4.3011,0.0,0.0,0.0,0.0,0.0,0.0,0.0,0.0,0.0,0.0,0.0,0.0,0.0,0.0,0.0,0.0,0.0,0.0,-5.9659,-5.9633,-5.9483,-5.9483,-5.9483,-5.9458,-5.9382,-5.8956,-5.8428,-5.7775,-5.7298,-5.7198,-5.7499,-5.657,-5.6093,-5.6093,-5.5993,-5.5767,-5.539,-5.529,-5.5315,-5.5365,-5.4813,-5.4561,-5.4561,-5.4561,-5.4561,-5.4561,-5.4561,-5.4863,-5.5265,-5.5265,-5.5566,-5.5892,0.0,0.0,0.0,0.0,0.0,0.0,0.0,0.0,0.0,0.0,0.0,0.0,0.0,0.0,0.0,0.0,0.0,0.0,0.0,0.0,0.0,-3.6327,-3.6926,-3.7584,-3.8212,-3.9469,-4.0247,-4.0546,-4.1033,-4.1344,-4.1407,-4.0187,-3.8804,-3.7298,-3.6653,-3.6681,-3.7111,-3.7739,-3.8291,-3.8844,-3.9446,0.0,0.0,0.0,0.0,0.0,0.0,0.0,0.0,-3.9697,-3.9998,-4.04,-4.04,0.0,0.0,0.0,0.0,0.0,-4.1175,-4.1605,-4.2112,-4.2187,-4.2615,-4.3112,0.0,0.0,0.0,0.0,0.0,0.0,0.0,0.0,0.0,0.0,0.0,0.0,0.0,0.0,0.0,0.0,0.0,0.0,-5.765,-5.873,-5.9483,-5.9483,-5.9483,-5.9307,-5.8855,-5.8755,-5.8252,-5.7198,-5.7072,-5.662,-5.5792,-5.5591,-5.5516,-5.5516,-5.5039,-5.5013,-5.5365,-5.4913,-5.4938,-5.5365,-5.4813,-5.4561,-5.4561,-5.4561,-5.4561,-5.4561,-5.4561,-5.4612,-5.4687,-5.4687,-5.4737,-5.4813,0.0,0.0,0.0,0.0,0.0,0.0,0.0,0.0,0.0,0.0,0.0,0.0,0.0,0.0,0.0,0.0,0.0,0.0,0.0,0.0,0.0,-3.7494,-3.7793,-3.8242,-3.8931,-3.9888,-4.0905,-4.1983,-4.2336,-4.2573,-4.2538,-4.0441,-3.8631,-3.7161,-3.6656,-3.6707,-3.7211,-3.7764,-3.8341,-3.8969,0.0,0.0,0.0,0.0,0.0,0.0,0.0,0.0,0.0,0.0,-4.0099,-4.0174,-4.0777,0.0,0.0,0.0,0.0,0.0,-4.1781,-4.2183,-4.2715,-4.2961,-4.3237,-4.3489,0.0,0.0,0.0,0.0,0.0,0.0,0.0,0.0,0.0,0.0,0.0,0.0,0.0,0.0,0.0,0.0,0.0,-5.8328,-5.878,-5.8981,-5.9081,-5.9081,-5.8805,-5.8529,-5.8278,-5.77,-5.7273,-5.7047,-5.6168,-5.5591,-5.539,-5.4787,-5.4486,-5.4486,-5.421,-5.4235,-5.4461,-5.421,-5.4235,-5.4436,-5.3909,-5.3683,-5.3683,-5.3683,-5.3683,-5.3683,-5.3683,-5.3858,-5.4135,-5.4461,-5.4361,-5.4135,0.0,0.0,0.0,0.0,0.0,0.0,0.0,0.0,0.0,0.0,0.0,0.0,0.0,0.0,0.0,0.0,0.0,0.0,0.0,0.0,-3.7375,-3.8332,-3.8691,-3.911,-3.9649,-4.0457,-4.1683,-4.329,-4.3768,-4.3885,-4.3523,-4.0345,-3.8398,-3.7538,-3.6908,-3.6983,-3.7613,-3.804,-3.8542,-3.9094,0.0,0.0,0.0,0.0,0.0,0.0,0.0,0.0,0.0,0.0,0.0,0.0,0.0,0.0,0.0,-4.1605,-4.2032,-4.2414,-4.2414,-4.2715,-4.3112,-4.3664,0.0,-4.389,0.0,0.0,0.0,0.0,0.0,0.0,0.0,0.0,0.0,0.0,0.0,0.0,0.0,0.0,-5.5717,-5.8001,-5.7876,-5.8278,-5.996,-5.9282,-5.873,-5.873,-5.8202,-5.7775,-5.7524,-5.6671,-5.6294,-5.6445,-5.5214,-5.4712,-5.4988,-5.4135,-5.3708,-5.3708,-5.3582,-5.3582,-5.3708,-5.3582,-5.3582,-5.3683,-5.3155,-5.2929,-5.2929,-5.2929,-5.2929,-5.2929,-5.2929,-5.3181,-5.3582,-5.4009,-5.3909,-5.3582,0.0,0.0,0.0,0.0,0.0,0.0,0.0,0.0,0.0,0.0,0.0,0.0,0.0,0.0,0.0,0.0,0.0,0.0,0.0,0.0,-3.8302,-3.8392,-3.9589,-4.0277,-4.0337,-4.1564,-4.2581,-4.329,-4.5143,-4.5215,-4.3432,-3.9793,-3.8315,-3.8743,-3.7613,-3.7739,-3.8793,-3.8844,-3.912,-3.9647,-3.9672,0.0,0.0,0.0,0.0,0.0,0.0,0.0,0.0,0.0,0.0,0.0,0.0,0.0,-4.2811,-4.2861,-4.2886,-4.2911,-4.2911,-4.2936,-4.3112,-4.3664,0.0,0.0,0.0,0.0,0.0,0.0,0.0,0.0,0.0,0.0,0.0,0.0,0.0,0.0,0.0,0.0,-5.8604,-5.9307,-5.9332,-5.9382,-5.9533,-5.9056,-5.873,-5.873,-5.8202,-5.7449,-5.6394,-5.6244,-5.5767,-5.4762,-5.4637,-5.4336,-5.3833,-5.3733,-5.3708,-5.3683,-5.3206,-5.3231,-5.3683,-5.3206,-5.3256,-5.3683,-5.3155,-5.2929,-5.2929,-5.2929,-5.2929,-5.2929,-5.2929,-5.2955,-5.298,-5.303,-5.303,-5.298,0.0,0.0,0.0,0.0,0.0,0.0,0.0,0.0,0.0,0.0,0.0,0.0,0.0,0.0,0.0,0.0,0.0,0.0,0.0,-3.8123,-3.8571,-3.902,-3.9918,-4.0606,-4.0995,-4.2312,-4.3509,-4.4556,-4.6142,-4.5565,-4.297,-4.1592,-3.9987,-3.8316,-3.7889,-3.814,-3.8919,-3.8919,-3.9195,-3.9697,-3.9697,-3.9697,0.0,0.0,0.0,0.0,0.0,0.0,0.0,0.0,-4.0651,-4.0978,0.0,0.0,-4.259,-4.2886,-4.2986,-4.2986,-4.2986,-4.2986,-4.3112,-4.3664,0.0,0.0,0.0,0.0,0.0,0.0,0.0,0.0,0.0,0.0,0.0,0.0,0.0,0.0,0.0,-5.8579,-5.8905,-5.9433,-5.8905,-5.8629,-5.8981,-5.8202,-5.7524,-5.7198,-5.6646,-5.5993,-5.5239,-5.4838,-5.4612,-5.4561,-5.3909,-5.3607,-5.3708,-5.3381,-5.3231,-5.3231,-5.303,-5.303,-5.3206,-5.3005,-5.303,-5.3206,-5.3005,-5.2929,-5.2929,-5.2929,-5.2929,-5.2929,-5.2929,-5.2929,-5.2929,-5.2929,-5.2929,-5.2929,0.0,0.0,0.0,0.0,0.0,0.0,0.0,0.0,0.0,0.0,0.0,0.0,0.0,0.0,0.0,0.0,0.0,0.0,-3.8332,-3.8601,-3.8931,-3.9409,-4.0247,-4.0905,-4.1422,-4.288,-4.4197,-4.5304,-4.6235,-4.5412,-4.2915,-4.2375,-4.1021,-3.9089,-3.854,-3.8817,-3.9751,-3.9323,-3.9346,-3.9697,-3.9697,-3.9697,0.0,0.0,0.0,0.0,0.0,0.0,0.0,0.0,0.0,0.0,0.0,0.0,0.0,0.0,-4.2986,-4.2986,-4.2986,-4.2986,-4.3162,0.0,0.0,0.0,0.0,0.0,0.0,0.0,0.0,0.0,0.0,0.0,0.0,0.0,0.0,0.0,0.0,-5.8604,-5.878,-5.8981,-5.8177,-5.7851,-5.8403,-5.7273,-5.642,-5.6219,-5.5541,-5.4888,-5.4336,-5.3909,-5.3808,-5.4034,-5.3306,-5.3105,-5.3457,-5.3105,-5.2929,-5.2929,-5.2929,-5.2929,-5.2929,-5.2929,-5.2929,-5.2929,-5.2929,-5.2929,-5.2929,-5.2929,-5.2929,-5.2929,-5.2929,-5.2929,-5.2929,-5.2929,-5.2929,-5.2929,0.0,0.0,0.0,0.0,0.0,0.0,0.0,0.0,0.0,0.0,0.0,0.0,0.0,0.0,0.0,0.0,0.0,0.0,-3.8392,-3.905,-3.9403,-3.9403,-4.0696,-4.1384,-4.1384,-4.3299,-4.4646,-4.5304,-4.5361,-4.472,-4.3428,-4.1662,-4.1086,-4.1515,-3.9726,-3.9927,-4.1492,-4.0262,-3.9697,-3.9697,-3.9697,-3.9697,-3.9697,0.0,0.0,0.0,0.0,0.0,0.0,0.0,0.0,0.0,0.0,0.0,0.0,0.0,-4.2986,-4.2986,-4.2986,-4.2986,0.0,0.0,0.0,0.0,0.0,0.0,0.0,0.0,0.0,0.0,0.0,0.0,0.0,-5.3331,-5.5114,-5.6595,-5.7725,-5.8353,-5.8504,-5.7951,-5.7374,-5.7223,-5.7826,-5.6369,-5.5591,-5.6143,-5.5164,-5.431,-5.3733,-5.3683,-5.3457,-5.2955,-5.2929,-5.2929,-5.2929,-5.2929,-5.2929,-5.2929,-5.2929,-5.2929,-5.2929,-5.2929,-5.2929,-5.2929,-5.2929,-5.2929,-5.2929,-5.2929,-5.2929,-5.2929,-5.2929,-5.2929,-5.2929,-5.2929,-5.2929,-5.2929,0.0,0.0,0.0,0.0,0.0,0.0,0.0,0.0,0.0,0.0,0.0,0.0,0.0,0.0,0.0,0.0,0.0,0.0,-3.908,-3.9738,-4.0098,-4.0098,-4.1422,-4.2111,-4.2111,-4.3539,-4.4646,-4.5304,-4.4967,-4.3958,-4.2187,-4.1239,-4.0874,-4.101,-4.0853,-4.1112,-4.1591,-4.1219,-4.0516,-3.9697,-3.9697,-3.9697,-3.9697,0.0,0.0,0.0,0.0,0.0,0.0,0.0,0.0,0.0,0.0,0.0,0.0,-4.2986,-4.2986,-4.2986,-4.2986,0.0,0.0,0.0,0.0,0.0,0.0,0.0,0.0,0.0,0.0,0.0,0.0,0.0,0.0,-5.298,-5.4561,-5.6018,-5.7123,-5.7097,-5.7047,-5.7273,-5.6118,-5.5516,-5.6068,-5.534,-5.4712,-5.4461,-5.4135,-5.3708,-5.3181,-5.3155,-5.308,-5.2929,-5.2929,-5.2929,-5.2929,-5.2929,-5.2929,-5.2929,-5.2929,-5.2929,-5.2929,-5.2929,-5.2929,-5.2929,-5.2929,-5.2929,-5.2929,-5.2929,-5.2929,-5.2929,-5.2929,-5.2929,-5.2929,-5.2929,-5.2929,-5.2929,0.0,0.0,0.0,0.0,0.0,0.0,0.0,0.0,0.0,0.0,0.0,0.0,0.0,0.0,0.0,0.0,0.0,0.0,0.0,-4.0187,-4.0516,-4.0786,-4.1841,-4.253,-4.2731,-4.3778,-4.4496,-4.4915,-4.5178,-4.4398,-4.275,-4.2675,-4.2622,-4.2602,-4.243,-4.2641,-4.3026,-4.2035,-4.1169,-4.044,-4.013,-3.9898,-3.9722,0.0,0.0,0.0,0.0,0.0,0.0,0.0,0.0,0.0,0.0,0.0,0.0,-4.2986,-4.3137,-4.3313,0.0,0.0,0.0,0.0,0.0,0.0,0.0,0.0,0.0,0.0,0.0,0.0,0.0,-5.2026,0.0,-5.3105,-5.426,-5.529,-5.5968,-5.5968,-5.5917,-5.6043,-5.4963,-5.4436,-5.5013,-5.4361,-5.3858,-5.3708,-5.3507,-5.3256,-5.2955,-5.2929,-5.2929,-5.2929,-5.2929,-5.2929,-5.2929,-5.2929,-5.2929,-5.2929,-5.2929,-5.2929,-5.2929,-5.2929,-5.2929,-5.2929,-5.2929,-5.2929,-5.2929,-5.2929,-5.2929,-5.2929,-5.2929,-5.2929,-5.2929,-5.2929,-5.2929,-5.2929,0.0,0.0,0.0,0.0,0.0,0.0,0.0,0.0,0.0,0.0,-3.6537,0.0,0.0,0.0,0.0,0.0,0.0,0.0,0.0,0.0,-4.0846,-4.1482,-4.2201,-4.2821,-4.3379,-4.4077,-4.4407,-4.4407,-4.5508,-4.5475,-4.4422,-4.4908,-4.5269,-4.5429,-4.4238,-4.4331,-4.5338,-4.2958,-4.1914,-4.1822,-4.1132,-4.0641,-4.0286,-4.0586,0.0,0.0,0.0,0.0,0.0,0.0,0.0,0.0,0.0,0.0,0.0,-4.2986,-4.3363,-4.379,0.0,0.0,0.0,0.0,0.0,0.0,0.0,0.0,0.0,0.0,0.0,0.0,0.0,-5.2528,-5.2528,-5.3532,-5.4135,-5.4511,-5.4561,-5.4938,-5.5039,-5.4536,-5.3984,-5.3833,-5.4361,-5.3507,-5.313,-5.3607,-5.3206,-5.2929,-5.2929,-5.2929,-5.2904,-5.2854,-5.2854,-5.2829,-5.2779,-5.2779,-5.2779,-5.2779,-5.2779,-5.2779,-5.2779,-5.2879,-5.2929,-5.2929,-5.2929,-5.2929,-5.2929,-5.2929,-5.2929,-5.2929,-5.2929,-5.2929,-5.2929,-5.2929,-5.2929,-5.2929,0.0,0.0,0.0,0.0,0.0,0.0,0.0,0.0,0.0,0.0,0.0,0.0,0.0,0.0,0.0,0.0,0.0,0.0,0.0,0.0,-4.2051,-4.2171,-4.3269,-4.3958,-4.4067,-4.4736,-4.5095,-4.5095,-4.4494,-4.4269,-4.4378,-4.3607,-4.4337,-4.6155,-4.5344,-4.5448,-4.6109,-4.5039,-4.4302,-4.3883,-4.3726,-4.3873,-4.4094,-4.2695,-4.2858,0.0,0.0,0.0,0.0,0.0,0.0,0.0,0.0,-4.259,-4.2986,-4.2986,-4.3363,0.0,0.0,0.0,0.0,0.0,0.0,0.0,0.0,0.0,0.0,0.0,0.0,0.0,0.0,-5.2829,-5.2955,-5.3607,-5.3808,-5.4059,-5.4511,-5.4285,-5.4009,-5.3909,-5.3406,-5.313,-5.3256,-5.3055,-5.298,-5.308,-5.298,-5.2929,-5.2929,-5.2929,-5.2729,-5.2302,-5.2277,-5.2076,-5.1649,-5.1624,-5.1624,-5.1624,-5.1624,-5.1624,-5.1674,-5.2528,-5.2929,-5.2929,-5.2929,-5.2929,-5.2929,-5.2929,-5.2929,-5.2929,-5.2929,-5.2929,-5.2929,-5.2929,-5.2929,-5.2929,0.0,0.0,0.0,0.0,0.0,0.0,0.0,0.0,0.0,0.0,0.0,0.0,0.0,0.0,0.0,0.0,0.0,0.0,0.0,0.0,-4.253,-4.2821,-4.3778,-4.4317,-4.4317,-4.4975,-4.5454,-4.5783,-4.5161,-4.5008,-4.5317,-4.5051,-4.5763,-4.7284,-4.6593,-4.6651,-4.7238,-4.5949,-4.5195,-4.4931,-4.4899,-4.4955,-4.4982,-4.4516,-4.498,-4.5605,-4.3617,0.0,0.0,0.0,0.0,0.0,0.0,0.0,-4.3797,-4.3184,-4.3564,0.0,0.0,0.0,0.0,0.0,0.0,0.0,0.0,0.0,0.0,0.0,0.0,0.0,0.0,-5.2929,-5.3005,-5.3281,-5.3331,-5.3432,-5.3733,-5.3532,-5.3331,-5.3331,-5.308,-5.2929,-5.2929,-5.2929,-5.2929,-5.2929,-5.2929,-5.2929,-5.2929,-5.2678,-5.2402,-5.2126,-5.185,-5.1574,-5.1272,-5.1272,-5.1272,-5.1272,-5.1272,-5.1272,-5.1297,-5.1875,-5.2277,-5.2528,-5.2528,-5.2678,-5.2929,-5.2929,-5.2929,-5.2929,-5.2929,-5.2929,-5.2929,-5.2929,-5.2929,-5.2929,0.0,0.0,0.0,0.0,0.0,0.0,0.0,0.0,0.0,0.0,0.0,0.0,0.0,0.0,0.0,0.0,0.0,0.0,0.0,0.0,0.0,-4.3439,-4.4137,-4.4556,-4.4646,-4.5185,-4.5813,-4.6459,-4.6339,-4.6339,0.0,-4.704,-4.7728,-4.8416,-4.7638,-4.7728,-4.8342,-4.6533,-4.585,-4.6049,-4.6025,-4.5866,-4.5745,-4.6398,-4.7141,-4.7699,-4.6202,-4.6591,-4.752,-4.5137,0.0,0.0,0.0,0.0,-4.4583,-4.3478,-4.3915,-4.4744,0.0,0.0,0.0,0.0,0.0,0.0,0.0,0.0,0.0,0.0,0.0,0.0,0.0,-5.2929,-5.2929,-5.2929,-5.2929,-5.2929,-5.2929,-5.2929,-5.2929,-5.2929,-5.2929,-5.2929,-5.2929,-5.2929,-5.2879,-5.2804,-5.2779,-5.2754,-5.2653,-5.2201,-5.1925,-5.1825,-5.1373,-5.1046,-5.0845,-5.0845,-5.0845,-5.0845,-5.0946,-5.0996,-5.0996,-5.0996,-5.1348,-5.1975,-5.2076,-5.2352,-5.2804,-5.2879,-5.2929,-5.2929,-5.2929,-5.2929,-5.2929,-5.2929,-5.2929,-5.2929,0.0,0.0,0.0,0.0,0.0,0.0,0.0,0.0,0.0,0.0,0.0,0.0,0.0,0.0,0.0,0.0,0.0,0.0,0.0,0.0,0.0,-4.4167,-4.4825,-4.5454,-4.601,-4.6142,-4.6501,-4.7189,-4.6548,0.0,0.0,0.0,0.0,-4.912,-4.7848,-4.7997,-4.9045,-4.7642,-4.7717,-4.876,-4.8757,-4.9393,-5.0112,-4.8625,-4.8785,-4.9508,-4.7095,-4.7729,-4.9287,-4.6019,-4.5843,0.0,0.0,0.0,-4.3947,-4.3746,-4.4493,0.0,0.0,0.0,0.0,0.0,0.0,0.0,0.0,0.0,0.0,0.0,0.0,0.0,-5.2929,-5.2929,-5.2929,-5.2929,-5.2929,-5.2929,-5.2929,-5.2929,-5.2929,-5.2929,-5.2929,-5.2929,-5.2929,-5.2929,-5.2729,-5.2251,-5.2226,-5.2,-5.1523,-5.1423,-5.1172,-5.067,-5.0569,-5.0067,-4.9113,-4.9113,-4.9113,-4.9113,-4.959,-4.9816,-4.9816,-4.9816,-5.0393,-5.1423,-5.19,-5.2151,-5.2251,-5.2729,-5.2929,-5.2929,-5.2929,-5.2929,-5.2929,-5.2929,-5.2929,-5.2929,0.0,0.0,0.0,0.0,0.0,0.0,0.0,0.0,0.0,0.0,0.0,0.0,0.0,0.0,0.0,0.0,0.0,0.0,0.0,0.0,0.0,-4.3708,-4.4736,-4.5424,-4.5753,-4.6501,-4.701,-4.7309,0.0,0.0,0.0,-4.7848,-4.8356,0.0,0.0,0.0,-4.9733,-4.8805,-4.8745,-4.9329,-4.9673,-5.0152,-5.0568,-5.0112,-5.0283,-5.0594,-4.9464,-4.9751,-5.0496,-4.855,-4.8827,-4.9595,-4.7433,0.0,0.0,0.0,-4.6093,0.0,0.0,0.0,0.0,0.0,0.0,0.0,0.0,0.0,0.0,0.0,0.0,0.0,-5.2929,-5.2929,-5.2929,-5.2929,-5.2929,-5.2929,-5.2929,-5.2929,-5.2929,-5.2929,-5.2929,-5.2929,-5.2929,-5.2929,-5.2703,-5.2151,-5.2101,-5.1875,-5.1322,-5.0971,-5.067,-5.0419,-4.9816,-4.9264,-4.8786,-4.846,-4.846,-4.8786,-4.9339,-4.959,-4.959,-4.959,-5.0042,-5.082,-5.1046,-5.1348,-5.1674,-5.2226,-5.2477,-5.2503,-5.2804,-5.2929,-5.2929,-5.2929,-5.2929,-5.2929,0.0,0.0,0.0,0.0,0.0,0.0,0.0,0.0,0.0,0.0,0.0,0.0,0.0,0.0,0.0,0.0,0.0,0.0,0.0,0.0,0.0,-4.3768,-4.4766,-4.5454,-4.5813,-4.6621,-4.713,0.0,0.0,0.0,-4.8297,-4.8446,-4.8895,0.0,-4.9389,-4.9643,0.0,0.0,0.0,0.0,-4.9986,-5.0285,-5.0495,-5.0973,-5.1229,-5.1229,-5.1229,-5.1319,-5.1339,-5.0493,-5.0982,-5.1611,-4.9872,-5.0016,0.0,0.0,0.0,0.0,0.0,0.0,0.0,0.0,0.0,0.0,0.0,0.0,0.0,0.0,0.0,0.0,-5.2678,-5.2829,-5.2929,-5.2929,-5.2929,-5.2879,-5.2729,-5.2829,-5.2829,-5.2553,-5.2628,-5.2653,-5.2528,-5.2503,-5.2277,-5.1724,-5.1674,-5.1373,-5.067,-5.0243,-4.9916,-4.9791,-4.8987,-4.8485,-4.836,-4.7933,-4.7933,-4.836,-4.8912,-4.9238,-4.9389,-4.9389,-4.969,-5.0218,-5.0368,-5.067,-5.1096,-5.1674,-5.19,-5.195,-5.2503,-5.2729,-5.2729,-5.2879,-5.2929,-5.2929,0.0,0.0,0.0,0.0,0.0,0.0,0.0,0.0,0.0,0.0,0.0,0.0,-4.1362,-4.1961,-4.2581,-4.32,-4.323,0.0,0.0,0.0,0.0,-4.5125,-4.5244,0.0,-4.7189,-4.6651,-4.6681,0.0,0.0,0.0,-4.8297,-4.897,-4.9553,-5.0106,-4.9553,-4.9643,-5.0136,0.0,0.0,0.0,-5.0196,-5.0554,-5.1169,-5.1199,-5.1229,-5.1229,-5.1229,-5.1618,-5.1965,-5.0639,-5.0616,-5.0989,-5.0118,-4.9908,-4.9908,0.0,0.0,0.0,0.0,0.0,0.0,0.0,0.0,0.0,0.0,0.0,0.0,0.0,0.0,0.0,-5.2051,-5.2578,-5.2929,-5.2929,-5.2929,-5.2754,-5.2226,-5.2603,-5.2528,-5.1498,-5.1825,-5.195,-5.1423,-5.1373,-5.1122,-5.0544,-5.0494,-5.0042,-4.8962,-4.8862,-4.8611,-4.8058,-4.7983,-4.7707,-4.723,-4.7179,-4.7179,-4.7168,-4.7732,-4.8284,-4.8812,-4.8812,-4.9113,-4.9665,-5.0193,-5.0444,-5.0494,-5.1096,-5.1322,-5.1373,-5.1925,-5.2151,-5.2201,-5.2729,-5.2929,-5.2929,0.0,0.0,0.0,0.0,0.0,0.0,0.0,0.0,0.0,0.0,0.0,0.0,0.0,-4.2851,-4.306,-4.326,-4.329,0.0,0.0,0.0,0.0,-4.4646,-4.5484,-4.6172,-4.6681,-4.686,0.0,0.0,0.0,-4.7429,-4.8297,-4.9,-4.9613,-5.0226,-5.087,-5.105,-5.087,-5.1079,0.0,0.0,-5.1319,-5.1648,-5.1858,-5.1858,-5.2127,-5.2426,-5.2007,-5.2276,-5.2826,-5.2753,-5.29,-5.3095,-5.3224,-5.3273,-5.2932,-5.0982,-5.005,0.0,0.0,0.0,0.0,0.0,0.0,0.0,0.0,0.0,0.0,0.0,0.0,0.0,-5.1548,-5.1724,-5.1875,-5.1875,-5.1875,-5.18,-5.1599,-5.1749,-5.1724,-5.1322,-5.1448,-5.1498,-5.1297,-5.1272,-5.1046,-5.0469,-5.0419,-4.9941,-4.8837,-4.8761,-4.851,-4.7933,-4.7581,-4.7154,-4.6602,-4.6954,-4.7068,-4.7093,-4.8033,-4.856,-4.8786,-4.9138,-4.9414,-4.9615,-4.9791,-4.9891,-4.9941,-5.0494,-5.072,-5.082,-5.1749,-5.2101,-5.2176,-5.2729,-5.2929,-5.2929,0.0,0.0,0.0,0.0,0.0,0.0,0.0,0.0,0.0,-4.0935,0.0,0.0,0.0,0.0,-4.329,-4.329,-4.329,-4.3379,-4.3618,-4.4077,-4.4526,-4.4975,-4.5801,-4.6441,-4.6651,0.0,0.0,0.0,0.0,0.0,0.0,-4.879,-4.9404,-5.0255,-5.1379,-5.1738,0.0,0.0,0.0,-5.1917,-5.2366,-5.2546,-5.2546,-5.2546,-5.2785,-5.3144,-5.2965,-5.3294,-5.3952,-5.464,-5.488,-5.494,-5.5388,-5.5359,-5.4684,-5.1957,-5.1313,0.0,0.0,0.0,0.0,0.0,0.0,0.0,0.0,0.0,0.0,0.0,0.0,0.0,-5.0921,-5.0845,-5.0845,-5.1222,-5.1272,-5.1222,-5.1021,-5.1147,-5.1147,-5.0745,-5.087,-5.0921,-5.0745,-5.072,-5.0469,-4.9916,-4.9866,-4.9389,-4.8284,-4.8209,-4.7958,-4.738,-4.7029,-4.6677,-4.6301,-4.6677,-4.6892,-4.7093,-4.7883,-4.841,-4.8786,-4.9163,-4.9414,-4.959,-4.959,-4.959,-4.9615,-4.9992,-5.0142,-5.0243,-5.1172,-5.1548,-5.1624,-5.2377,-5.2653,-5.2678,0.0,0.0,0.0,0.0,0.0,0.0,0.0,0.0,-4.0427,-4.0457,0.0,0.0,0.0,0.0,0.0,-4.3349,-4.3349,-4.3618,-4.4317,-4.4377,-4.4945,-4.6219,0.0,0.0,0.0,0.0,0.0,0.0,0.0,0.0,0.0,0.0,-4.8985,-5.0196,-5.0853,-5.1588,-5.2247,0.0,-5.3174,-5.3144,-5.3204,-5.3234,-5.3234,-5.3234,-5.3264,-5.3384,-5.4042,-5.47,-5.5359,-5.5987,-5.6248,-5.6218,-5.6188,-5.5718,-5.4777,-5.2733,-5.2578,-5.2607,0.0,0.0,0.0,0.0,0.0,0.0,0.0,0.0,0.0,0.0,0.0,0.0,-5.0167,-4.9941,-4.9967,-5.1046,-5.1222,-5.1021,-5.0444,-5.0845,-5.0795,-4.9665,-5.0017,-5.0142,-4.959,-4.954,-4.9314,-4.8786,-4.8736,-4.8259,-4.7143,-4.7043,-4.6853,-4.6326,-4.6301,-4.6301,-4.6301,-4.6326,-4.6602,-4.7068,-4.7093,-4.7732,-4.8761,-4.8786,-4.9088,-4.959,-4.959,-4.959,-4.959,-4.959,-4.959,-4.964,-5.0193,-5.0419,-5.0544,-5.1674,-5.2101,-5.2176,0.0,0.0,0.0,0.0,0.0,0.0,-4.0756,-4.0995,-4.1294,0.0,0.0,0.0,-4.3658,-4.4347,-4.4766,-4.4766,-4.4766,-4.4825,-4.5005,-4.5484,-4.5891,-4.6279,-4.677,-4.713,-4.7309,0.0,0.0,0.0,0.0,0.0,0.0,0.0,0.0,0.0,-5.072,-5.1588,-5.2247,-5.2905,0.0,-5.2546,-5.3533,-5.4192,-5.464,-5.464,-5.5209,-5.5987,-5.5718,-5.6047,-5.6585,-5.6765,-5.6526,-5.6128,-5.5598,-5.5329,-5.4866,-5.3233,-5.361,-5.4245,-5.2574,0.0,0.0,0.0,0.0,0.0,0.0,0.0,0.0,0.0,0.0,0.0,-4.9163,-4.9439,-4.969,-5.0017,-5.0067,-4.9866,-4.9314,-4.9364,-4.9188,-4.846,-4.851,-4.8535,-4.8385,-4.8385,-4.8309,-4.8159,-4.8159,-4.7857,-4.7179,-4.6753,-4.6476,-4.6326,-4.6301,-4.6301,-4.6301,-4.6702,-4.6918,-4.7093,-4.7933,-4.8485,-4.8786,-4.9188,-4.9439,-4.959,-4.959,-4.959,-4.959,-4.959,-4.959,-4.964,-5.0193,-5.0419,-5.0494,-5.1247,-5.1749,-5.2126,0.0,0.0,0.0,0.0,0.0,-4.1392,-4.1782,-4.2013,-4.2342,0.0,0.0,0.0,-4.4616,-4.5065,-4.5304,-4.5304,-4.5304,-4.5424,-4.5693,-4.6082,-4.6399,-4.6711,-4.71,-4.7309,-4.7309,0.0,0.0,0.0,0.0,0.0,0.0,0.0,0.0,0.0,0.0,0.0,0.0,0.0,-5.3114,-5.3144,-5.4491,-5.5269,-5.5628,-5.5897,-5.6436,-5.7094,-5.7004,-5.7214,-5.7573,-5.7842,-5.7513,-5.6885,-5.6196,-5.5807,-5.5445,-5.4583,-5.4746,-5.5087,-5.4524,-5.4322,-5.4188,-5.355,0.0,0.0,-5.0267,-4.9808,0.0,0.0,0.0,0.0,-4.836,-4.8661,-4.8962,-4.9213,-4.9264,-4.9213,-4.9138,-4.8912,-4.8661,-4.8309,-4.8058,-4.7908,-4.7908,-4.7908,-4.7832,-4.7606,-4.7581,-4.7355,-4.6828,-4.6476,-4.6301,-4.6301,-4.6301,-4.6301,-4.6301,-4.6627,-4.7004,-4.7456,-4.8109,-4.8661,-4.9113,-4.9439,-4.959,-4.959,-4.959,-4.959,-4.959,-4.959,-4.959,-4.9615,-4.9941,-5.0067,-5.0142,-5.072,-5.1272,-5.18,0.0,0.0,-4.0628,-4.0643,-4.1654,-4.253,-4.262,-4.312,-4.3499,0.0,-4.4137,-4.4766,-4.5334,-4.5484,-4.5514,-4.5514,-4.5514,-4.5783,-4.6381,-4.6399,-4.6681,-4.7279,-4.7309,-4.7309,-4.7309,-4.6741,0.0,0.0,0.0,0.0,0.0,0.0,0.0,0.0,0.0,0.0,0.0,0.0,-5.3533,-5.4221,-5.5598,-5.6226,-5.6346,-5.6974,-5.7244,-5.7393,-5.8022,-5.8291,-5.8411,-5.8919,-5.865,-5.7992,-5.7304,-5.6705,-5.6286,-5.6286,-5.5867,-5.5538,-5.6107,-5.6286,-5.5968,-5.459,-5.5224,0.0,-5.0402,-5.0155,-5.0376,0.0,0.0,0.0,-4.8201,-4.8328,-4.8618,-4.9126,-4.909,-4.9191,-4.9504,-4.9012,-4.8661,-4.8611,-4.8083,-4.7732,-4.7732,-4.7732,-4.7531,-4.7079,-4.6993,-4.6828,-4.6326,-4.6301,-4.6301,-4.6301,-4.6301,-4.6351,-4.6401,-4.6451,-4.7004,-4.8008,-4.8058,-4.8636,-4.959,-4.959,-4.959,-4.959,-4.959,-4.959,-4.959,-4.959,-4.959,-4.959,-4.959,-4.959,-4.9665,-5.0142,-5.072,-5.1348,0.0,0.0,-4.2187,-4.2016,-4.2611,-4.3329,-4.3838,-4.4496,-4.4915,-4.4915,-4.5514,-4.595,-4.6112,-4.6591,-4.692,-4.692,-4.692,-4.698,-4.71,-4.71,-4.716,-4.7309,-4.7309,-4.7309,-4.7309,-4.7189,-4.7189,0.0,0.0,0.0,0.0,0.0,0.0,0.0,0.0,0.0,0.0,0.0,0.0,-5.3533,-5.5418,-5.6466,-5.7004,-5.7663,-5.8261,-5.874,-5.886,-5.9249,-5.9638,-5.9249,-5.865,-5.7992,-5.7304,-5.7004,-5.6915,-5.6915,-5.6825,-5.6765,-5.6885,-5.6915,-5.6862,-5.6571,-5.637,0.0,-5.4943,-5.3603,-5.243,0.0,0.0,0.0,-5.0821,-5.1254,-5.1548,-5.1657,-5.1043,-5.0214,-4.9103,-4.8435,-4.7933,-4.7506,-4.6954,-4.6627,-4.6627,-4.6627,-4.6577,-4.6476,-4.6476,-4.6426,-4.6326,-4.6301,-4.6301,-4.6301,-4.6301,-4.6527,-4.6979,-4.738,-4.7933,-4.8611,-4.9063,-4.9389,-4.959,-4.959,-4.959,-4.959,-4.959,-4.959,-4.959,-4.959,-4.959,-4.959,-4.959,-4.959,-4.9615,-4.9715,-5.0393,-5.1297,-4.3585,-4.3403,-4.3333,-4.3586,-4.3986,-4.4526,-4.5214,-4.5603,-4.5813,-4.5813,-4.6112,-4.6441,-4.677,-4.71,-4.7309,-4.7309,-4.7309,-4.7309,-4.7309,-4.7309,-4.7309,-4.7309,-4.7309,-4.7309,-4.7309,-4.7638,-4.7638,-4.7309,0.0,0.0,0.0,0.0,0.0,0.0,0.0,0.0,0.0,0.0,-5.3174,-5.3384,-5.5718,-5.6825,-5.7214,-5.8231,-5.9009,-5.9548,-5.9219,-5.9518,-6.0027,-5.9697,-5.9368,-5.8979,-5.8321,-5.7872,-5.7603,-5.7603,-5.7363,-5.7184,-5.7513,-5.7603,-5.7603,-5.7603,-5.7363,0.0,0.0,-5.4187,-5.3148,-5.2054,-5.1459,-5.1182,-5.1182,0.0,-5.1678,-5.1925,-5.0981,-5.0292,-5.0522,-4.9025,-4.7807,-4.7556,-4.6803,-4.6301,-4.6301,-4.6301,-4.6301,-4.6301,-4.6301,-4.6301,-4.6301,-4.6301,-4.6301,-4.6301,-4.6577,-4.6853,-4.7068,-4.7657,-4.8209,-4.8761,-4.8761,-4.9038,-4.959,-4.9314,-4.9339,-4.959,-4.959,-4.959,-4.959,-4.959,-4.959,-4.959,-4.959,-4.959,-4.959,-4.959,-5.0117,-5.0845,-4.5049,-4.4551,-4.4124,-4.461,-4.5031,-4.5514,-4.619,-4.6399,-4.6501,-4.6501,-4.6501,-4.6711,-4.7249,-4.7429,-4.7549,-4.7668,-4.7578,-4.7549,-4.7668,-4.7429,-4.7309,-4.7309,-4.7309,-4.7369,-4.7489,-4.7908,-4.7967,-4.7698,0.0,0.0,0.0,0.0,0.0,0.0,0.0,0.0,0.0,0.0,0.0,-5.3773,-5.6137,-5.7094,-5.7244,-5.859,-5.9428,-5.9847,-5.9428,-5.9548,-5.9907,-6.0057,-5.9997,-5.9787,-5.9279,-5.874,-5.8321,-5.8321,-5.7932,-5.7603,-5.8171,-5.8321,-5.8321,-5.8321,-5.8231,-5.7494,0.0,0.0,0.0,-5.2117,0.0,0.0,0.0,0.0,0.0,0.0,0.0,0.0,0.0,-5.0359,0.0,-4.8631,-4.7459,-4.6695,-4.6695,-4.6695,-4.6576,-4.6301,-4.6815,-4.6909,-4.6301,-4.6601,-4.6695,-4.6695,-4.7288,-4.7582,-4.7683,-4.8277,-4.8835,-4.9393,-4.8523,-4.8775,-5.0053,-4.9203,-4.9254,-5.0014,-4.9719,-4.9783,-5.0014,-4.9719,-4.959,-4.959,-4.959,-4.959,-4.959,-4.959,-4.9941,-5.0444,-4.4464,-4.4376,-4.4603,-4.4398,-4.4877,-4.5514,-4.619,-4.68,-4.7189,-4.7189,-4.7189,-4.7219,-4.7309,-4.7818,-4.8416,-4.903,-4.8506,-4.8416,-4.906,-4.7967,-4.7309,-4.7309,-4.7309,-4.7578,-4.8147,-4.7668,-4.7967,-4.909,0.0,0.0,0.0,0.0,0.0,0.0,-5.1828,0.0,0.0,0.0,-5.4431,0.0,-5.6526,-5.7094,-5.7244,-5.859,-5.9159,-5.9279,-5.9787,-5.9638,-5.9308,-5.9877,-5.9697,-5.9189,-5.9129,-5.9069,-5.9009,-5.9009,-5.8949,-5.889,-5.8979,-5.9009,-5.9009,-5.9009,-5.856,-5.8028,-5.769,0.0,-5.6504,-5.5723,0.0,-5.5375,-5.4781,0.0,0.0,0.0,0.0,0.0,-5.362,-5.2212,-5.1167,-5.1167,-4.9423,-4.8268,-4.8268,-4.8268,-4.771,-4.6421,-4.8736,-4.9053,-4.6421,-4.7534,-4.8268,-4.8268,-4.8878,-4.9403,-4.9868,-5.0506,-5.1084,-5.1636,-4.9645,-4.9759,-5.1652,-4.9684,-4.9836,-5.1616,-5.0181,-5.0436,-5.1616,-5.0181,-4.959,-4.959,-4.959,-4.959,-4.959,-4.959,-4.9941,-5.0494,-4.7013,-4.6604,-4.6418,-4.649,-4.6296,-4.6305,-4.6796,-4.7459,-4.7728,-4.7369,-4.7638,-4.8027,-4.8386,-4.8686,-4.9105,-4.9763,-4.9583,-4.9374,-4.9329,-4.8745,-4.8446,-4.8446,-4.8446,-4.8386,-4.8297,-4.8386,-4.8327,-4.8117,-4.8626,0.0,0.0,0.0,0.0,0.0,-5.1917,0.0,-5.2276,0.0,-5.4371,0.0,-5.6436,-5.7094,-5.7244,-5.859,-5.9099,-5.9249,-6.0296,-6.0236,-5.9727,-5.9997,-5.9907,-5.9608,-5.9219,-5.9099,-5.9099,-5.9099,-5.9099,-5.9099,-5.9099,-5.9099,-5.9099,-5.9099,-5.889,-5.859,-5.8201,-5.7902,-5.7513,-5.6825,0.0,0.0,0.0,0.0,0.0,0.0,-5.4674,-5.4037,0.0,0.0,-5.2207,-5.1653,-5.0539,-4.9451,-4.8589,-4.8474,-4.786,-4.6421,-4.8242,-4.8851,-4.7652,-4.7357,-4.7781,-4.8948,-4.9646,-5.0254,-5.0775,-5.2299,-5.2995,-5.2767,-5.0664,-5.0262,-5.1338,-4.9237,-4.9629,-5.1927,-5.0308,-5.0499,-5.1865,-5.0245,-4.959,-4.959,-4.959,-4.959,-4.959,-4.959,-4.9741,-4.9967,-4.9289,-4.8297,-4.7515,-4.7659,-4.7076,-4.6742,-4.7259,-4.7698,-4.7848,-4.7369,-4.7878,-4.858,-4.9239,-4.9958,-5.069,-5.1528,-5.1588,-5.1319,-5.0661,-5.0122,-4.9643,-4.9329,-4.9299,-4.9134,-4.8835,-4.9105,-4.8985,-4.8386,-4.9164,0.0,0.0,0.0,0.0,0.0,0.0,-5.2636,-5.2576,0.0,-5.485,-5.5119,-5.6526,-5.7304,-5.7752,-5.874,-5.9099,-5.9249,-6.0206,-6.0236,-5.9817,-5.9817,-5.9817,-5.9727,-5.9249,-5.9099,-5.9099,-5.9099,-5.9099,-5.9099,-5.9099,-5.9099,-5.9099,-5.9099,-5.9099,-5.8979,-5.8501,-5.8381,-5.8201,-5.7513,-5.7363,0.0,0.0,0.0,-5.6944,-5.6496,0.0,-5.4726,-5.5406,-5.4392,0.0,-5.2703,-5.1816,-5.0713,-4.9251,-4.9317,-4.8919,-4.7626,-4.909,-4.9796,-4.9137,-4.8663,-4.9044,-5.0516,-5.1417,-5.1959,-5.2198,-5.4059,-5.4644,-5.3776,-5.1828,-5.1195,-5.1576,-4.9506,-5.0052,-5.2578,-5.0979,-5.1142,-5.2516,-5.0916,-5.0014,-4.959,-4.959,-4.959,-4.959,-4.959,-4.959,-4.9615,-5.0067,-4.8525,-4.7125,-4.6796,0.0,-4.6531,-4.7189,-4.7309,-4.7339,-4.7309,-4.7878,-4.858,-4.9239,-5.1575,-5.3593,-5.491,-5.5029,-5.476,-5.4102,-5.2247,-5.0601,-4.9359,-4.9299,-4.9553,-5.0106,-4.9583,-4.9853,-5.1079,-5.0465,0.0,0.0,0.0,0.0,0.0,0.0,-5.3773,-5.3264,-5.5319,-5.6466,-5.7004,-5.7064,-5.7872,-5.9039,-5.9099,-5.9099,-5.9099,-5.9159,-5.9159,-5.9129,-5.9129,-5.9129,-5.9129,-5.9129,-5.9099,-5.9099,-5.9099,-5.9099,-5.9099,-5.9099,-5.9099,-5.9099,-5.9099,-5.9099,-5.9099,-5.9069,-5.9069,-5.889,-5.8231,-5.8082,-5.7872,-5.7214,-5.7094,-5.7094,-5.7064,-5.6555,0.0,0.0,-5.5598,-5.5128,-5.5108,-5.3808,-5.2348,-5.0768,-5.1406,-5.1534,-5.0602,-5.27,-5.3033,-5.0713,-5.2535,-5.3665,-5.3748,-5.5039,-5.5413,-5.4699,-5.599,-5.599,-5.4754,-5.3162,-5.2724,-5.3244,-5.1082,-5.1663,-5.4208,-5.2639,-5.2822,-5.4208,-5.2578,-5.1016,-4.959,-4.959,-4.959,-4.959,-4.959,-4.959,-4.9665,0.0,-5.019,-4.9325,0.0,0.0,-4.7239,-4.7276,-4.7668,-4.8416,-4.9733,-5.084,-5.2456,-5.485,-5.6316,-5.7274,-5.7752,-5.7782,-5.7124,-5.5598,-5.4461,-5.3443,-5.2576,-5.2097,-5.1768,-5.1528,-5.09,-5.0571,-5.0524,-4.9912,0.0,0.0,0.0,0.0,0.0,0.0,-5.3832,0.0,0.0,0.0,0.0,0.0,-5.8321,-5.9099,-5.9099,-5.9099,-5.9099,-5.9099,-5.9099,-5.9099,-5.9099,-5.9398,-5.9668,-5.9249,-5.9398,-5.9668,-5.9219,-5.9099,-5.9189,-5.9638,-5.9757,-5.9757,-5.9757,-5.9757,-5.9638,-5.9189,-5.9099,-5.9039,-5.883,-5.9129,-5.9219,-5.856,-5.877,-5.877,-5.7932,-5.7214,-5.6645,0.0,-5.5598,-5.5179,-5.5179,-5.3912,-5.2804,-5.2295,-5.1217,-5.0075,-4.8803,-5.0373,-5.0989,-5.0214,-5.1626,-5.3046,-5.4435,-5.5409,-5.5927,-5.6073,-5.7104,-5.7183,-5.6297,-5.4374,-5.3191,-5.2724,-5.2041,-5.2674,-5.4327,-5.379,-5.391,-5.4268,-5.2639,-5.1016,-4.9719,-5.079,-5.0563,-4.959,-4.959,-4.959,-4.9615,-5.1555,-5.1393,-5.0775,-4.9523,0.0,-4.7912,-4.7861,-4.8892,-5.0122,-5.1409,-5.3324,-5.5658,-5.8501,-5.9847,-6.0595,-6.0835,-6.0835,-5.9817,-5.7363,-5.6825,-5.5987,-5.461,-5.4132,-5.3593,-5.2935,-5.2247,-5.1588,-5.0883,-5.0511,-5.078,0.0,0.0,0.0,0.0,0.0,-5.4251,-5.3354,0.0,-5.6855,0.0,0.0,-5.871,-5.9099,-5.9099,-5.9099,-5.9099,-5.9099,-5.9099,-5.9099,-5.9099,-5.9398,-5.9668,-5.9249,-5.9398,-5.9668,-5.9219,-5.9099,-5.9189,-5.9608,-5.9907,-6.0086,-6.0086,-6.0266,-6.0326,-5.9907,-5.9817,-5.9757,-5.9488,-5.9787,-5.9877,-5.9219,-5.9458,-5.9368,-5.8291,-5.7543,-5.6795,0.0,-5.5448,-5.5179,-5.5179,-5.4355,-5.3808,-5.3808,-5.2156,-5.0784,-5.0046,-5.0653,-5.1204,-5.1432,-5.2605,-5.401,-5.5542,-5.6322,-5.6848,-5.7202,-5.7808,-5.7663,-5.6765,-5.5371,-5.4201,-5.3247,-5.3275,-5.4005,-5.5211,-5.5211,-5.4918,-5.4327,-5.3308,-5.158,-4.9783,-5.1393,-5.1016,-4.9654,-5.0245,-5.0078,-4.959,0.0,-5.2194,-5.1499,-4.9823,-4.8914,-4.852,-4.8862,-5.0802,-5.2294,-5.2426,-5.5329,-5.8171,-6.0206,-6.2181,-6.3588,-6.4156,-6.4126,-6.275,-5.9548,-5.9249,-5.8082,-5.5538,-5.5359,-5.5029,-5.4431,-5.3653,-5.2995,-5.2396,-5.2306,0.0,0.0,0.0,0.0,0.0,-5.5319,0.0,-5.3414,-5.6047,-5.7154,-5.7244,-5.856,-5.9099,-5.9099,-5.9099,-5.9099,-5.9099,-5.9099,-5.9099,-5.9099,-5.9099,-5.9129,-5.9159,-5.9159,-5.9189,-5.9189,-5.9189,-5.9189,-5.9219,-5.9249,-5.9697,-6.0176,-6.0176,-6.0685,-6.1134,-6.1074,-6.1074,-6.0864,-6.0176,-6.0057,-5.9877,-5.9219,-5.9099,-5.889,-5.8231,-5.7513,-5.6615,-5.5359,-5.5179,-5.5179,-5.5179,-5.5179,-5.5179,-5.5179,-5.3903,-5.3345,-5.4003,-5.3435,-5.3345,-5.4003,-5.5448,-5.6466,-5.7064,-5.7752,-5.8141,-5.8171,-5.8112,-5.7453,-5.6308,-5.6248,-5.5736,-5.4838,-5.4947,-5.561,-5.6736,-5.6792,-5.5907,-5.4386,-5.4386,-5.2543,-4.9886,-5.1492,-5.1205,-5.0014,-5.1393,-5.0916,-4.959,-5.3923,-5.3764,-5.3362,-5.2866,-5.1179,-4.9981,-5.0299,-5.2096,-5.3952,-5.561,-5.9159,-6.248,-6.4934,-6.658,-6.7328,-6.6969,-6.6041,-6.4725,-6.2869,-6.1403,-6.0057,-5.889,-5.7902,-5.7304,-5.7124,-5.5508,-5.482,-5.5149,-5.3653,-5.3114,-5.3443,0.0,0.0,0.0,0.0,0.0,-5.4102,-5.6735,-5.7872,-5.7932,-5.877,-5.9099,-5.9099,-5.9099,-5.9099,-5.9099,-5.9099,-5.9099,-5.9099,-5.9099,-5.9428,-5.9817,-5.9817,-6.0176,-6.0595,-6.0595,-6.0595,-6.0715,-6.1194,-6.1463,-6.1583,-6.1583,-6.1702,-6.1583,-6.0565,-6.0356,-6.0146,-5.9488,-5.9727,-5.9877,-5.9219,-5.9099,-5.889,-5.8231,-5.7154,-5.6137,-5.5299,-5.5179,-5.5179,-5.5179,-5.5179,-5.5179,-5.5179,-5.3044,-5.1707,-5.1853,-5.1736,-5.1707,-5.1882,-5.4611,-5.6466,-5.7064,-5.7752,-5.8351,-5.886,-5.7842,-5.7453,-5.7603,-5.6645,-5.5972,-5.5499,-5.6711,-5.7042,-5.6792,-5.797,-5.6934,-5.4386,-5.4386,-5.3187,-5.1554,-5.3126,-5.3549,-5.291,-5.0979,-4.995,-4.959,-5.4634,-5.4955,-5.5462,-5.6058,-5.4853,-5.3486,-5.2685,-5.3868,-5.5596,-5.7708,-6.1194,-6.4276,-6.634,-6.8286,-6.9273,-6.8884,-6.7627,-6.6191,-6.4545,-6.3139,-6.1942,-6.1014,-5.9967,-5.9159,-5.856,-5.6615,-5.5807,-5.6218,-5.4211,-5.3623,-5.4511,0.0,0.0,0.0,0.0,-5.6017,0.0,-5.7573,-5.856,-5.859,-5.8949,-5.9099,0.0,-5.9099,-5.9099,-5.9099,-5.9099,-5.9099,-5.9159,-5.9428,-5.9787,-6.0146,-6.0446,-6.0805,-6.1104,-6.1104,-6.1104,-6.1194,-6.1553,-6.1882,-6.2091,-6.2091,-6.2301,-6.2331,-6.1553,-6.1403,-6.1134,-6.0176,-6.0266,-6.0236,-5.9279,-5.9099,-5.889,-5.8231,-5.7034,-5.6098,-5.5658,-5.5359,-5.5179,-5.5179,-5.5179,-5.5179,-5.5179,-5.3275,-5.2117,-5.2411,-5.1912,-5.1824,-5.2411,-5.4268,-5.5748,-5.6675,-5.7334,-5.7992,-5.868,-5.7932,-5.7752,-5.8112,-5.7064,-5.6644,-5.6782,-5.7708,-5.7956,-5.7804,-5.8689,-5.7693,-5.5385,-5.5385,-5.4505,-5.3066,-5.3248,-5.379,-5.4029,-5.079,-4.959,-4.959,-5.5277,-5.6224,-5.7608,-5.8744,-5.8827,-5.8032,-5.5969,-5.6534,-5.7866,-5.9783,-6.2804,-6.5233,-6.64,-6.8675,-7.0081,-6.9991,-6.8734,-6.7178,-6.5293,-6.4425,-6.3468,-6.2271,-6.1583,-6.0655,-5.9398,-5.7334,-5.6346,-5.6436,-5.4341,-5.4221,0.0,0.0,0.0,0.0,0.0,0.0,0.0,-5.8112,-5.883,-5.886,-5.8949,-5.9039,-5.9099,-5.9099,-5.9099,-5.9129,-5.9189,-5.9189,-5.9189,-5.9757,-6.0027,-6.0206,-6.0894,-6.1164,-6.1253,-6.1343,-6.1373,-6.1373,-6.1373,-6.1792,-6.2211,-6.2211,-6.266,-6.3049,-6.2959,-6.2959,-6.257,-6.1253,-6.0984,-6.0595,-5.9338,-5.9039,-5.877,-5.8112,-5.7034,-5.6308,-5.6248,-5.5688,-5.5299,-5.5209,-5.5269,0.0,-5.5209,-5.4042,-5.3563,-5.4162,-5.3054,-5.2845,-5.4012,-5.4162,-5.476,-5.6068,-5.6735,-5.7423,-5.8112,-5.8112,-5.8118,-5.8231,-5.7543,-5.7573,-5.8261,-5.8261,-5.856,-5.9099,-5.9099,-5.8221,-5.6736,-5.6736,-5.5907,-5.4564,-5.3402,-5.3549,-5.4116,-5.1518,-5.0142,-4.959,-5.7374,0.0,0.0,-5.8694,-6.0448,-6.1678,-6.0757,-6.1581,-6.2948,-6.4721,-6.7304,-6.9034,-6.9243,-7.0141,-7.053,-7.0021,-6.8734,-6.7358,-6.5922,-6.4695,-6.3677,-6.2929,-6.2271,-6.1553,-6.0775,-5.8231,-5.7214,-5.7782,-5.5269,-5.4221,0.0,0.0,0.0,0.0,0.0,0.0,-5.6944,-5.7304,-5.7453,-5.7483,-5.8052,-5.862,-5.9099,-5.9099,-5.9099,-5.9189,-5.9727,-5.9578,-5.9129,-5.9249,-5.9638,-6.0206,-6.0894,-6.1493,-6.2032,-6.257,-6.272,-6.272,-6.272,-6.281,-6.2899,-6.2899,-6.2989,-6.2929,-6.2391,-6.2271,-6.1882,-6.0535,-6.0266,-6.0027,-5.9249,-5.865,-5.8082,-5.7393,-5.7094,-5.6765,-5.6308,-5.6128,-5.5807,-5.5269,-5.5658,-5.5777,-5.5239,-5.4491,-5.4072,-5.4192,-5.3473,-5.3114,-5.3354,-5.3892,-5.4551,-5.5329,-5.6496,-5.7423,-5.8112,-5.8112,-5.8411,-5.8919,-5.8261,-5.8291,-5.8919,-5.8919,-5.9009,-5.9099,-5.9099,-5.8221,-5.6736,-5.6736,-5.6537,-5.6366,-5.744,-5.6451,-5.4505,-5.5182,-5.2978,-4.959,-5.9505,0.0,0.0,0.0,-6.3183,-6.5069,-6.7036,-6.7872,-6.7596,-6.5822,-6.8667,-7.0213,-6.8593,-7.0666,-7.1519,-7.0085,-6.9064,-6.7956,-6.661,-6.5263,-6.4246,-6.3588,-6.2959,-6.2301,-6.1642,-5.9009,-5.8112,-5.9129,-5.5837,-5.4551,-5.5239,-5.5209,0.0,0.0,0.0,-5.7483,0.0,-5.8141,-5.8141,-5.8171,-5.8501,-5.883,-5.9099,-5.9099,-5.9099,-5.9129,-5.9458,-5.9608,-5.9727,-6.0416,-6.0864,-6.1253,-6.1912,-6.2361,-6.266,-6.2989,-6.3079,-6.3079,-6.3079,-6.3079,-6.3079,-6.3079,-6.3079,-6.2989,-6.266,-6.26,-6.2331,-6.1343,-6.1134,-6.0805,-5.9787,-5.9069,-5.853,-5.8201,-5.7842,-5.7513,-5.7244,-5.6585,-5.6098,-5.5748,-5.5688,-5.5538,-5.5209,-5.4581,-5.4221,-5.4221,-5.3264,-5.2815,-5.3174,-5.3503,-5.3982,-5.467,-5.6256,-5.7244,-5.7573,-5.8291,-5.88,-5.9099,-5.877,-5.88,-5.9099,-5.9099,-5.9099,-5.9099,-5.9099,-5.8689,-5.7915,-5.7915,-5.7915,-5.7915,-5.786,-5.6905,-5.556,-5.5502,-5.4089,-5.1953,-6.1738,-6.2144,0.0,-6.4952,-6.6266,-6.8174,-7.1451,-7.2775,-7.1987,-6.8024,-7.0124,-7.1048,-6.8607,-7.0862,-7.1778,-6.9939,-6.9153,-6.8226,-6.6879,-6.5682,-6.4725,-6.4036,-6.3408,-6.278,-6.2121,-5.9608,-5.871,-5.9458,-5.6196,-5.494,-5.5538,-5.5448,0.0,0.0,0.0,-5.7812,-5.868,-5.868,-5.877,-5.889,-5.889,-5.8979,-5.9099,-5.9099,-5.9099,-5.9129,-5.9249,-5.9727,-6.0505,-6.1702,-6.2002,-6.1942,-6.2331,-6.263,-6.2869,-6.2869,-6.2959,-6.3079,-6.3079,-6.3079,-6.3079,-6.3079,-6.3079,-6.3079,-6.3079,-6.3079,-6.2899,-6.2241,-6.2002,-6.1523,-6.0296,-5.9668,-5.9308,-5.9308,-5.877,-5.8321,-5.8321,-5.7453,-5.6645,-5.6278,-5.5957,-5.5598,-5.5029,-5.464,-5.4251,-5.3832,-5.2815,-5.2426,-5.2935,-5.3114,-5.3443,-5.3982,-5.6017,-5.7094,-5.7094,-5.8441,-5.9099,-5.9099,-5.9099,-5.9099,-5.9099,-5.9099,-5.9099,-5.9099,-5.9099,-5.9099,-5.9099,-5.9099,-5.9099,-5.8991,-5.7664,-5.7018,-5.6593,-5.5734,-5.4976,-5.4268,-6.414,0.0,-6.5764,-6.732,-6.9397,-7.0699,-7.0464,-7.387,-7.6308,-7.5796,-7.4198,-7.298,-7.2675,-7.122,-6.9973,-6.9153,-6.8465,-6.7508,-6.6191,-6.5443,-6.4725,-6.4036,-6.3408,-6.278,-6.2121,-6.0086,-5.8471,-5.7363,-5.6436,-5.5119,-5.3503,-5.5269,-5.6047,-5.6047,-5.7423,-5.7752,-5.7274,-5.7274,-5.7633,-5.8201,-5.8201,-5.859,-5.9099,-5.9099,-5.9099,-5.9189,-5.9787,-6.0446,-6.1134,-6.1852,-6.1702,-6.1104,-6.0535,-6.1194,-6.2181,-6.2181,-6.26,-6.3079,-6.3079,-6.3079,-6.3079,-6.3079,-6.3079,-6.3079,-6.3079,-6.3079,-6.2899,-6.2241,-6.1613,-6.0984,-6.0236,-6.0027,-5.9997,-5.9997,-5.9428,-5.9009,-5.9009,-5.889,-5.8171,-5.6428,-5.7154,-5.6915,-5.4521,-5.479,-5.4341,-5.2516,-5.2276,-5.2217,-5.2276,-5.2845,-5.3204,-5.3264,-5.5748,-5.7094,-5.7094,-5.8441,-5.9099,-5.9099,-5.9099,-5.9099,-5.9099,-5.9099,-5.9099,-5.9099,-5.9099,-5.9099,-5.9099,-5.9099,-5.9099,-5.9099,-5.8936,-5.797,-5.6849,-5.8166,-5.6878,-5.4564,-6.644,-6.6812,-6.7624,-6.962,-7.1413,-7.2953,-7.4094,-7.6114,-7.7711,-7.8134,-7.7358,-7.6206,-7.4817,-7.4336,-7.3407,-7.187,-6.9901,-6.8142,-6.6824,-6.5255,-6.4126,-6.3468,-6.3199,-6.2959,-6.269,-6.1134,-5.9847,-5.889,-5.7842,-5.6526,-5.4999,-5.5388,-5.5598,-5.5598,-5.6137,-5.6645,-5.7124,-5.7543,-5.7872,-5.8171,-5.856,-5.886,-5.9099,-5.9099,-5.9099,-5.9129,-5.9398,-5.9937,-6.0475,-6.0356,-6.1194,-6.2241,-6.1972,-6.2241,-6.269,-6.269,-6.2869,-6.3079,-6.3079,-6.3079,-6.3079,-6.3079,-6.3079,-6.3079,-6.3079,-6.3079,-6.2989,-6.275,-6.2151,-6.1493,-6.0835,-6.0356,-5.9967,-5.9548,-5.9279,-5.9099,-5.9099,-5.877,-5.8082,-5.6855,-5.6855,-5.6376,-5.494,-5.4311,-5.3832,-5.3443,-5.2665,-5.2037,-5.1618,-5.2606,-5.3384,-5.3773,-5.5957,-5.7304,-5.7723,-5.865,-5.9099,-5.9099,-5.9099,-5.9099,-5.9099,-5.9099,-5.9099,-5.9099,-5.9099,-5.9099,-5.9099,-5.9099,-5.9099,-5.9099,-5.9099,-5.8689,-5.8221,-5.8852,-5.8276,-5.716,-6.8741,-6.9248,-7.0195,-7.2259,-7.3646,-7.51,-7.6927,-7.7468,-7.7942,-7.8686,-7.8585,-7.7712,-7.5867,-7.5732,-7.5147,-7.3355,-7.0746,-6.8798,-6.7863,-6.5574,-6.4096,-6.3677,-6.3288,-6.3079,-6.3079,-6.1972,-6.0864,-5.9787,-5.886,-5.7453,-5.5598,-5.5329,-5.5299,-5.5478,-5.5658,-5.6376,-5.7423,-5.7932,-5.8231,-5.8471,-5.8919,-5.9099,-5.9099,-5.9099,-5.9099,-5.9099,-5.9099,-5.9518,-6.0057,-5.9787,-6.0954,-6.2421,-6.2032,-6.2032,-6.2241,-6.245,-6.263,-6.2839,-6.3019,-6.3079,-6.3079,-6.3079,-6.3079,-6.3079,-6.3079,-6.3079,-6.3079,-6.3079,-6.272,-6.2181,-6.1523,-6.0864,-6.0236,-5.9787,-5.9368,-5.9189,-5.9368,-5.883,-5.8082,-5.7184,-5.6705,-5.6047,-5.4999,-5.4042,-5.3533,-5.3623,-5.2905,-5.2276,-5.1828,-5.2875,-5.3803,-5.4491,-5.6196,-5.7423,-5.8112,-5.877,-5.9099,-5.9099,-5.9099,-5.9099,-5.9099,-5.9099,-5.9099,-5.9099,-5.9099,-5.9099,-5.9099,-5.9099,-5.9099,-5.9099,-5.9099,-5.9099,-5.9099,-5.9099,-5.9099,-5.8936,-7.1109,-7.2428,-7.3883,-7.5371,-7.6318,-7.7096,-7.7874,-7.7367,-7.7164,-7.7908,-7.7367,-7.659,-7.5812,-7.4387,-7.3267,-7.2452,-7.0437,-6.9201,-6.917,-6.6545,-6.4964,-6.4994,-6.3767,-6.3079,-6.3079,-6.2421,-6.1104,-5.9129,-5.9099,-5.7423,-5.4251,-5.488,-5.5538,-5.6248,-5.6795,-5.7453,-5.8112,-5.8112,-5.8501,-5.9099,-5.9099,-5.9099,-5.9099,-5.9099,-5.9099,-5.9099,-5.9099,-5.9518,-6.0176,-6.0864,-6.1104,-6.0894,-5.9578,-5.9608,-6.0266,-6.0924,-6.1583,-6.2241,-6.2899,-6.3079,-6.3079,-6.3079,-6.3079,-6.3079,-6.3079,-6.3079,-6.3079,-6.3079,-6.3079,-6.2869,-6.2211,-6.1553,-6.1104,-6.1104,-5.9967,-5.9338,-5.9967,-5.9518,-5.859,-5.7244,-5.7094,-5.6316,-5.4401,-5.4221,-5.3653,-5.2306,-5.2815,-5.3174,-5.3144,-5.3832,-5.4491,-5.5149,-5.6436,-5.7423,-5.8112,-5.877,-5.9099,-5.9099,-5.9099,-5.9099,-5.9099,-5.9099,-5.9099,-5.9099,-5.9099,-5.9099,-5.9099,-5.9099,-5.9099,-5.9099,-5.9099,-5.9099,-5.9099,-5.9099,-5.9099,-5.9099,-7.4052,-7.4661,-7.5473,-7.6995,-7.7908,-7.8314,-7.8044,-7.7773,-7.7536,-7.7299,-7.7063,-7.6613,-7.5802,-7.5756,-7.5703,-7.5471,-7.3037,-7.1537,-7.1537,-6.8806,-6.7268,-6.7268,-6.5441,-6.4457,-6.4457,-6.3381,-6.2002,-6.0475,-6.0475,-5.9009,-5.6166,-5.6406,-5.6376,-5.6278,-5.7304,-5.8171,-5.883,-5.9279,-5.9578,-5.9727,-5.9279,-5.9099,-5.9099,-5.9099,-5.9099,-5.9099,-5.9099,-5.9249,-5.9458,-5.9668,-6.0027,-6.0326,-5.9907,-6.0565,-6.1583,-6.2271,-6.26,-6.281,-6.3019,-6.3079,-6.3079,-6.3079,-6.3079,-6.3079,-6.3079,-6.3079,-6.2959,-6.251,-6.278,-6.26,-6.1014,-6.0954,-6.0805,-5.9907,-5.9009,-5.8501,-5.871,-5.8171,-5.7423,-5.6555,-5.6466,-5.6047,-5.497,-5.4461,-5.4221,-5.4221,-5.4012,-5.3473,-5.2576,-5.4012,-5.5179,-5.5837,-5.7124,-5.8112,-5.88,-5.9009,-5.9099,-5.9099,-5.9099,-5.9099,-5.9099,-5.9099,-5.9099,-5.9099,-5.9099,-5.9099,-5.9099,-5.9099,-5.9099,-5.9099,-5.9099,-5.9099,-5.9099,-5.9099,-5.9099,-5.9099,-7.51,-7.5743,-7.6521,-7.7773,-7.8619,-7.9058,-7.8855,-7.8585,-7.8247,-7.7807,-7.7232,-7.6724,-7.6217,-7.6318,-7.6352,-7.6048,-7.3873,-7.2397,-7.2133,-6.9723,-6.8252,-6.8252,-6.6744,-6.5888,-6.5888,-6.5087,-6.3825,-6.2208,-6.0721,-5.9009,-5.7094,-5.6855,-5.6795,-5.6944,-5.7752,-5.8501,-5.9129,-5.9548,-5.9727,-5.9668,-5.9279,-5.9099,-5.9099,-5.9099,-5.9099,-5.9099,-5.9099,-5.9099,-5.9129,-5.9398,-5.9727,-6.0176,-6.0685,-6.1433,-6.2181,-6.26,-6.272,-6.275,-6.3019,-6.3079,-6.3079,-6.3079,-6.3079,-6.3079,-6.3079,-6.3079,-6.2959,-6.254,-6.26,-6.2331,-6.1074,-6.0775,-6.0446,-5.9608,-5.871,-5.8112,-5.8112,-5.7334,-5.6615,-5.6226,-5.6218,-5.6068,-5.5598,-5.5179,-5.5029,-5.5179,-5.482,-5.4221,-5.3354,-5.476,-5.5867,-5.6496,-5.7573,-5.8441,-5.9099,-5.9099,-5.9099,-5.9099,-5.9099,-5.9099,-5.9099,-5.9099,-5.9099,-5.9099,-5.9099,-5.9099,-5.9099,-5.9099,-5.9099,-5.9099,-5.9099,-5.9099,-5.9099,-5.9099,-5.9099,-5.9099,-7.483,-7.6014,-7.7232,-7.801,-7.872,-7.9397,-8.004,-7.9498,-7.9025,-7.8957,-7.7705,-7.6826,-7.6826,-7.6149,-7.5405,-7.4661,-7.3356,-7.2282,-7.154,-6.9599,-6.846,-6.846,-6.7754,-6.7317,-6.7317,-6.7215,-6.6194,-6.4111,-6.032,-5.8068,-5.7274,-5.6675,-5.7034,-5.8201,-5.8231,-5.859,-5.9189,-5.9189,-5.9189,-5.9159,-5.9129,-5.9099,-5.9099,-5.9099,-5.9099,-5.9099,-5.9099,-5.9099,-5.9189,-5.9817,-6.0057,-6.0326,-6.1613,-6.2061,-6.2121,-6.2151,-6.2181,-6.2301,-6.2899,-6.3079,-6.3079,-6.3079,-6.3079,-6.3079,-6.3079,-6.3079,-6.3079,-6.3019,-6.257,-6.2121,-6.1972,-6.0984,-6.0116,-6.0027,-5.8919,-5.8052,-5.8052,-5.6915,-5.6158,-5.6158,-5.6188,-5.6218,-5.6218,-5.6248,-5.5957,-5.5299,-5.5269,-5.5269,-5.5269,-5.5867,-5.6526,-5.7154,-5.7842,-5.8501,-5.9099,-5.9099,-5.9099,-5.9099,-5.9099,-5.9099,-5.9099,-5.9099,-5.9099,-5.9099,-5.9099,-5.9099,-5.9099,-5.9099,-5.9099,-5.9099,-5.9099,-5.9099,-5.9099,-5.9099,-5.9099,-5.9099,-7.6961,-7.7468,-7.8145,-7.9431,-7.9803,-7.9803,-7.9431,-7.872,-7.8044,-7.7502,-7.6589,-7.598,-7.598,-7.5811,-7.5405,-7.4661,-7.4276,-7.3984,-7.3816,-7.229,-7.1412,-7.1412,-6.9709,-6.8748,-6.8748,-6.7723,-6.6194,-6.4111,-6.2646,-6.1043,-5.9368,-5.871,-5.856,-5.889,-5.9398,-5.9697,-5.9847,-5.9847,-5.9847,-5.9817,-5.9308,-5.9099,-5.9099,-5.9099,-5.9099,-5.9099,-5.9099,-5.9099,-5.9129,-5.9279,-5.9668,-6.0236,-6.1074,-6.1702,-6.2181,-6.269,-6.2839,-6.2869,-6.3049,-6.3079,-6.3079,-6.3079,-6.3079,-6.3079,-6.3079,-6.3079,-6.2929,-6.2421,-6.26,-6.2361,-6.0835,-6.0745,-6.0535,-5.9488,-5.8201,-5.7334,-5.7334,-5.6226,-5.5418,-5.5418,-5.5867,-5.6218,-5.6218,-5.6585,-5.6615,-5.5987,-5.5927,-5.5927,-5.5927,-5.6526,-5.7184,-5.7872,-5.853,-5.8949,-5.9099,-5.9099,-5.9099,-5.9099,-5.9099,-5.9099,-5.9099,-5.9099,-5.9099,-5.9099,-5.9099,-5.9099,-5.9099,-5.9099,-5.9099,-5.9099,-5.9099,-5.9099,-5.9099,-5.9099,-5.9099,-5.9099,-7.6758,-7.6927,-7.7299,-7.8483,-7.8957,-7.9058,-7.8653,-7.8551,-7.8247,-7.7502,-7.6724,-7.6251,-7.6251,-7.5912,-7.5405,-7.4661,-7.4627,-7.4458,-7.4119,-7.3037,-7.2394,-7.2394,-7.0976,-7.017,-7.017,-6.9442,-6.7883,-6.5445,-6.4488,-6.2799,-6.0487,-6.0122,-5.9683,-5.9129,-5.9488,-5.9638,-5.9638,-5.9638,-5.9638,-5.9608,-5.9249,-5.9099,-5.9099,-5.9099,-5.9099,-5.9099,-5.9099,-5.9099,-5.9099,-5.9099,-5.9548,-6.0146,-6.0535,-6.1104,-6.1762,-6.245,-6.2839,-6.3079,-6.3079,-6.3079,-6.3079,-6.3079,-6.3079,-6.3079,-6.3079,-6.3079,-6.2989,-6.263,-6.26,-6.2211,-6.0805,-6.0595,-6.0206,-5.886,-5.7782,-5.7004,-5.6705,-5.5807,-5.5179,-5.5179,-5.6017,-5.6585,-5.6585,-5.7184,-5.7423,-5.7094,-5.6765,-5.6735,-5.7034,-5.7393,-5.7723,-5.8112,-5.877,-5.9099,-5.9099,-5.9099,-5.9099,-5.9099,-5.9099,-5.9099,-5.9099,-5.9099,-5.9099,-5.9099,-5.9099,-5.9099,-5.9099,-5.9099,-5.9099,-5.9099,-5.9099,-5.9099,-5.9099,-5.9099,-5.9099,-5.9099,-7.5845,-7.5879,-7.6115,-7.6927,-7.757,-7.7976,-7.7976,-7.845,-7.8551,-7.7908,-7.7164,-7.6724,-7.6724,-7.6115,-7.5405,-7.4661,-7.4627,-7.4255,-7.3375,-7.2631,-7.2225,-7.2225,-7.165,-7.1312,-7.1312,-7.121,-6.9781,-6.7089,-6.5821,-6.3821,-6.1144,-6.1051,-6.0328,-5.9099,-5.9099,-5.9099,-5.9099,-5.9099,-5.9099,-5.9099,-5.9099,-5.9099,-5.9099,-5.9099,-5.9099,-5.9099,-5.9099,-5.9099,-5.9099,-5.9099,-5.9488,-5.9967,-6.0176,-6.0655,-6.1253,-6.2032,-6.263,-6.3079,-6.3079,-6.3079,-6.3079,-6.3079,-6.3079,-6.3079,-6.3079,-6.3079,-6.3079,-6.3079,-6.263,-6.2002,-6.1253,-6.0565,-5.9697,-5.8471,-5.7543,-5.6795,-5.6428,-5.5658,-5.5239,-5.5329,-5.6376,-5.7124,-5.7244,-5.7872,-5.8231,-5.8141,-5.7573,-5.7513,-5.8082,-5.8112,-5.8171,-5.8261,-5.88,-5.9099,-5.9099,-5.9099,-5.9099,-5.9099,-5.9099,-5.9099,-5.9099,-5.9099,-5.9099,-5.9099,-5.9099,-5.9099,-5.9099,-5.9099,-5.9099,-5.9099,-5.9099,-5.9099,-5.9099,-5.9099,-5.9099,-5.9099,-7.6589,-7.6724,-7.6961,-7.7671,-7.7908,-7.7976,-7.7976,-7.757,-7.7198,-7.7096,-7.6386,-7.5879,-7.5879,-7.5777,-7.5405,-7.4661,-7.4627,-7.4018,-7.2665,-7.1887,-7.1481,-7.1481,-7.1379,-7.1312,-7.1312,-7.0703,-6.9278,-6.6996,-6.6265,-6.4449,-6.1836,-6.1268,-6.0328,-5.9099,-5.9099,-5.9099,-5.9099,-5.9099,-5.9099,-5.9099,-5.9099,-5.9099,-5.9099,-5.9099,-5.9099,-5.9099,-5.9099,-5.9099,-5.9099,-5.9099,-5.9189,-5.9458,-6.0595,-6.1014,-6.1343,-6.257,-6.2989,-6.3079,-6.3079,-6.3079,-6.3079,-6.3079,-6.3079,-6.3079,-6.3079,-6.3079,-6.3079,-6.3079,-6.2989,-6.254,-6.1343,-6.0565,-5.9847,-5.9069,-5.7483,-5.6466,-5.6885,-5.5927,-5.5388,-5.6008,-5.6645,-5.7334,-5.7902,-5.856,-5.871,-5.8171,-5.8022,-5.8022,-5.8112,-5.8112,-5.8381,-5.8949,-5.9069,-5.9099,-5.9099,-5.9099,-5.9099,-5.9099,-5.9099,-5.9099,-5.9099,-5.9099,-5.9099,-5.9099,-5.9099,-5.9099,-5.9099,-5.9099,-5.9099,-5.9099,-5.9099,-5.9099,-5.9099,-5.9099,-5.9099,-5.9099,-7.5608,-7.598,-7.6251,-7.6183,-7.6487,-7.6623,-7.6217,-7.6217,-7.598,-7.5168,-7.51,-7.4965,-7.4559,-7.4492,-7.4221,-7.3477,-7.3409,-7.2969,-7.1887,-7.1853,-7.1887,-7.1887,-7.1515,-7.1312,-7.1312,-7.0973,-6.9929,-6.8137,-6.7848,-6.5876,-6.2518,-6.2202,-6.1,-5.9099,-5.9099,-5.9099,-5.9099,-5.9099,-5.9099,-5.9099,-5.9099,-5.9099,-5.9099,-5.9099,-5.9099,-5.9099,-5.9099,-5.9099,-5.9099,-5.9099,-5.9338,-5.9727,-6.0356,-6.0805,-6.1313,-6.2271,-6.281,-6.3079,-6.3079,-6.3079,-6.3079,-6.3079,-6.3079,-6.3079,-6.3079,-6.3079,-6.3079,-6.3079,-6.3079,-6.266,-6.1373,-6.0565,-5.9757,-5.874,-5.7214,-5.6286,-5.6555,-5.5777,-5.5448,-5.6107,-5.6705,-5.7363,-5.8052,-5.871,-5.8979,-5.868,-5.865,-5.865,-5.865,-5.865,-5.88,-5.9099,-5.9099,-5.9099,-5.9099,-5.9099,-5.9099,-5.9099,-5.9099,-5.9099,-5.9099,-5.9099,-5.9099,-5.9099,-5.9099,-5.9099,-5.9099,-5.9099,-5.9099,-5.9099,-5.9099,-5.9099,-5.9099,-5.9099,-5.9099,-5.9099,-7.439,-7.4931,-7.5202,-7.4492,-7.4796,-7.4999,-7.4424,-7.483,-7.4762,-7.3646,-7.3984,-7.4119,-7.3544,-7.3477,-7.3206,-7.2462,-7.2394,-7.209,-7.1379,-7.1853,-7.2157,-7.2157,-7.1616,-7.1244,-7.1075,-7.1041,-7.0331,-6.8808,-6.8808,-6.6979,-6.3402,-6.3402,-6.2076,-5.9523,-5.9523,-5.9392,-5.9099,-5.9099,-5.9099,-5.9099,-5.9099,-5.9099,-5.9099,-5.9099,-5.9099,-5.9099,-5.9099,-5.9099,-5.9099,-5.9099,-5.9548,-6.0116,-6.0266,-6.0805,-6.1463,-6.2121,-6.269,-6.3079,-6.3079,-6.3079,-6.3079,-6.3079,-6.3079,-6.3079,-6.3079,-6.3079,-6.3079,-6.3079,-6.3079,-6.272,-6.1553,-6.0655,-5.9697,-5.853,-5.7124,-5.6278,-5.6376,-5.5837,-5.5718,-5.6526,-5.7034,-5.7603,-5.8291,-5.88,-5.9099,-5.9099,-5.9099,-5.9099,-5.9099,-5.9099,-5.9099,-5.9099,-5.9099,-5.9099,-5.9099,-5.9099,-5.9099,-5.9099,-5.9099,-5.9099,-5.9099,-5.9099,-5.9099,-5.9099,-5.9099,-5.9099,-5.9099,-5.9099,-5.9099,-5.9099,-5.9099,-5.9099,-5.9099,-5.9099,-5.9099,-5.9099,-7.3713,-7.4187,-7.4458,-7.3713,-7.3612,-7.3612,-7.3578,-7.3612,-7.3612,-7.351,-7.3544,-7.3544,-7.3477,-7.3477,-7.3206,-7.2462,-7.2394,-7.209,-7.1379,-7.1379,-7.1379,-7.1379,-7.1345,-7.0973,-7.0297,-7.0263,-6.9519,-6.7996,-6.7996,-6.6886,-6.4733,-6.4733,-6.337,-6.0866,-6.0866,-6.0202,-5.9099,-5.9099,-5.9099,-5.9099,-5.9099,-5.9099,-5.9099,-5.9099,-5.9099,-5.9099,-5.9099,-5.9099,-5.9099,-5.9099,-5.9548,-6.0206,-6.0835,-6.1493,-6.2151,-6.281,-6.3049,-6.3079,-6.3079,-6.3079,-6.3079,-6.3079,-6.3079,-6.3079,-6.3079,-6.3079,-6.3079,-6.3079,-6.3079,-6.2869,-6.2151,-6.0954,-5.9847,-5.9129,-5.7423,-5.6428,-5.6944,-5.6496,-5.6555,-5.7812,-5.8022,-5.8321,-5.8979,-5.9069,-5.9099,-5.9099,-5.9099,-5.9099,-5.9099,-5.9099,-5.9099,-5.9099,-5.9099,-5.9099,-5.9099,-5.9099,-5.9099,-5.9099,-5.9099,-5.9099,-5.9099,-5.9099,-5.9099,-5.9099,-5.9099,-5.9099,-5.9099,-5.9099,-5.9099,-5.9099,-5.9099,-5.9099,-5.9099,-5.9099,-5.9099,-5.9099,-7.2868,-7.3409,-7.368,-7.2935,-7.28,-7.28,-7.28,-7.28,-7.2665,-7.2191,-7.2529,-7.2631,-7.2191,-7.2157,-7.2022,-7.1751,-7.1718,-7.1616,-7.1345,-7.1312,-7.1312,-7.1312,-7.1312,-7.1176,-7.0906,-7.0432,-6.9688,-6.8639,-6.8132,-6.6896,-6.4869,-6.4869,-6.3512,-6.0989,-6.0989,-6.0276,-5.9099,-5.9099,-5.9099,-5.9099,-5.9099,-5.9099,-5.9099,-5.9099,-5.9099,-5.9099,-5.9099,-5.9099,-5.9099,-5.9099,-5.9817,-6.0775,-6.1044,-6.1852,-6.275,-6.3019,-6.3079,-6.3079,-6.3079,-6.3079,-6.3079,-6.3079,-6.3079,-6.3079,-6.3079,-6.3079,-6.3079,-6.3079,-6.3079,-6.2869,-6.2211,-6.0984,-5.9997,-5.9757,-5.8052,-5.6974,-5.7633,-5.7154,-5.7094,-5.8022,-5.8112,-5.8381,-5.9039,-5.9099,-5.9099,-5.9099,-5.9099,-5.9099,-5.9099,-5.9099,-5.9099,-5.9099,-5.9099,-5.9099,-5.9099,-5.9099,-5.9099,-5.9099,-5.9099,-5.9099,-5.9099,-5.9099,-5.9099,-5.9099,-5.9099,-5.9099,-5.9099,-5.9099,-5.9099,-5.9099,-5.9099,-5.9099,-5.9099,-5.9099,-5.9099,-5.9099,-7.209,-7.2665,-7.2902,-7.2191,-7.2056,-7.2056,-7.2056,-7.2056,-7.1887,-7.1379,-7.1751,-7.1853,-7.1379,-7.1312,-7.1312,-7.1312,-7.1312,-7.1312,-7.1312,-7.1312,-7.1312,-7.1312,-7.1075,-7.0973,-7.0973,-7.0229,-6.9485,-6.8707,-6.8166,-6.7103,-6.5514,-6.5514,-6.4335,-6.2211,-6.1796,-6.0918,-5.9683,-5.9231,-5.9099,-5.9099,-5.9099,-5.9099,-5.9099,-5.9099,-5.9099,-5.9099,-5.9099,-5.9099,-5.9099,-5.9099,-5.9997,-6.1104,-6.1104,-6.2032,-6.3079,-6.3079,-6.3079,-6.3079,-6.3079,-6.3079,-6.3079,-6.3079,-6.3079,-6.3079,-6.3079,-6.3079,-6.3079,-6.3079,-6.3079,-6.2929,-6.248,-6.1463,-6.0565,-6.0146,-5.877,-5.7812,-5.8082,-5.7723,-5.7663,-5.8351,-5.8441,-5.862,-5.9069,-5.9099,-5.9099,-5.9099,-5.9099,-5.9099,-5.9099,-5.9099,-5.9099,-5.9099,-5.9099,-5.9099,-5.9099,-5.9099,-5.9099,-5.9099,-5.9099,-5.9099,-5.9099,-5.9099,-5.9099,-5.9099,-5.9099,-5.9099,-5.9099,-5.9099,-5.9099,-5.9099,-5.9099,-5.9099,-5.9099,-5.9099,-5.9099,-5.9099,-7.1447,-7.1887,-7.2157,-7.1447,-7.1312,-7.1312,-7.1312,-7.1312,-7.1312,-7.1312,-7.1312,-7.1312,-7.1312,-7.1312,-7.1312,-7.1312,-7.1312,-7.1312,-7.1312,-7.1312,-7.1312,-7.1312,-7.0601,-7.0195,-7.0195,-6.9451,-6.8707,-6.7895,-6.7895,-6.7523,-6.6812,-6.6812,-6.6148,-6.4823,-6.3576,-6.2291,-6.0938,-5.9683,-5.9099,-5.9099,-5.9099,-5.9099,-5.9099,-5.9099,-5.9099,-5.9099,-5.9099,-5.9099,-5.9099,-5.9099,-5.9997,-6.1104,-6.1134,-6.2032,-6.3079,-6.3079,-6.3079,-6.3079,-6.3079,-6.3079,-6.3079,-6.3079,-6.3079,-6.3079,-6.3079,-6.3079,-6.3079,-6.3079,-6.3079,-6.3079,-6.3079,-6.254,-6.1642,-6.0326,-5.9548,-5.889,-5.8231,-5.8141,-5.8381,-5.9039,-5.9129,-5.9129,-5.9129,-5.9099,-5.9099,-5.9099,-5.9099,-5.9099,-5.9099,-5.9099,-5.9099,-5.9099,-5.9099,-5.9099,-5.9099,-5.9099,-5.9099,-5.9099,-5.9099,-5.9099,-5.9099,-5.9099,-5.9099,-5.9099,-5.9099,-5.9099,-5.9099,-5.9099,-5.9099,-5.9099,-5.9099,-5.9099,-5.9099,-5.9099,-5.9099,-5.9099,-7.1345,-7.1481,-7.1582,-7.1345,-7.1312,-7.1312,-7.1312,-7.1312,-7.1312,-7.1312,-7.1312,-7.1312,-7.1312,-7.1312,-7.1312,-7.1312,-7.1312,-7.1312,-7.1312,-7.1312,-7.1075,-7.0534,-7.0297,-6.9958,-6.9451,-6.8673,-6.8132,-6.7895,-6.7387,-6.7015,-6.6812,-6.6812,-6.6148,-6.4869,-6.4505,-6.3591,-6.2291,-6.0969,-6.0432,-6.0328,-5.9446,-5.9099,-5.9099,-5.9099,-5.9099,-5.9099,-5.9099,-5.9099,-5.9189,-5.9638,-6.0386,-6.1283,-6.2211,-6.275,-6.3079,-6.3079,-6.3079,-6.3079,-6.3079,-6.3079,-6.3079,-6.3079,-6.3079,-6.3079,-6.3079,-6.3079,-6.3079,-6.3079,-6.3079,-6.3079,-6.3079,-6.254,-6.1972,-6.1553,-6.0954,-6.0446,-6.0236,-6.0236,-6.0296,-6.0475,-6.0086,-5.9787,-5.9787,-5.9368,-5.9099,-5.9099,-5.9099,-5.9099,-5.9099,-5.9099,-5.9099,-5.9099,-5.9099,-5.9099,-5.9099,-5.9099,-5.9099,-5.9099,-5.9099,-5.9099,-5.9099,-5.9099,-5.9099,-5.9099,-5.9099,-5.9099,-5.9099,-5.9099,-5.9099,-5.9099,-5.9099,-5.9099,-5.9099,-5.9099,-5.9099,-5.9099,-7.1312,-7.1312,-7.1312,-7.1312,-7.1312,-7.1312,-7.1312,-7.1312,-7.1312,-7.1312,-7.1312,-7.1312,-7.1312,-7.1312,-7.1312,-7.1312,-7.1312,-7.1312,-7.1312,-7.1312,-7.0838,-6.9789,-6.9755,-6.9417,-6.8639,-6.7861,-6.7455,-6.7455,-6.7015,-6.6812,-6.6812,-6.6812,-6.6363,-6.5646,-6.5126,-6.446,-6.3638,-6.1796,-6.0989,-6.0918,-5.9629,-5.9099,-5.9099,-5.9099,-5.9099,-5.9099,-5.9099,-5.9279,-5.9548,-5.9937,-6.0715,-6.1672,-6.275,-6.3079,-6.3079,-6.3079,-6.3079,-6.3079,-6.3079,-6.3079,-6.3079,-6.3079,-6.3079,-6.3079,-6.3079,-6.3079,-6.3079,-6.3079,-6.3079,-6.3079,-6.3079,-6.275,-6.2391,-6.2121,-6.1762,-6.1403,-6.1164,-6.1104,-6.1104,-6.1104,-6.0745,-6.0505,-6.0505,-6.0146,-5.9787,-5.9518,-5.9488,-5.9368,-5.9129,-5.9099,-5.9099,-5.9099,-5.9099,-5.9099,-5.9099,-5.9099,-5.9099,-5.9099,-5.9099,-5.9099,-5.9099,-5.9099,-5.9099,-5.9099,-5.9099,-5.9099,-5.9099,-5.9099,-5.9099,-5.9099,-5.9099,-5.9099,-5.9099,-5.9099,-5.9099,-5.9099,-7.1312,-7.1312,-7.1312,-7.1312,-7.1312,-7.1312,-7.1312,-7.1312,-7.1312,-7.1312,-7.1312,-7.1312,-7.1312,-7.1312,-7.1312,-7.1312,-7.1312,-7.1312,-7.1312,-7.1312,-7.0635,-6.918,-6.9113,-6.8707,-6.7827,-6.7151,-6.6812,-6.6812,-6.6812,-6.6812,-6.6812,-6.6812,-6.6812,-6.677,-6.5603,-6.5081,-6.4914,-6.2407,-6.1294,-6.104,-5.9758,-5.9207,-5.9099,-5.9099,-5.9099,-5.9099,-5.9099,-5.9488,-5.9997,-6.0057,-6.0984,-6.2211,-6.281,-6.3019,-6.3079,-6.3079,-6.3079,-6.3079,-6.3079,-6.3079,-6.3079,-6.3079,-6.3079,-6.3079,-6.3079,-6.3079,-6.3079,-6.3079,-6.3079,-6.3079,-6.3079,-6.3079,-6.2869,-6.2271,-6.2181,-6.1972,-6.1373,-6.1283,-6.1283,-6.1283,-6.1253,-6.1194,-6.1194,-6.1164,-6.0835,-6.0146,-6.0086,-5.9787,-5.9129,-5.9099,-5.9099,-5.9099,-5.9099,-5.9099,-5.9099,-5.9099,-5.9099,-5.9099,-5.9099,-5.9099,-5.9099,-5.9099,-5.9099,-5.9099,-5.9099,-5.9099,-5.9099,-5.9099,-5.9099,-5.9099,-5.9099,-5.9099,-5.9099,-5.9099,-5.9099,-5.9099,-7.1312,-7.1312,-7.1312,-7.1312,-7.1312,-7.1312,-7.1312,-7.1312,-7.1312,-7.1312,-7.1312,-7.1312,-7.1312,-7.1312,-7.1312,-7.1312,-7.1312,-7.1312,-7.1312,-7.1312,-7.0635,-6.918,-6.9113,-6.847,-6.7083,-6.688,-6.6812,-6.6812,-6.6812,-6.6812,-6.6812,-6.6812,-6.6812,-6.677,-6.6525,-6.6397,-6.6278,-6.4733,-6.3497,-6.2439,-6.1122,-5.9992,-5.9099,-5.9099,-5.9099,-5.9099,-5.9099,-5.9189,-5.9398,-5.9907,-6.0984,-6.2121,-6.2271,-6.266,-6.3079,-6.3079,-6.3079,-6.3079,-6.3079,-6.3079,-6.3079,-6.3079,-6.3079,-6.3079,-6.3079,-6.3079,-6.3079,-6.3079,-6.3079,-6.3079,-6.3079,-6.3079,-6.3019,-6.2899,-6.2869,-6.281,-6.266,-6.266,-6.266,-6.266,-6.2181,-6.1882,-6.1882,-6.1433,-6.0835,-6.0146,-6.0086,-5.9787,-5.9129,-5.9099,-5.9099,-5.9099,-5.9099,-5.9099,-5.9099,-5.9099,-5.9099,-5.9099,-5.9099,-5.9099,-5.9099,-5.9099,-5.9099,-5.9099,-5.9099,-5.9099,-5.9099,-5.9099,-5.9099,-5.9099,-5.9099,-5.9099,-5.9099,-5.9099,-5.9099,-5.9099,-7.1312,-7.1312,-7.1312,-7.1312,-7.1312,-7.1312,-7.1312,-7.1312,-7.1312,-7.1312,-7.1312,-7.1312,-7.1312,-7.1312,-7.1312,-7.1312,-7.1312,-7.1312,-7.1312,-7.1312,-7.0635,-6.918,-6.9113,-6.8368,-6.6846,-6.6812,-6.6812,-6.6812,-6.6812,-6.6812,-6.6812,-6.6812,-6.6812,-6.6812,-6.6812,-6.6812,-6.6728,-6.547,-6.4505,-6.3732,-6.1765,-6.0609,-5.997,-5.9339,-5.9099,-5.9099,-5.9099,-5.9308,-5.9668,-6.0356,-6.1044,-6.1613,-6.1613,-6.1852,-6.2211,-6.251,-6.26,-6.266,-6.2989,-6.3079,-6.3079,-6.3079,-6.3079,-6.3079,-6.3079,-6.3079,-6.3079,-6.3079,-6.3079,-6.3079,-6.3079,-6.3079,-6.3079,-6.3079,-6.3079,-6.3079,-6.3079,-6.3079,-6.3079,-6.3079,-6.278,-6.257,-6.257,-6.2241,-6.1642,-6.0655,-6.0565,-6.0146,-5.9159,-5.9099,-5.9099,-5.9099,-5.9099,-5.9099,-5.9099,-5.9099,-5.9099,-5.9099,-5.9099,-5.9099,-5.9099,-5.9099,-5.9099,-5.9099,-5.9099,-5.9099,-5.9099,-5.9099,-5.9099,-5.9099,-5.9099,-5.9099,-5.9099,-5.9099,-5.9099,-5.9099,-7.1312,-7.1312,-7.1312,-7.1312,-7.1312,-7.1312,-7.1312,-7.1312,-7.1312,-7.1312,-7.1312,-7.1312,-7.1312,-7.1312,-7.1312,-7.1312,-7.1312,-7.1312,-7.1312,-7.1176,-7.0534,-6.9147,-6.8977,-6.8233,-6.6846,-6.6812,-6.6812,-6.6812,-6.6812,-6.6812,-6.6812,-6.6812,-6.6812,-6.6812,-6.6812,-6.6812,-6.6728,-6.5646,-6.5126,-6.4688,-6.2309,-6.1193,-6.0866,-5.9576,-5.9099,-5.9099,-5.9099,-5.9458,-5.9997,-6.0565,-6.0835,-6.0954,-6.0954,-6.1014,-6.1224,-6.1762,-6.2002,-6.2211,-6.275,-6.2989,-6.3079,-6.3079,-6.3079,-6.3079,-6.3079,-6.3079,-6.3079,-6.3079,-6.3079,-6.3079,-6.3079,-6.3079,-6.3079,-6.3079,-6.3079,-6.3079,-6.3079,-6.3079,-6.3079,-6.3079,-6.3079,-6.3079,-6.3079,-6.3079,-6.254,-6.1224,-6.1104,-6.0535,-5.9189,-5.9099,-5.9099,-5.9099,-5.9099,-5.9099,-5.9099,-5.9099,-5.9099,-5.9099,-5.9099,-5.9099,-5.9099,-5.9099,-5.9099,-5.9099,-5.9099,-5.9099,-5.9099,-5.9099,-5.9099,-5.9099,-5.9099,-5.9099,-5.9099,-5.9099,-5.9099,-5.9099,-7.1312,-7.1312,-7.1312,-7.1312,-7.1312,-7.1312,-7.1312,-7.1312,-7.1312,-7.1312,-7.1312,-7.1312,-7.1312,-7.1312,-7.1312,-7.1312,-7.1312,-7.1312,-7.1312,-7.0703,-6.9958,-6.9147,-6.8436,-6.7658,-6.6846,-6.6812,-6.6812,-6.6812,-6.6812,-6.6812,-6.6812,-6.6812,-6.6812,-6.6812,-6.6812,-6.6812,-6.677,-6.661,-6.5898,-6.4778,-6.3307,-6.2045,-6.0866,-5.9576,-5.9099,-5.9099,-5.9099,-5.9159,-5.9249,-5.9338,-5.9757,-6.0236,-6.0236,-6.0625,-6.1134,-6.1224,-6.1642,-6.2121,-6.2211,-6.266,-6.3079,-6.3079,-6.3079,-6.3079,-6.3079,-6.3079,-6.3079,-6.3079,-6.3079,-6.3079,-6.3079,-6.3079,-6.3079,-6.3079,-6.3079,-6.3079,-6.3079,-6.3079,-6.3079,-6.3079,-6.3079,-6.3079,-6.3079,-6.3079,-6.254,-6.1224,-6.1104,-6.0535,-5.9189,-5.9099,-5.9099,-5.9099,-5.9099,-5.9099,-5.9099,-5.9099,-5.9099,-5.9099,-5.9099,-5.9099,-5.9099,-5.9099,-5.9099,-5.9099,-5.9099,-5.9099,-5.9099,-5.9099,-5.9099,-5.9099,-5.9099,-5.9099,-5.9099,-5.9099,-5.9099,-5.9099,-7.1312,-7.1312,-7.1312,-7.1312,-7.1312,-7.1312,-7.1312,-7.1312,-7.1312,-7.1312,-7.1312,-7.1142,-7.0737,-7.0331,-7.006,-7.006,-7.006,-7.006,-7.006,-6.9755,-6.9248,-6.847,-6.8098,-6.7557,-6.6846,-6.6812,-6.6812,-6.6812,-6.6812,-6.6812,-6.6812,-6.6812,-6.6812,-6.6812,-6.6812,-6.6812,-6.6812,-6.6812,-6.6482,-6.5855,-6.4551,-6.3732,-6.294,-6.0918,-6.015,-6.0045,-5.9339,-5.9099,-5.9099,-5.9099,-5.9308,-5.9548,-5.9548,-5.9757,-6.0057,-6.0446,-6.1014,-6.1613,-6.2002,-6.257,-6.3079,-6.3079,-6.3079,-6.3079,-6.3079,-6.3079,-6.3079,-6.3079,-6.3079,-6.3079,-6.3079,-6.3079,-6.3079,-6.3079,-6.3079,-6.3079,-6.3079,-6.3079,-6.3079,-6.3079,-6.3079,-6.3079,-6.3079,-6.275,-6.2121,-6.1194,-6.0745,-6.0116,-5.9159,-5.9099,-5.9099,-5.9099,-5.9099,-5.9099,-5.9099,-5.9099,-5.9099,-5.9099,-5.9099,-5.9099,-5.9099,-5.9099,-5.9099,-5.9099,-5.9099,-5.9099,-5.9099,-5.9099,-5.9099,-5.9099,-5.9099,-5.9099,-5.9099,-5.9099,-5.9099,-5.9099]},{"header":{"parameterUnit":"m.s-1","parameterCategory":1,"la1":30.6,"la2":28.766,"lo1":-90.7593,"lo2":-88.6598,"dy":0.0162,"dx":0.0183,"nx":116,"ny":114,"refTime":"2023-06-12T06:00:00:Z","depth":0,"parameterNumber":3,"parameterNumberName":"V-component_of_WINDS"},"data":[0.0,0.0,0.0,0.0,0.0,0.0,0.0,0.0,0.0,0.0,0.0,0.0,0.0,0.0,0.0,0.0,0.0,0.0,0.0,0.0,0.0,0.0,0.0,0.0,0.0,0.0,0.0,0.0,0.0,0.0,0.0,0.0,0.0,0.0,0.0,0.0,0.0,0.0,0.0,0.0,0.0,0.0,0.0,0.0,0.0,0.0,0.0,0.0,0.0,0.0,0.0,0.0,0.0,0.0,0.0,0.0,0.0,0.0,0.0,0.0,0.0,0.0,0.0,0.0,0.0,0.0,0.0,0.0,0.0,0.0,0.0,0.0,0.0,0.0,0.0,0.0,0.0,0.0,0.0,0.0,0.0,0.0,0.0,0.0,0.0,0.0,0.0,0.0,0.0,0.0,0.0,0.0,0.0,0.0,0.0,0.0,0.0,0.0,0.0,0.0,0.0,0.0,0.0,0.0,0.0,0.0,0.0,0.0,0.0,0.0,0.0,0.0,0.0,0.0,0.0,0.0,0.0,0.0,0.0,0.0,0.0,0.0,0.0,0.0,0.0,0.0,0.0,0.0,0.0,0.0,0.0,0.0,0.0,0.0,0.0,0.0,0.0,0.0,0.0,0.0,0.0,0.0,0.0,0.0,0.0,0.0,0.0,0.0,0.0,0.0,0.0,0.0,0.0,0.0,0.0,0.0,0.0,0.0,0.0,0.0,0.0,0.0,0.0,0.0,0.0,0.0,0.0,0.0,0.0,0.0,0.0,0.0,0.0,0.0,0.0,0.0,0.0,0.0,0.0,0.0,0.0,0.0,0.0,0.0,0.0,0.0,0.0,0.0,0.0,0.0,0.0,0.0,0.0,0.0,0.0,0.0,0.0,0.0,0.0,0.0,0.0,0.0,0.0,0.0,0.0,0.0,0.0,0.0,0.0,0.0,0.0,0.0,0.0,0.0,0.0,0.0,0.0,0.0,0.0,0.0,0.0,0.0,0.0,0.0,0.0,0.0,0.0,0.0,0.0,0.0,0.0,0.0,0.0,0.0,0.0,0.0,0.0,0.0,0.0,0.0,0.0,0.0,0.0,0.0,0.0,0.0,0.0,0.0,0.0,0.0,0.0,0.0,0.0,0.0,0.0,0.0,0.0,0.0,0.0,0.0,0.0,0.0,0.0,0.0,0.0,0.0,0.0,0.0,0.0,0.0,0.0,0.0,0.0,0.0,0.0,0.0,0.0,0.0,0.0,0.0,0.0,0.0,0.0,0.0,0.0,0.0,0.0,0.0,0.0,0.0,0.0,0.0,0.0,0.0,0.0,0.0,0.0,0.0,0.0,0.0,0.0,0.0,0.0,0.0,0.0,0.0,0.0,0.0,0.0,0.0,0.0,0.0,0.0,0.0,0.0,0.0,0.0,0.0,0.0,0.0,0.0,0.0,0.0,0.0,0.0,0.0,0.0,0.0,0.0,0.0,0.0,0.0,0.0,0.0,0.0,0.0,0.0,0.0,0.0,0.0,0.0,0.0,0.0,0.0,0.0,0.0,0.0,0.0,0.0,0.0,0.0,0.0,0.0,0.0,0.0,0.0,0.0,0.0,0.0,0.0,0.0,0.0,0.0,0.0,0.0,0.0,0.0,0.0,0.0,0.0,0.0,0.0,0.0,0.0,0.0,0.0,0.0,0.0,0.0,0.0,0.0,0.0,0.0,0.0,0.0,0.0,0.0,0.0,0.0,0.0,0.0,0.0,0.0,0.0,0.0,0.0,0.0,0.0,0.0,0.0,0.0,0.0,0.0,0.0,0.0,0.0,0.0,0.0,0.0,0.0,0.0,0.0,0.0,0.0,0.0,0.0,0.0,0.0,0.0,0.0,0.0,0.0,0.0,0.0,0.0,0.0,0.0,0.0,0.0,0.0,0.0,0.0,0.0,0.0,0.0,0.0,0.0,0.0,0.0,0.0,0.0,0.0,0.0,0.0,0.0,0.0,0.0,0.0,0.0,0.0,0.0,0.0,0.0,0.0,0.0,0.0,0.0,0.0,0.0,0.0,0.0,0.0,0.0,0.0,0.0,0.0,0.0,0.0,0.0,0.0,0.0,0.0,0.0,0.0,0.0,0.0,0.0,0.0,0.0,0.0,0.0,0.0,0.0,0.0,0.0,0.0,0.0,0.0,0.0,0.0,0.0,0.0,0.0,0.0,0.0,0.0,0.0,0.0,0.0,0.0,0.0,0.0,0.0,0.0,0.0,0.0,0.0,0.0,0.0,0.0,0.0,0.0,0.0,0.0,0.0,0.0,0.0,0.0,0.0,0.0,0.0,0.0,0.0,0.0,0.0,0.0,0.0,0.0,0.0,0.0,0.0,0.0,0.0,0.0,0.0,0.0,0.0,0.0,0.0,0.0,0.0,0.0,0.0,0.0,0.0,0.0,0.0,0.0,0.0,0.0,0.0,0.0,0.0,0.0,0.0,0.0,0.0,0.0,0.0,0.0,0.0,0.0,0.0,0.0,0.0,0.0,0.0,0.0,0.0,0.0,0.0,0.0,0.0,0.0,0.0,0.0,0.0,0.0,0.0,0.0,0.0,0.0,0.0,0.0,0.0,0.0,0.0,0.0,0.0,0.0,0.0,0.0,0.0,0.0,0.0,0.0,0.0,0.0,0.0,0.0,0.0,0.0,0.0,0.0,0.0,0.0,0.0,0.0,0.0,0.0,0.0,0.0,0.0,0.0,0.0,0.0,0.0,0.0,0.0,0.0,0.0,0.0,0.0,0.0,0.0,0.0,0.0,0.0,0.0,0.0,0.0,0.0,0.0,0.0,0.0,0.0,0.0,0.0,0.0,0.0,0.0,0.0,0.0,0.0,0.0,0.0,0.0,0.0,0.0,0.0,0.0,0.0,0.0,0.0,0.0,0.0,0.0,0.0,0.0,0.0,0.0,0.0,0.0,0.0,0.0,0.0,0.0,0.0,0.0,0.0,0.0,0.0,0.0,0.0,0.0,0.0,0.0,0.0,0.0,0.0,0.0,0.0,0.0,0.0,0.0,0.0,0.0,0.0,0.0,0.0,0.0,0.0,0.0,0.0,0.0,0.0,0.0,0.0,0.0,0.0,0.0,0.0,0.0,0.0,0.0,0.0,0.0,0.0,0.0,0.0,0.0,0.0,0.0,0.0,0.0,0.0,0.0,0.0,0.0,0.0,0.0,0.0,0.0,0.0,0.0,0.0,0.0,0.0,0.0,0.0,0.0,0.0,0.0,0.0,0.0,0.0,0.0,0.0,0.0,0.0,0.0,0.0,0.0,0.0,0.0,0.0,0.0,0.0,0.0,0.0,0.0,0.0,0.0,0.0,0.0,0.0,0.0,0.0,0.0,0.0,0.0,0.0,0.0,0.0,0.0,0.0,0.0,0.0,0.0,0.0,0.0,0.0,0.0,0.0,0.0,0.0,0.0,0.0,0.0,0.0,0.0,0.0,0.0,0.0,0.0,0.0,0.0,0.0,0.0,0.0,0.0,0.0,0.0,0.0,0.0,0.0,0.0,0.0,0.0,0.0,0.0,0.0,0.0,0.0,0.0,0.0,0.0,0.0,0.0,0.0,0.0,0.0,0.0,0.0,0.0,0.0,0.0,0.0,0.0,0.0,0.0,0.0,0.0,0.0,0.0,0.0,0.0,0.0,0.0,0.0,0.0,0.0,0.0,0.0,0.0,0.0,0.0,0.0,0.0,0.0,0.0,0.0,0.0,0.0,0.0,0.0,0.0,0.0,0.0,0.0,0.0,0.0,0.0,0.0,0.0,0.0,0.0,0.0,0.0,0.0,0.0,0.0,0.0,0.0,0.0,0.0,0.0,0.0,0.0,0.0,0.0,0.0,0.0,0.0,0.0,0.0,0.0,0.0,0.0,0.0,0.0,0.0,0.0,0.0,0.0,0.0,0.0,0.0,0.0,0.0,0.0,0.0,0.0,0.0,0.0,0.0,0.0,0.0,0.0,0.0,0.0,0.0,0.0,0.0,0.0,0.0,0.0,0.0,0.0,0.0,0.0,0.0,0.0,0.0,0.0,0.0,0.0,0.0,0.0,0.0,0.0,0.0,0.0,0.0,0.0,0.0,0.0,0.0,0.0,0.0,0.0,0.0,0.0,0.0,0.0,0.0,0.0,0.0,0.0,0.0,0.0,0.0,0.0,0.0,0.0,0.0,0.0,0.0,0.0,0.0,0.0,0.0,0.0,0.0,0.0,0.0,0.0,0.0,0.0,0.0,0.0,0.0,0.0,0.0,0.0,0.0,0.0,0.0,0.0,0.0,0.0,0.0,0.0,0.0,0.0,0.0,0.0,0.0,0.0,0.0,0.0,0.0,0.0,0.0,0.0,0.0,0.0,0.0,0.0,0.0,0.0,0.0,0.0,0.0,0.0,0.0,0.0,0.0,0.0,0.0,0.0,0.0,0.0,0.0,0.0,0.0,0.0,0.0,0.0,0.0,0.0,0.0,0.0,0.0,0.0,0.0,0.0,0.0,0.0,0.0,0.0,0.0,0.0,0.0,0.0,0.0,0.0,0.0,0.0,0.0,0.0,0.0,0.0,0.0,0.0,0.0,0.0,0.0,0.0,0.0,0.0,0.0,0.0,0.0,0.0,0.0,0.0,0.0,0.0,0.0,0.0,0.0,0.0,0.0,0.0,0.0,0.0,0.0,0.0,0.0,0.0,0.0,0.0,0.0,0.0,0.0,0.0,0.0,0.0,0.0,0.0,0.0,0.0,0.0,0.0,0.0,0.0,0.0,0.0,0.0,0.0,0.0,0.0,0.0,0.0,0.0,0.0,0.0,0.0,0.0,0.0,0.0,0.0,0.0,0.0,0.0,0.0,0.0,0.0,0.0,0.0,0.0,0.0,0.0,0.0,0.0,0.0,0.0,0.0,0.0,0.0,0.0,0.0,0.0,0.0,0.0,0.0,0.0,0.0,0.0,0.0,0.0,0.0,0.0,0.0,0.0,0.0,0.0,0.0,0.0,0.0,0.0,0.0,0.0,0.0,0.0,0.0,0.0,0.0,0.0,0.0,0.0,0.0,0.0,0.0,0.0,0.0,0.0,0.0,0.0,0.0,0.0,0.0,0.0,0.0,0.0,0.0,0.0,0.0,0.0,0.0,0.0,0.0,0.0,0.0,0.0,0.0,0.0,0.0,0.0,0.0,0.0,0.0,0.0,0.0,0.0,0.0,0.0,0.0,0.0,0.0,0.0,0.0,0.0,0.0,0.0,0.0,0.0,0.0,0.0,0.0,0.0,0.0,0.0,0.0,0.0,0.0,0.0,0.0,0.0,0.0,0.0,0.0,0.0,0.0,0.0,0.0,0.0,0.0,0.0,0.0,0.0,0.0,0.0,0.0,0.0,0.0,0.0,0.0,0.0,0.0,0.0,0.0,0.0,0.0,0.0,0.0,0.0,0.0,0.0,0.0,0.0,0.0,0.0,0.0,0.0,0.0,0.0,0.0,0.0,0.0,0.0,0.0,0.0,0.0,0.0,0.0,0.0,0.0,0.0,0.0,0.0,0.0,0.0,0.0,0.0,0.0,0.0,0.0,0.0,0.0,0.0,0.0,0.0,0.0,0.0,0.0,0.0,0.0,0.0,0.0,0.0,0.0,0.0,0.0,0.0,0.0,0.0,0.0,0.0,0.0,0.0,0.0,0.0,0.0,0.0,0.0,0.0,0.0,0.0,0.0,0.0,0.0,0.0,0.0,0.0,0.0,0.0,0.0,0.0,0.0,0.0,0.0,0.0,0.0,0.0,0.0,0.0,0.0,0.0,0.0,0.0,0.0,0.0,0.0,0.0,0.0,0.0,0.0,0.0,0.0,0.0,0.0,0.0,0.0,0.0,0.0,0.0,0.0,0.0,0.0,0.0,0.0,0.0,0.0,0.0,0.0,0.0,0.0,0.0,0.0,0.0,0.0,0.0,0.0,0.0,0.0,0.0,0.0,0.0,0.0,0.0,0.0,0.0,0.0,0.0,0.0,0.0,0.0,0.0,0.0,0.0,0.0,0.0,0.0,0.0,0.0,0.0,0.0,0.0,0.0,0.0,0.0,0.0,0.0,0.0,0.0,0.0,0.0,0.0,-5.1589,-5.1555,0.0,0.0,0.0,0.0,0.0,0.0,0.0,0.0,0.0,0.0,0.0,0.0,0.0,0.0,0.0,0.0,0.0,0.0,0.0,0.0,0.0,0.0,0.0,0.0,0.0,0.0,0.0,0.0,0.0,0.0,0.0,0.0,0.0,0.0,0.0,0.0,0.0,0.0,0.0,0.0,0.0,0.0,0.0,0.0,0.0,0.0,0.0,0.0,0.0,0.0,0.0,0.0,0.0,0.0,0.0,0.0,0.0,0.0,0.0,0.0,0.0,0.0,0.0,0.0,0.0,0.0,0.0,0.0,0.0,0.0,0.0,0.0,0.0,0.0,0.0,0.0,0.0,0.0,0.0,0.0,0.0,0.0,0.0,0.0,0.0,0.0,0.0,0.0,0.0,0.0,0.0,0.0,0.0,0.0,0.0,0.0,0.0,0.0,0.0,0.0,0.0,0.0,0.0,0.0,0.0,0.0,0.0,0.0,0.0,0.0,0.0,0.0,0.0,0.0,-5.3484,-5.3247,0.0,0.0,0.0,0.0,0.0,0.0,0.0,0.0,0.0,0.0,0.0,0.0,0.0,0.0,0.0,0.0,0.0,0.0,0.0,0.0,0.0,0.0,0.0,0.0,0.0,0.0,0.0,0.0,0.0,0.0,0.0,0.0,0.0,0.0,0.0,0.0,0.0,0.0,0.0,0.0,0.0,0.0,0.0,0.0,0.0,0.0,0.0,0.0,0.0,0.0,0.0,0.0,0.0,0.0,0.0,0.0,0.0,0.0,0.0,0.0,0.0,0.0,0.0,0.0,0.0,0.0,0.0,0.0,0.0,0.0,0.0,0.0,0.0,0.0,0.0,0.0,0.0,0.0,0.0,0.0,0.0,0.0,0.0,0.0,0.0,0.0,0.0,0.0,0.0,0.0,0.0,0.0,0.0,0.0,0.0,0.0,0.0,0.0,0.0,0.0,0.0,0.0,0.0,0.0,0.0,0.0,0.0,0.0,-5.5243,-5.5683,-5.6292,-5.6427,-5.69,-5.7509,-5.6292,-5.5886,-5.6089,-5.5818,0.0,0.0,0.0,0.0,0.0,0.0,0.0,0.0,0.0,0.0,0.0,0.0,0.0,0.0,0.0,0.0,0.0,0.0,0.0,0.0,0.0,0.0,0.0,0.0,0.0,0.0,0.0,0.0,0.0,0.0,0.0,0.0,0.0,0.0,0.0,0.0,0.0,0.0,0.0,0.0,0.0,0.0,0.0,0.0,0.0,0.0,0.0,0.0,0.0,0.0,0.0,0.0,0.0,0.0,0.0,0.0,0.0,0.0,0.0,0.0,0.0,0.0,0.0,0.0,0.0,0.0,0.0,0.0,0.0,0.0,0.0,0.0,0.0,0.0,0.0,0.0,0.0,0.0,0.0,0.0,0.0,0.0,0.0,0.0,0.0,0.0,-4.9466,-4.9763,0.0,0.0,0.0,0.0,0.0,0.0,0.0,0.0,0.0,0.0,0.0,0.0,0.0,-5.4228,-5.4431,-5.5615,-5.6325,-5.6528,-5.7814,-5.849,-5.8592,-5.9235,-5.9945,-6.0689,-6.052,0.0,-5.7509,-5.6258,0.0,0.0,0.0,0.0,0.0,0.0,0.0,0.0,0.0,0.0,0.0,0.0,0.0,0.0,0.0,0.0,0.0,0.0,0.0,0.0,0.0,0.0,0.0,0.0,0.0,0.0,0.0,0.0,0.0,0.0,0.0,0.0,0.0,0.0,0.0,0.0,0.0,0.0,0.0,0.0,0.0,0.0,0.0,0.0,0.0,0.0,0.0,0.0,0.0,0.0,0.0,0.0,0.0,0.0,0.0,0.0,0.0,0.0,0.0,0.0,0.0,0.0,0.0,0.0,0.0,0.0,0.0,0.0,0.0,0.0,0.0,0.0,0.0,0.0,0.0,0.0,0.0,0.0,0.0,0.0,0.0,0.0,0.0,0.0,0.0,-4.87,-5.0101,-5.0101,-5.0744,-5.1082,0.0,0.0,0.0,0.0,0.0,0.0,0.0,0.0,0.0,-5.5953,-5.6697,-5.7509,-5.8355,-5.8998,-5.9742,-6.0588,-6.1231,-6.1772,-6.2178,-6.2482,-6.3057,-6.3734,-6.3328,-6.2821,-6.211,-5.981,-5.8795,-5.866,0.0,0.0,0.0,0.0,-5.9404,-5.981,0.0,0.0,0.0,0.0,0.0,0.0,0.0,0.0,0.0,0.0,0.0,0.0,0.0,0.0,0.0,0.0,0.0,0.0,0.0,0.0,0.0,0.0,0.0,0.0,0.0,0.0,0.0,0.0,0.0,0.0,0.0,0.0,0.0,0.0,0.0,0.0,0.0,0.0,0.0,0.0,0.0,0.0,0.0,0.0,0.0,0.0,0.0,0.0,0.0,0.0,0.0,0.0,0.0,0.0,0.0,0.0,0.0,0.0,0.0,0.0,0.0,0.0,0.0,0.0,0.0,0.0,0.0,0.0,0.0,0.0,0.0,0.0,0.0,0.0,0.0,0.0,0.0,-4.956,-5.0439,-5.0642,-5.1352,-5.1725,0.0,0.0,0.0,0.0,0.0,0.0,-5.5344,-5.6156,-5.7239,-5.8727,-5.9505,-6.052,-6.1873,-6.2245,-6.299,-6.4072,-6.4444,-6.4918,-6.5459,-6.5662,-6.6034,-6.6542,-6.6,-6.5933,-6.6034,-6.3091,-6.1501,-6.096,-6.0757,-6.0791,-6.096,-6.096,-6.1467,-6.2144,0.0,0.0,0.0,0.0,0.0,0.0,0.0,0.0,0.0,0.0,0.0,0.0,0.0,0.0,0.0,0.0,0.0,0.0,0.0,0.0,0.0,0.0,0.0,0.0,0.0,0.0,0.0,0.0,0.0,0.0,0.0,0.0,0.0,0.0,0.0,0.0,0.0,0.0,0.0,-4.607,0.0,0.0,0.0,0.0,0.0,0.0,0.0,0.0,0.0,0.0,0.0,0.0,0.0,0.0,0.0,0.0,0.0,0.0,0.0,0.0,0.0,0.0,0.0,0.0,0.0,0.0,0.0,0.0,0.0,0.0,0.0,0.0,0.0,0.0,0.0,0.0,0.0,0.0,0.0,-5.2097,-5.2909,0.0,0.0,0.0,0.0,-5.345,-5.4735,-5.619,-5.7645,-5.8423,-5.9539,-6.1095,-6.1839,-6.2584,-6.3396,-6.4783,-6.5493,-6.5595,-6.7015,-6.7692,-6.776,-6.8538,-6.8876,-6.8944,-6.8876,-6.847,-6.7557,-6.4613,-6.3396,-6.326,-6.255,-6.2719,-6.3362,-6.3362,-6.3802,-6.4444,0.0,0.0,0.0,0.0,0.0,0.0,0.0,0.0,0.0,0.0,0.0,0.0,0.0,0.0,0.0,0.0,0.0,0.0,0.0,0.0,0.0,0.0,0.0,0.0,0.0,0.0,0.0,0.0,0.0,0.0,0.0,0.0,0.0,0.0,0.0,0.0,0.0,0.0,0.0,0.0,0.0,-4.5304,0.0,0.0,0.0,0.0,0.0,0.0,0.0,0.0,0.0,0.0,0.0,0.0,0.0,0.0,0.0,0.0,0.0,0.0,0.0,0.0,0.0,0.0,0.0,0.0,0.0,0.0,0.0,0.0,0.0,0.0,0.0,0.0,0.0,0.0,0.0,0.0,0.0,-5.4397,-5.5175,0.0,-5.6562,-5.6021,-5.6021,-5.6968,-5.7983,-5.9201,-6.0689,-6.1941,-6.3294,-6.4816,-6.5561,-6.6542,-6.7793,-6.8335,-6.8808,-6.9316,-6.9857,-7.0094,-7.0094,-7.0398,-7.0534,-7.0534,-7.0534,-7.0094,-6.9282,-6.8233,-6.6677,-6.4884,-6.4613,-6.4377,-6.4208,-6.4208,-6.4681,-6.529,0.0,0.0,0.0,0.0,0.0,0.0,0.0,0.0,0.0,0.0,0.0,0.0,0.0,0.0,0.0,0.0,0.0,0.0,0.0,0.0,0.0,0.0,0.0,0.0,0.0,0.0,0.0,0.0,0.0,0.0,0.0,0.0,0.0,0.0,0.0,0.0,0.0,0.0,0.0,0.0,0.0,0.0,-4.5603,0.0,0.0,0.0,0.0,0.0,0.0,0.0,0.0,0.0,0.0,0.0,0.0,0.0,0.0,0.0,0.0,0.0,0.0,0.0,0.0,0.0,0.0,0.0,0.0,0.0,0.0,0.0,0.0,0.0,0.0,0.0,0.0,0.0,0.0,0.0,-5.5784,-5.7036,-5.8084,-5.9066,-6.0047,-5.9268,-5.9201,-6.0452,-6.1197,-6.2279,-6.3802,-6.5053,-6.6406,-6.7895,-6.8402,-6.9282,-7.0567,-7.0567,-7.0804,-7.1312,-7.1312,-7.1312,-7.1312,-7.1312,-7.1312,-7.1312,-7.1312,-7.1041,-7.0567,-7.0567,-6.9248,-6.7151,-6.6643,-6.6305,-6.6102,-6.5797,-6.6203,-6.6812,0.0,0.0,0.0,0.0,0.0,0.0,0.0,0.0,0.0,0.0,0.0,0.0,0.0,0.0,0.0,0.0,0.0,0.0,0.0,0.0,0.0,0.0,0.0,0.0,0.0,0.0,0.0,0.0,0.0,0.0,0.0,0.0,0.0,0.0,0.0,0.0,0.0,0.0,0.0,0.0,0.0,0.0,-4.8177,0.0,0.0,0.0,0.0,0.0,0.0,0.0,0.0,0.0,0.0,0.0,0.0,0.0,0.0,0.0,0.0,0.0,0.0,0.0,0.0,0.0,0.0,0.0,0.0,0.0,0.0,0.0,0.0,0.0,0.0,0.0,0.0,0.0,-5.4769,-5.6021,-5.7814,-6.0013,-6.1603,-6.2516,-6.255,-6.2516,-6.2821,-6.3599,-6.4343,-6.5392,-6.6846,-6.7624,-6.8707,-7.0195,-7.0263,-7.0601,-7.1345,-7.1345,-7.1345,-7.1345,-7.1312,-7.1345,-7.1379,-7.1345,-7.1312,-7.1345,-7.1312,-7.1312,-7.1312,-7.1312,-7.0872,-7.006,-6.8571,-6.8436,-6.9011,-6.8233,-6.8436,-6.8977,0.0,0.0,0.0,0.0,0.0,0.0,0.0,0.0,0.0,0.0,0.0,0.0,0.0,0.0,0.0,0.0,0.0,0.0,0.0,0.0,0.0,0.0,0.0,0.0,0.0,0.0,0.0,0.0,0.0,0.0,0.0,0.0,0.0,0.0,0.0,0.0,0.0,0.0,0.0,0.0,0.0,0.0,-4.891,0.0,0.0,0.0,0.0,0.0,0.0,0.0,0.0,0.0,0.0,0.0,0.0,0.0,0.0,0.0,0.0,0.0,0.0,0.0,0.0,0.0,0.0,0.0,0.0,0.0,0.0,0.0,0.0,0.0,0.0,0.0,0.0,-5.6427,-5.6224,-5.937,-6.2279,-6.3937,-6.4512,-6.5189,-6.6271,-6.5425,-6.5324,-6.6609,-6.7421,-6.8267,-6.9214,-6.9958,-7.0804,-7.1751,-7.1785,-7.1887,-7.209,-7.209,-7.209,-7.209,-7.1582,-7.1853,-7.2868,-7.1785,-7.1616,-7.209,-7.1548,-7.1312,-7.1312,-7.1312,-7.1176,-7.0906,-6.9925,-6.9383,-6.9079,-6.8842,-6.891,-6.9079,0.0,0.0,0.0,0.0,0.0,0.0,0.0,0.0,0.0,0.0,0.0,0.0,0.0,0.0,0.0,0.0,0.0,0.0,0.0,0.0,0.0,0.0,0.0,0.0,0.0,0.0,0.0,0.0,0.0,0.0,0.0,0.0,0.0,0.0,0.0,0.0,0.0,0.0,0.0,0.0,0.0,0.0,-5.2025,-5.0391,-4.9105,-4.8117,-4.7549,-4.683,-4.6142,-4.6142,0.0,0.0,0.0,0.0,0.0,0.0,0.0,0.0,0.0,0.0,0.0,0.0,0.0,0.0,0.0,0.0,0.0,0.0,0.0,0.0,0.0,0.0,0.0,0.0,-5.8558,-6.0283,-6.0892,-6.326,-6.5459,-6.6948,-6.7658,-6.8368,-6.9248,-6.8842,-6.8842,-6.9722,-7.0229,-7.0804,-7.1515,-7.1684,-7.209,-7.2834,-7.2868,-7.2868,-7.2868,-7.2563,-7.2563,-7.2834,-7.2124,-7.236,-7.3443,-7.2293,-7.1988,-7.236,-7.1616,-7.1312,-7.1312,-7.1312,-7.1312,-7.1278,0.0,0.0,0.0,0.0,-6.9823,-6.9553,0.0,0.0,0.0,0.0,0.0,0.0,0.0,0.0,0.0,0.0,0.0,0.0,0.0,0.0,0.0,0.0,0.0,0.0,0.0,0.0,0.0,0.0,0.0,0.0,0.0,0.0,0.0,0.0,0.0,0.0,0.0,0.0,0.0,0.0,0.0,0.0,0.0,0.0,0.0,0.0,0.0,0.0,-5.6196,-5.4251,-5.3025,-5.2157,-5.099,-4.9269,-4.7638,-4.7638,0.0,0.0,0.0,0.0,0.0,0.0,0.0,0.0,0.0,0.0,0.0,0.0,0.0,0.0,0.0,0.0,0.0,0.0,0.0,0.0,0.0,0.0,0.0,0.0,-6.2245,-6.5561,-6.7218,-6.7523,-6.803,-6.9316,-7.0703,-7.1548,-7.1548,-7.2157,-7.2529,-7.2529,-7.2529,-7.28,-7.3443,0.0,0.0,0.0,0.0,-7.3612,-7.3612,-7.2969,-7.2969,-7.3612,-7.2868,-7.2935,-7.3713,-7.2902,-7.2529,-7.2496,-7.1751,-7.1379,-7.1312,-7.1312,-7.1312,-7.1312,-7.1312,-7.1312,-7.1312,-7.1312,-7.0906,-7.0297,0.0,0.0,0.0,0.0,0.0,0.0,0.0,0.0,0.0,0.0,0.0,0.0,0.0,0.0,0.0,0.0,0.0,0.0,0.0,0.0,0.0,0.0,0.0,0.0,0.0,0.0,0.0,0.0,0.0,0.0,0.0,0.0,0.0,0.0,0.0,0.0,0.0,0.0,0.0,0.0,0.0,0.0,-5.7603,-5.6137,-5.4521,-5.2965,-5.2695,-5.1349,-4.9628,-4.9628,-4.8805,-4.7698,-4.7698,0.0,0.0,0.0,0.0,0.0,0.0,0.0,0.0,0.0,0.0,0.0,0.0,0.0,0.0,0.0,0.0,0.0,0.0,0.0,0.0,-6.3463,-6.5899,-6.8199,-7.0939,-7.1819,-7.209,-7.1785,-7.2529,-7.3071,-7.3071,-7.3206,-7.3274,-7.3274,-7.3274,-7.3341,-7.3477,-7.3341,-7.3612,-7.4356,-7.439,-7.439,-7.439,-7.4255,-7.4255,-7.439,-7.3646,0.0,-7.5236,-7.3883,-7.3274,-7.324,-7.2496,-7.1853,-7.1312,-7.1312,-7.1312,-7.1312,-7.1312,-7.1312,-7.1312,-7.1312,-7.121,-7.1109,0.0,0.0,0.0,0.0,0.0,0.0,0.0,0.0,0.0,0.0,0.0,0.0,0.0,0.0,0.0,0.0,0.0,0.0,0.0,0.0,0.0,0.0,0.0,0.0,0.0,0.0,0.0,0.0,0.0,0.0,0.0,0.0,0.0,0.0,0.0,0.0,0.0,0.0,0.0,0.0,0.0,0.0,-6.0894,-5.9249,-5.7393,-5.5598,-5.5269,-5.3443,-5.1229,-5.1229,-5.0361,-4.9194,-4.8895,-4.8566,-4.8658,0.0,0.0,0.0,0.0,0.0,0.0,0.0,0.0,0.0,0.0,0.0,0.0,0.0,0.0,-5.6934,0.0,0.0,-6.4005,-6.7387,-6.9823,-7.1921,-7.3781,-7.4728,-7.4627,-7.3105,-7.3274,-7.3477,-7.3477,-7.4153,-7.4593,-7.4593,-7.4593,-7.4931,-7.5709,-7.4661,-7.4559,-7.5709,-7.5743,-7.5743,-7.5743,-7.5743,-7.5946,-7.6284,-7.5134,-7.5202,-7.6251,-7.4728,-7.3849,-7.3443,-7.2699,-7.1988,-7.1312,-7.1312,-7.1312,-7.1312,-7.1312,-7.1312,-7.1312,-7.1312,-7.1312,-7.1312,0.0,0.0,0.0,0.0,0.0,0.0,0.0,0.0,0.0,0.0,0.0,0.0,0.0,0.0,0.0,0.0,0.0,0.0,0.0,0.0,0.0,0.0,0.0,0.0,0.0,0.0,0.0,0.0,0.0,0.0,0.0,0.0,0.0,0.0,0.0,0.0,0.0,0.0,0.0,0.0,0.0,0.0,-6.3647,-6.2091,-6.0326,-5.859,-5.7633,-5.5269,-5.2546,-5.2127,-5.1229,-5.0106,-4.9613,-4.9464,-4.9732,-5.1186,-5.1126,0.0,0.0,0.0,0.0,0.0,0.0,0.0,0.0,0.0,-5.6122,-5.778,-5.9066,-6.0655,-6.3226,-6.6237,-6.8977,-7.0939,-7.3409,-7.5303,-7.6048,-7.6589,-7.6217,-7.4356,-7.4153,-7.4153,-7.4153,-7.5236,-7.5946,-7.5946,-7.5946,-7.642,-7.7468,-7.5811,-7.5473,-7.686,-7.6893,-7.6961,-7.7096,-7.7096,-7.7401,-7.7976,-7.6589,-7.6284,-7.686,-7.5473,-7.4322,-7.3443,-7.2563,-7.1853,-7.1312,-7.1312,-7.1312,-7.1312,-7.1312,-7.1312,-7.1312,-7.1312,-7.1312,-7.1312,0.0,0.0,0.0,0.0,0.0,0.0,0.0,0.0,0.0,0.0,0.0,0.0,0.0,0.0,0.0,0.0,0.0,0.0,0.0,0.0,0.0,0.0,0.0,0.0,0.0,0.0,0.0,0.0,0.0,0.0,0.0,0.0,0.0,0.0,0.0,0.0,0.0,0.0,0.0,0.0,0.0,0.0,-6.3169,-6.2929,-6.2002,-6.0535,-5.868,-5.6286,-5.3713,-5.1917,-5.084,-5.0196,-5.0106,-5.0076,-5.0351,-5.1767,0.0,-5.1623,-5.3105,-5.345,-5.3382,-5.3382,-5.4431,-5.5818,0.0,0.0,-6.0114,-6.2313,-6.2888,-6.4106,-6.7692,-6.9214,-7.1075,-7.4525,-7.5946,-7.6893,-7.7638,-7.7266,-7.6792,-7.6555,-7.6521,-7.6521,-7.6521,-7.6657,-7.6758,-7.6758,-7.6758,-7.6521,-7.598,-7.5709,-7.598,-7.686,-7.6893,-7.7198,-7.7874,-7.7874,-7.7908,-7.7976,-7.7164,-7.6826,-7.686,-7.598,-7.4796,-7.3409,-7.2022,-7.1379,-7.1312,-7.1312,-7.1312,-7.1312,-7.1312,-7.1312,-7.1312,-7.1312,-7.1312,-7.1312,0.0,0.0,0.0,0.0,0.0,0.0,0.0,0.0,0.0,0.0,0.0,0.0,0.0,0.0,0.0,0.0,0.0,0.0,0.0,0.0,0.0,0.0,0.0,0.0,0.0,0.0,0.0,0.0,0.0,0.0,0.0,0.0,0.0,0.0,0.0,0.0,0.0,0.0,0.0,0.0,0.0,0.0,-6.3438,-6.1912,-6.0505,-5.9219,-5.7962,-5.5598,0.0,0.0,-4.9912,-4.9613,-4.9224,-4.9374,-4.9809,-5.0621,-5.0357,0.0,-5.2092,-5.3344,0.0,0.0,-5.6867,-5.8254,-6.0622,-6.1975,-6.3362,-6.5595,-6.7117,-6.891,-7.1785,-7.3646,-7.5371,0.0,-7.8314,-7.8923,-7.9228,-7.828,-7.7198,-7.6318,-7.5811,-7.5912,-7.6826,-7.7299,-7.7536,-7.7536,-7.7942,-7.8044,-7.7705,-7.7266,-7.7401,-7.8179,-7.8179,-7.8348,-7.8653,-7.9058,-7.9058,-7.8653,-7.8348,-7.7739,-7.6893,-7.6555,-7.5337,-7.3409,-7.1954,-7.1312,-7.1312,-7.1312,-7.1312,-7.1312,-7.1312,-7.1312,-7.1312,-7.1312,-7.1312,-7.1143,0.0,0.0,0.0,0.0,0.0,0.0,0.0,0.0,0.0,0.0,0.0,0.0,0.0,0.0,0.0,0.0,0.0,0.0,0.0,0.0,0.0,0.0,0.0,0.0,0.0,0.0,0.0,0.0,0.0,0.0,0.0,0.0,0.0,0.0,0.0,0.0,0.0,0.0,0.0,0.0,0.0,0.0,-6.266,-6.0206,-5.8231,-5.6675,-5.5987,-5.3862,0.0,0.0,-4.8566,-4.8686,-4.8386,-4.8626,-4.9163,-4.9854,-4.9862,-5.0104,-5.2277,0.0,0.0,-5.8524,-6.0013,-6.1637,-6.4681,-6.6068,-6.7387,-6.9586,-7.121,-7.2766,-7.4593,-7.6251,-7.7671,-7.8653,-7.9431,-7.9837,-7.96,-7.8314,-7.6724,-7.4999,-7.395,-7.3984,-7.5506,-7.669,-7.7435,-7.7671,-7.8382,-7.8822,-7.8822,-7.828,-7.8348,-7.9092,-7.9126,-7.9194,-7.9397,-7.9938,-7.9938,-7.9397,-7.8991,-7.8247,-7.7164,-7.6352,-7.4931,-7.3105,-7.1853,-7.1312,-7.1312,-7.1312,-7.1312,-7.1267,-7.0882,-7.0961,-7.1222,-7.0436,-7.0654,-7.1098,0.0,0.0,0.0,0.0,0.0,0.0,0.0,0.0,0.0,0.0,0.0,0.0,0.0,0.0,0.0,0.0,0.0,0.0,0.0,0.0,0.0,0.0,0.0,0.0,0.0,0.0,0.0,0.0,0.0,0.0,0.0,0.0,0.0,0.0,0.0,0.0,0.0,0.0,0.0,0.0,0.0,0.0,-5.9997,-5.7962,-5.5568,-5.3234,-5.2576,0.0,0.0,0.0,-4.683,-4.7489,-4.8087,-4.8297,0.0,-5.0285,-5.1256,0.0,0.0,0.0,-5.8524,-6.1501,-6.3869,-6.6271,-6.9282,-7.1109,-7.28,-7.4999,-7.4965,-7.4762,-7.5506,-7.5709,-7.6251,-7.7773,-7.8653,-7.8889,-7.8145,-7.6724,-7.4965,-7.2766,-7.121,-7.0906,0.0,-7.4492,-7.6082,-7.686,-7.7604,-7.801,-7.801,-7.801,-7.8348,-7.9092,-7.9126,-7.9464,-8.0175,-8.0175,-8.0175,-8.0141,-7.872,-7.801,-7.7841,-7.4931,-7.3172,-7.2394,-7.165,-7.1312,-7.1312,-7.1312,-7.1312,-7.1143,-6.9808,-7.009,-7.0961,-6.8306,-6.9024,-7.1098,0.0,0.0,0.0,0.0,0.0,0.0,0.0,0.0,0.0,0.0,0.0,0.0,0.0,0.0,0.0,0.0,0.0,0.0,0.0,0.0,0.0,0.0,0.0,0.0,0.0,0.0,0.0,0.0,0.0,0.0,0.0,0.0,0.0,0.0,0.0,0.0,0.0,0.0,0.0,0.0,0.0,0.0,-5.8979,-5.479,-5.2097,-5.0377,0.0,0.0,0.0,0.0,0.0,0.0,-4.5574,0.0,0.0,-4.754,-4.9994,-5.2793,0.0,0.0,-6.2347,-6.529,-6.776,-7.0195,-7.3172,-7.4221,-7.4796,-7.554,-7.395,-7.236,-7.209,-7.2462,-7.3105,-7.4119,-7.6589,-7.8111,-7.7367,-7.6352,-7.4695,-7.1988,-7.0804,0.0,0.0,0.0,0.0,-7.598,-7.7266,-7.7976,-7.7976,-7.8923,-7.9566,-7.9837,-7.9837,-7.9938,-8.0209,-8.0209,-7.9701,-7.872,-7.7198,-7.6454,-7.642,-7.439,-7.3105,-7.2315,-7.061,-7.0436,-7.1222,-7.0309,-6.9902,-6.9855,-6.9361,-6.8976,-6.8454,-6.7521,-6.7806,-6.8355,0.0,0.0,0.0,0.0,0.0,0.0,0.0,0.0,0.0,0.0,0.0,0.0,0.0,0.0,0.0,0.0,0.0,0.0,0.0,0.0,0.0,0.0,0.0,0.0,0.0,0.0,0.0,0.0,0.0,0.0,0.0,0.0,0.0,0.0,0.0,0.0,0.0,0.0,0.0,0.0,0.0,0.0,-5.5807,-5.1468,-4.8985,0.0,0.0,0.0,0.0,0.0,0.0,0.0,0.0,-4.5274,-4.6142,-4.683,-4.9724,-5.3385,0.0,-6.0424,-6.4785,-6.8283,-7.0582,-7.2572,-7.453,-7.534,-7.5405,-7.4356,-7.2191,-6.9938,-6.8001,-6.8118,-6.8813,-6.9715,-7.2447,-7.4492,-7.4864,-7.4221,-7.2935,-7.077,-6.9823,-6.9282,0.0,0.0,0.0,-7.4728,-7.6318,-7.7401,-7.7942,-7.916,-7.9938,-8.0175,-8.0209,-8.0209,-8.0209,-7.9938,-7.9058,-7.7604,-7.6353,-7.5301,-7.4497,-7.329,-7.2033,-7.087,-6.9691,-6.9442,-6.976,-6.8879,-6.8503,-6.8454,-6.7924,-6.7521,-6.7061,-6.6101,-6.6048,-6.6312,0.0,0.0,0.0,0.0,0.0,0.0,0.0,0.0,0.0,0.0,0.0,0.0,0.0,0.0,0.0,0.0,0.0,0.0,0.0,0.0,0.0,0.0,0.0,0.0,0.0,0.0,0.0,0.0,0.0,0.0,0.0,0.0,0.0,0.0,0.0,0.0,0.0,0.0,0.0,0.0,0.0,0.0,-5.078,-4.8147,0.0,0.0,0.0,0.0,0.0,0.0,0.0,0.0,0.0,0.0,-4.7459,-4.8207,-5.0664,-5.4335,-5.9905,-6.3148,-6.6044,-7.0252,-7.2342,-7.3361,-7.3398,-7.4372,-7.4438,-7.1536,-6.9613,-6.7305,0.0,0.0,-6.3672,-6.4928,-6.6819,-6.891,-7.1109,-7.0838,-7.0128,0.0,0.0,0.0,0.0,0.0,0.0,-7.3341,0.0,-7.6352,-7.7908,-7.8754,-7.9464,-8.0107,-8.0175,-8.0175,-8.0141,-7.9431,-7.8299,-7.683,-7.6051,-7.4488,-7.2262,-7.1571,-7.0178,-6.8284,-6.8878,-6.8403,-6.7292,-6.724,-6.7189,-6.7086,-6.5714,-6.5951,-6.6774,-6.4101,-6.3932,-6.5009,0.0,0.0,0.0,0.0,0.0,0.0,0.0,0.0,0.0,0.0,0.0,0.0,0.0,0.0,0.0,0.0,0.0,0.0,0.0,0.0,0.0,0.0,0.0,0.0,0.0,0.0,0.0,0.0,0.0,0.0,0.0,0.0,0.0,0.0,0.0,0.0,0.0,0.0,0.0,0.0,0.0,0.0,-4.8745,0.0,0.0,0.0,0.0,0.0,0.0,0.0,0.0,0.0,0.0,0.0,-4.7728,-4.9853,-5.38,-5.8235,-6.1683,-6.5985,-6.9755,-7.092,-7.1972,-7.2466,-7.154,-7.0447,-6.9009,-6.6707,-6.2905,-5.9359,0.0,0.0,0.0,-6.2435,-6.7523,0.0,-7.2766,-7.324,0.0,0.0,0.0,-7.0737,-7.1481,-7.1548,0.0,0.0,-7.5168,-7.6352,-7.7908,-7.9228,-7.9769,-7.9397,-7.9904,-7.9938,-7.9397,-7.8653,-7.7564,-7.6048,-7.4794,-7.3018,-7.0812,-7.0619,-6.9957,-6.8829,-6.803,-6.7989,-6.8574,-6.7534,-6.7097,-6.7065,-6.6182,-6.5724,-6.5414,-6.4208,-6.397,-6.4287,0.0,0.0,0.0,0.0,0.0,0.0,0.0,0.0,0.0,0.0,0.0,0.0,0.0,0.0,0.0,0.0,0.0,0.0,0.0,0.0,0.0,0.0,0.0,0.0,0.0,0.0,0.0,0.0,0.0,0.0,0.0,0.0,0.0,0.0,0.0,0.0,0.0,0.0,0.0,0.0,0.0,0.0,0.0,0.0,0.0,0.0,0.0,0.0,0.0,0.0,0.0,-4.6681,-4.7698,-4.9105,-5.09,-5.3832,0.0,-6.1133,-6.4476,-6.7926,-7.0672,-7.0708,-7.115,-7.0789,-6.7904,-6.6671,-6.5108,-6.1455,-5.8192,0.0,0.0,0.0,0.0,0.0,0.0,0.0,-7.165,-7.2394,-7.2732,0.0,-7.28,0.0,-7.3341,-7.3646,-7.4356,0.0,-7.5676,-7.6352,-7.7908,-7.8754,-7.9329,-7.96,-7.9667,-7.9363,-7.8619,-7.79,-7.6604,-7.4804,-7.3015,-7.1319,-6.9825,-6.9509,-6.8774,-6.7728,-6.728,-6.7212,-6.7237,-6.6506,-6.6192,-6.6162,-6.5796,-6.5397,-6.4934,-6.4605,-6.4455,-6.4455,0.0,0.0,0.0,0.0,0.0,0.0,0.0,0.0,0.0,0.0,0.0,0.0,0.0,0.0,0.0,0.0,0.0,0.0,0.0,0.0,0.0,0.0,0.0,0.0,0.0,0.0,0.0,0.0,0.0,0.0,0.0,0.0,0.0,0.0,0.0,0.0,0.0,0.0,0.0,0.0,0.0,0.0,0.0,0.0,0.0,0.0,0.0,0.0,0.0,0.0,-4.8775,-4.9613,-5.078,-5.2797,-5.5508,-5.889,-6.1313,-6.3667,-6.7454,-6.9306,-7.0224,-7.0002,-6.9651,-6.8201,-6.3626,-6.2676,-6.1376,-5.6208,0.0,-5.3038,-5.0102,0.0,-5.4528,-5.6734,0.0,-6.451,-6.9501,-7.031,-7.1165,-7.3375,-7.4148,-7.4607,-7.485,-7.5574,-7.6222,-7.6852,-7.623,-7.6448,-7.7763,-7.7932,-7.8472,-7.9564,-7.8875,-7.8236,-7.7665,-7.6835,-7.539,-7.326,-7.1143,-6.9701,-6.8911,-6.8266,-6.7263,-6.6162,-6.6827,-6.6409,-6.5293,-6.5293,-6.5293,-6.5293,-6.5203,-6.5203,-6.5263,-6.5203,-6.5173,-6.5173,0.0,0.0,0.0,0.0,0.0,0.0,0.0,0.0,0.0,0.0,-2.7921,-2.8247,0.0,0.0,0.0,0.0,0.0,0.0,0.0,0.0,0.0,0.0,0.0,0.0,0.0,0.0,0.0,0.0,0.0,0.0,0.0,0.0,0.0,0.0,0.0,0.0,0.0,0.0,0.0,0.0,0.0,0.0,0.0,0.0,0.0,0.0,0.0,0.0,0.0,0.0,-4.9075,-5.075,-5.467,-5.6974,-5.9009,-6.2869,-6.5413,-6.736,-6.9201,-7.0637,-7.1044,-6.893,-6.6703,-6.4144,-6.059,-5.7384,0.0,0.0,0.0,-4.9061,-4.7955,-5.0271,0.0,-5.6666,0.0,0.0,0.0,0.0,-7.1912,0.0,0.0,0.0,0.0,0.0,0.0,0.0,0.0,-7.6716,-7.6981,-7.7596,-7.7456,-7.6435,-7.5676,-7.5514,-7.6023,-7.4734,-7.3299,-7.1666,-7.0143,-6.8713,-6.7366,-6.7245,-6.7033,-6.6819,-6.6974,-6.6883,-6.664,-6.664,-6.664,-6.661,-6.6041,-6.6161,-6.658,-6.6041,-6.5832,-6.5832,0.0,0.0,0.0,0.0,0.0,0.0,0.0,-2.4927,-2.6202,-2.7562,-2.8197,-2.8524,-2.8524,-2.9277,0.0,0.0,0.0,0.0,0.0,0.0,0.0,0.0,0.0,0.0,0.0,0.0,0.0,0.0,0.0,0.0,0.0,0.0,0.0,0.0,0.0,0.0,0.0,0.0,0.0,0.0,0.0,0.0,0.0,0.0,0.0,0.0,0.0,0.0,0.0,0.0,-4.9613,-5.2007,-5.6286,-5.9249,-6.1882,-6.5503,-6.7717,-6.9273,-7.062,-7.1697,-7.1697,-6.8704,-6.5742,-6.248,-5.8501,0.0,0.0,0.0,0.0,-4.7788,-4.7818,0.0,0.0,0.0,0.0,0.0,0.0,0.0,0.0,0.0,0.0,0.0,0.0,0.0,0.0,0.0,0.0,-7.6173,-7.6173,-7.6498,-7.6161,-7.5067,-7.5067,-7.5067,-7.5067,-7.3591,-7.214,-7.0689,-6.927,-6.8062,-6.6999,-6.6999,-6.6999,-6.6999,-6.6999,-6.6999,-6.6999,-6.6999,-6.6999,-6.6969,-6.664,-6.67,-6.6939,-6.664,-6.652,-6.652,0.0,0.0,0.0,0.0,0.0,0.0,0.0,-2.5233,-2.6504,-2.805,-2.8525,-2.8811,-2.9063,-2.9528,-2.9804,0.0,0.0,0.0,0.0,0.0,0.0,0.0,0.0,0.0,0.0,0.0,0.0,-3.1386,0.0,0.0,0.0,0.0,0.0,0.0,0.0,0.0,0.0,0.0,0.0,0.0,0.0,0.0,0.0,0.0,0.0,0.0,0.0,0.0,0.0,0.0,-5.0062,-5.2606,-5.6166,-5.9847,-6.3438,-6.646,-6.8675,-7.035,-7.1398,-7.2265,-7.2086,-6.8615,-6.5203,-6.1493,-5.6974,-5.3294,0.0,0.0,-4.7429,-4.7668,-4.8177,0.0,0.0,0.0,0.0,0.0,0.0,0.0,0.0,0.0,0.0,0.0,0.0,0.0,0.0,0.0,0.0,-7.4762,-7.5056,-7.4762,-7.4364,-7.3769,-7.4301,-7.4332,-7.3737,-7.2452,-7.1259,-7.0153,-6.8816,-6.7837,-6.7208,-6.7208,-6.7119,-6.6999,-6.6999,-6.6999,-6.6999,-6.6999,-6.6999,-6.6999,-6.6999,-6.6999,-6.6999,-6.6999,-6.6999,-6.6999,0.0,0.0,0.0,0.0,0.0,0.0,0.0,-2.5521,-2.7007,-2.8625,-2.8431,-2.8576,-2.9588,-2.9754,-2.9804,0.0,0.0,0.0,0.0,0.0,0.0,0.0,0.0,0.0,0.0,0.0,0.0,-3.1386,-3.207,0.0,0.0,0.0,0.0,0.0,0.0,-4.0307,0.0,0.0,0.0,0.0,0.0,0.0,0.0,0.0,0.0,0.0,0.0,0.0,0.0,0.0,0.0,-5.1678,-5.3892,-5.8082,-6.26,-6.4695,0.0,0.0,-7.0949,-7.1936,-7.1966,-6.8046,-6.4156,-6.0236,-5.6196,0.0,0.0,0.0,-4.7788,-4.8207,-4.8267,-4.9434,0.0,0.0,0.0,0.0,0.0,0.0,0.0,0.0,0.0,0.0,0.0,0.0,0.0,0.0,-7.2111,-7.1982,-7.3445,-7.2141,-7.1281,-7.1221,-7.1281,-7.1281,-7.1221,-7.0551,-7.0157,-7.0037,-6.9247,-6.8555,-6.7897,-6.7897,-6.7567,-6.6999,-6.6999,-6.6999,-6.6999,-6.6999,-6.6999,-6.6999,-6.6999,-6.6999,-6.6999,-6.6999,-6.6999,-6.6999,0.0,0.0,0.0,0.0,0.0,0.0,-2.4693,-2.6306,-2.794,-2.9251,-2.9256,-2.9287,-2.974,-2.9804,-2.9804,0.0,0.0,0.0,0.0,0.0,0.0,0.0,0.0,0.0,0.0,0.0,-3.1185,-3.1386,-3.2947,0.0,0.0,0.0,0.0,0.0,0.0,-4.0397,-4.0457,0.0,0.0,0.0,0.0,0.0,0.0,0.0,0.0,0.0,0.0,0.0,0.0,0.0,0.0,0.0,-4.9912,-5.2845,0.0,0.0,-6.5203,-6.7807,-6.9812,-7.1308,-7.1457,-6.7897,-6.3707,-5.9668,-5.6496,0.0,0.0,-4.8596,-4.873,-4.8985,-4.9404,-4.9837,-5.0584,0.0,0.0,0.0,0.0,0.0,0.0,0.0,0.0,0.0,0.0,0.0,0.0,0.0,-7.1247,-7.1212,-7.1792,-7.0916,-7.035,-7.035,-7.035,-7.035,-7.035,-7.047,-7.035,-6.9991,-6.9722,-6.9034,-6.7986,-6.8405,-6.8016,-6.6999,-6.7418,-6.7358,-6.6999,-6.6999,-6.6999,-6.6999,-6.6999,-6.6999,-6.6999,-6.6999,-6.6999,-6.6999,0.0,0.0,0.0,0.0,0.0,-2.4168,-2.5409,-2.7158,-2.8699,-2.9654,-2.9804,-2.9804,-2.9804,-2.9804,-2.9804,-2.9804,0.0,0.0,0.0,0.0,0.0,0.0,0.0,0.0,0.0,0.0,-3.1562,-3.1386,-3.3302,-3.4553,0.0,0.0,-3.7663,-3.8352,0.0,0.0,0.0,0.0,0.0,0.0,0.0,0.0,0.0,0.0,0.0,0.0,0.0,0.0,0.0,0.0,0.0,0.0,0.0,0.0,0.0,0.0,-6.1553,-6.4725,-6.7238,-6.9303,-7.0081,-6.7388,-6.3228,-5.9159,0.0,0.0,0.0,-4.9359,-4.9404,-4.9703,-5.0106,-5.0345,-5.0644,0.0,0.0,0.0,0.0,0.0,0.0,0.0,0.0,0.0,0.0,0.0,0.0,0.0,-7.0889,-7.0889,-7.0889,-7.032,-7.0051,-7.026,-7.026,-7.026,-7.026,-7.0679,-7.0679,-7.026,-7.0081,-6.9393,-6.8286,-6.8555,-6.8076,-6.7029,-6.7478,-6.7418,-6.6999,-6.6999,-6.6999,-6.6999,-6.6999,-6.6999,-6.6999,-6.6999,-6.6999,-6.6999,0.0,0.0,0.0,0.0,0.0,0.0,-2.6368,-2.7888,-2.9126,-2.9704,-2.9804,-2.9804,-2.9804,-2.9804,-2.9804,-2.9804,0.0,0.0,0.0,0.0,0.0,0.0,0.0,0.0,0.0,0.0,-3.1938,-3.1386,-3.2558,-3.4178,-3.6172,-3.6212,-3.7367,-3.9433,0.0,0.0,0.0,0.0,0.0,0.0,0.0,0.0,0.0,0.0,0.0,0.0,0.0,0.0,0.0,0.0,0.0,0.0,0.0,0.0,0.0,0.0,-5.6974,-6.2271,-6.2959,-6.5533,-6.7687,-6.634,-6.254,-5.859,0.0,0.0,0.0,-4.9449,-4.9763,-5.0196,-5.0196,-5.0734,-5.1199,-5.1229,0.0,0.0,0.0,0.0,0.0,0.0,0.0,0.0,0.0,0.0,0.0,0.0,-7.0889,0.0,-7.0889,-7.032,-7.026,-7.0859,-7.0889,-7.0889,-7.0889,-7.0889,-7.0889,-7.0889,-7.026,-6.9632,-6.8974,-6.8286,-6.7627,-6.6999,-6.6999,-6.6999,-6.6999,-6.6999,-6.6999,-6.6999,-6.6999,-6.6999,-6.6999,-6.6999,-6.6999,-6.6999,0.0,0.0,0.0,0.0,0.0,0.0,0.0,-2.8172,-2.9126,-2.9704,-2.9804,-2.9804,-2.9804,-2.9804,-2.9804,-2.9804,0.0,0.0,0.0,0.0,0.0,0.0,0.0,0.0,0.0,0.0,-3.2139,-3.1964,-3.3093,-3.4012,-3.4666,-3.6116,-3.7418,-3.8587,-4.0536,-4.1662,0.0,0.0,0.0,0.0,0.0,0.0,0.0,0.0,0.0,0.0,0.0,0.0,0.0,0.0,0.0,0.0,0.0,0.0,0.0,0.0,0.0,0.0,-5.9009,-6.1104,-6.2361,-6.1493,-5.9189,-5.6705,-5.5179,0.0,0.0,-5.0631,-5.075,-5.0853,-5.0853,-5.1079,-5.1379,-5.1828,-5.2067,0.0,0.0,0.0,0.0,0.0,0.0,0.0,0.0,0.0,0.0,-7.0889,-7.0889,-7.0889,-7.0889,-7.0709,-7.05,-7.029,-7.026,-7.026,-7.026,-7.0679,-7.0679,-7.026,-7.0081,-6.9393,-6.8315,-6.8555,-6.8076,-6.7029,-6.7478,-6.7418,-6.6999,-6.6999,-6.6999,-6.6999,-6.6999,-6.6999,-6.6999,-6.6999,-6.6999,-6.6999,0.0,0.0,0.0,0.0,0.0,0.0,0.0,-2.8721,-2.9377,-2.9754,-2.9804,-2.9804,-2.9804,-2.9804,-2.9804,-2.9804,0.0,0.0,0.0,0.0,0.0,0.0,0.0,0.0,0.0,-3.1662,-3.2315,-3.2541,-3.3895,-3.463,-3.4879,-3.7071,-3.8315,-3.8749,-4.0861,-4.2021,0.0,0.0,0.0,0.0,0.0,0.0,-4.6309,0.0,0.0,0.0,0.0,0.0,0.0,0.0,0.0,0.0,0.0,0.0,0.0,0.0,0.0,0.0,0.0,-5.7393,-5.862,-5.871,-5.7064,0.0,0.0,0.0,0.0,0.0,-5.1229,-5.1289,-5.1528,-5.1588,-5.1798,-5.2456,-5.2785,0.0,0.0,0.0,0.0,0.0,0.0,0.0,0.0,0.0,0.0,-7.0889,-7.0889,-7.0889,-7.0889,-7.0889,-7.062,-6.9991,-6.9991,-7.0081,-7.032,-7.047,-7.035,-6.9991,-6.9722,-6.9034,-6.7986,-6.8166,-6.7777,-6.6999,-6.7418,-6.7358,0.0,-6.6999,-6.6999,-6.6999,-6.6999,-6.6999,-6.6999,-6.6999,-6.6999,-6.6999,0.0,0.0,0.0,0.0,0.0,0.0,0.0,-2.9453,-2.9804,-2.9804,-2.9804,-2.9804,-2.9804,-2.9804,-2.9804,-2.9804,0.0,0.0,0.0,0.0,0.0,0.0,0.0,0.0,-3.0658,-3.1712,-3.2541,-3.3111,-3.4803,-3.5822,-3.6218,-3.8708,-3.9762,-3.9699,-4.1568,-4.241,-4.256,-4.3778,-4.4347,-4.4496,-4.5771,-4.6309,0.0,0.0,0.0,0.0,0.0,0.0,0.0,0.0,0.0,0.0,0.0,0.0,0.0,0.0,0.0,0.0,0.0,0.0,0.0,0.0,0.0,0.0,0.0,0.0,0.0,0.0,0.0,0.0,-5.2097,-5.2247,-5.2486,-5.3144,0.0,0.0,0.0,0.0,0.0,0.0,0.0,0.0,0.0,0.0,-7.0889,-7.0889,-7.0889,-7.0889,-7.0889,-7.0889,-7.062,-6.9991,-6.9931,-7.0201,-7.0769,-7.0201,-6.9871,-6.9842,-6.9213,-6.8555,-6.7897,-6.7268,-6.6999,-6.6999,-6.6999,-6.6999,-6.6999,-6.6999,-6.6999,-6.6999,-6.6999,-6.6999,-6.6999,-6.6999,-6.6999,-6.6999,0.0,0.0,0.0,0.0,0.0,0.0,0.0,0.0,0.0,0.0,-2.9804,-2.9804,-2.9804,-2.9804,-2.9804,0.0,0.0,0.0,0.0,0.0,0.0,0.0,0.0,0.0,-3.121,-3.229,-3.2943,-3.3111,-3.5236,-3.587,-3.5149,-3.8741,-4.0174,-3.9871,-4.1634,-4.2641,-4.315,-4.3958,-4.4616,-4.5155,-4.5992,-4.6621,0.0,0.0,0.0,0.0,-4.7309,-4.7309,0.0,0.0,0.0,0.0,0.0,0.0,0.0,0.0,-4.7309,-4.7608,-4.9045,0.0,-5.1079,-5.1887,-5.1959,-5.1917,0.0,0.0,0.0,0.0,0.0,0.0,0.0,0.0,0.0,0.0,0.0,0.0,0.0,0.0,0.0,0.0,0.0,0.0,0.0,0.0,-7.0889,-7.0889,-7.0889,-7.0889,-7.0889,-7.0889,-7.062,-6.9991,-6.9482,-6.9303,-6.9453,-6.9303,-6.8974,-6.8435,-6.8286,-6.7867,-6.7208,-6.7059,-6.6999,-6.6999,-6.6999,-6.6999,-6.6999,-6.6999,-6.6999,-6.6999,-6.6999,-6.6999,-6.6999,-6.6999,-6.6999,-6.6999,0.0,0.0,0.0,0.0,0.0,0.0,0.0,0.0,0.0,0.0,0.0,0.0,0.0,0.0,0.0,0.0,0.0,0.0,0.0,0.0,0.0,0.0,0.0,-3.116,-3.1386,-3.224,-3.3043,-3.3822,-3.5626,-3.642,-3.6341,-3.9563,-4.0939,-4.0718,-4.2195,-4.3,-4.3349,-4.4347,-4.4975,-4.5394,-4.6381,0.0,0.0,0.0,0.0,0.0,-4.7309,-4.7309,0.0,-4.7309,-4.7309,-4.7309,0.0,0.0,0.0,0.0,-4.7519,-4.7848,-4.8177,-4.882,-4.9404,-5.0016,-5.0674,-5.1229,0.0,0.0,0.0,0.0,0.0,0.0,0.0,0.0,0.0,0.0,0.0,0.0,0.0,0.0,0.0,0.0,0.0,0.0,0.0,-7.044,-7.0889,-7.0889,-7.0889,-7.0889,-7.0889,-7.0649,-7.0201,-6.9542,-6.8884,-6.8675,-6.9004,-6.8375,-6.7897,-6.7508,-6.7508,-6.7178,-6.655,-6.655,-6.655,-6.652,-6.6221,-6.6101,-6.6101,-6.6101,-6.6101,-6.6101,-6.6101,-6.6281,-6.655,-6.655,-6.6729,-6.6939,0.0,0.0,0.0,0.0,0.0,0.0,0.0,0.0,0.0,0.0,0.0,0.0,0.0,0.0,0.0,0.0,0.0,0.0,0.0,0.0,0.0,0.0,0.0,-3.0984,-3.1512,-3.2139,-3.3169,-3.46,-3.6025,-3.7246,-3.8198,-4.0701,-4.1901,-4.2051,-4.289,-4.3349,-4.3529,-4.4766,-4.5364,-4.5574,-4.68,0.0,0.0,0.0,0.0,0.0,0.0,0.0,0.0,-4.7309,-4.7369,-4.7459,-4.7459,0.0,0.0,0.0,0.0,0.0,-4.8446,-4.8925,-4.9553,-5.0046,-5.0674,-5.1259,0.0,0.0,0.0,0.0,0.0,0.0,0.0,0.0,0.0,0.0,0.0,0.0,0.0,0.0,0.0,0.0,0.0,0.0,-7.1098,-7.1068,-7.0889,-7.0889,-7.0889,-7.0859,-7.0769,-7.026,-6.9632,-6.8854,-6.8286,-6.8166,-6.8525,-6.7418,-6.6849,-6.6849,-6.6729,-6.646,-6.6011,-6.5892,-6.5922,-6.5981,-6.5323,-6.5024,-6.5024,-6.5024,-6.5024,-6.5024,-6.5024,-6.5383,-6.5862,-6.5862,-6.6221,-6.661,0.0,0.0,0.0,0.0,0.0,0.0,0.0,0.0,0.0,0.0,0.0,0.0,0.0,0.0,0.0,0.0,0.0,0.0,0.0,0.0,0.0,-3.0482,-3.0984,-3.1537,-3.2064,-3.3119,-3.3771,-3.4022,-3.6623,-3.7968,-3.836,-4.1615,-4.338,-4.3864,-4.3489,-4.3618,-4.4227,-4.4975,-4.5633,-4.619,-4.701,0.0,0.0,0.0,0.0,0.0,0.0,0.0,0.0,-4.7309,-4.7668,-4.8147,-4.8147,0.0,0.0,0.0,0.0,0.0,-4.9179,-4.9583,-5.0076,-5.0166,-5.0674,-5.1379,0.0,0.0,0.0,0.0,0.0,0.0,0.0,0.0,0.0,0.0,0.0,0.0,0.0,0.0,0.0,0.0,0.0,0.0,-6.8704,-6.9991,-7.0889,-7.0889,-7.0889,-7.0679,-7.0141,-7.0021,-6.9423,-6.8166,-6.8016,-6.7478,-6.649,-6.6251,-6.6161,-6.6161,-6.5592,-6.5562,-6.5981,-6.5443,-6.5473,-6.5981,-6.5323,-6.5024,-6.5024,-6.5024,-6.5024,-6.5024,-6.5024,-6.5084,-6.5173,-6.5173,-6.5233,-6.5323,0.0,0.0,0.0,0.0,0.0,0.0,0.0,0.0,0.0,0.0,0.0,0.0,0.0,0.0,0.0,0.0,0.0,0.0,0.0,0.0,0.0,-3.1461,-3.1712,-3.2089,-3.2667,-3.347,-3.4324,-3.5228,-3.656,-3.7831,-3.915,-4.1695,-4.3378,-4.4287,-4.3589,-4.3648,-4.4347,-4.5005,-4.5693,-4.6339,0.0,0.0,0.0,0.0,0.0,0.0,0.0,0.0,0.0,0.0,-4.7788,-4.7878,-4.8596,0.0,0.0,0.0,0.0,0.0,-4.9793,-5.0272,-5.0794,-5.1199,-5.1528,-5.1828,0.0,0.0,0.0,0.0,0.0,0.0,0.0,0.0,0.0,0.0,0.0,0.0,0.0,0.0,0.0,0.0,0.0,-6.9512,-7.0051,-7.029,-7.041,-7.041,-7.0081,-6.9752,-6.9453,-6.8764,-6.8256,-6.7986,-6.6939,-6.6251,-6.6011,-6.5293,-6.4934,-6.4934,-6.4605,-6.4635,-6.4904,-6.4605,-6.4635,-6.4874,-6.4246,-6.3977,-6.3977,-6.3977,-6.3977,-6.3977,-6.3977,-6.4186,-6.4515,-6.4904,-6.4784,-6.4515,0.0,0.0,0.0,0.0,0.0,0.0,0.0,0.0,0.0,0.0,0.0,0.0,0.0,0.0,0.0,0.0,0.0,0.0,0.0,0.0,-3.1361,-3.2164,-3.2466,-3.2817,-3.3269,-3.3947,-3.4977,-3.6405,-3.6807,-3.8232,-4.0674,-4.2329,-4.3688,-4.4736,-4.3888,-4.3977,-4.4825,-4.5334,-4.5933,-4.6591,0.0,0.0,0.0,0.0,0.0,0.0,0.0,0.0,0.0,0.0,0.0,0.0,0.0,0.0,0.0,-4.9583,-5.0092,-5.0435,-5.0435,-5.0794,-5.1379,-5.2037,0.0,-5.2306,0.0,0.0,0.0,0.0,0.0,0.0,0.0,0.0,0.0,0.0,0.0,0.0,0.0,0.0,-6.64,-6.9123,-6.8974,-6.9453,-7.1457,-7.0649,-6.9991,-6.9991,-6.9363,-6.8854,-6.8555,-6.7537,-6.7089,-6.7268,-6.5802,-6.5203,-6.5533,-6.4515,-6.4006,-6.4006,-6.3857,-6.3857,-6.4006,-6.3857,-6.3857,-6.3977,-6.3348,-6.3079,-6.3079,-6.3079,-6.3079,-6.3079,-6.3079,-6.3378,-6.3857,-6.4366,-6.4246,-6.3857,0.0,0.0,0.0,0.0,0.0,0.0,0.0,0.0,0.0,0.0,0.0,0.0,0.0,0.0,0.0,0.0,0.0,0.0,0.0,0.0,-3.2139,-3.2215,-3.3219,-3.3796,-3.3847,-3.4876,-3.573,-3.6405,-3.7964,-4.0268,-4.3243,-4.4487,-4.546,-4.607,-4.4825,-4.4975,-4.613,-4.619,-4.6621,-4.7249,-4.7279,0.0,0.0,0.0,0.0,0.0,0.0,0.0,0.0,0.0,0.0,0.0,0.0,0.0,-5.102,-5.1079,-5.1109,-5.1139,-5.1139,-5.1169,-5.1379,-5.2037,0.0,0.0,0.0,0.0,0.0,0.0,0.0,0.0,0.0,0.0,0.0,0.0,0.0,0.0,0.0,0.0,-6.9842,-7.0679,-7.0709,-7.0769,-7.0949,-7.038,-6.9991,-6.9991,-6.9363,-6.8465,-6.7208,-6.7029,-6.646,-6.5263,-6.5114,-6.4755,-6.4156,-6.4036,-6.4006,-6.3977,-6.3408,-6.3438,-6.3977,-6.3408,-6.3468,-6.3977,-6.3348,-6.3079,-6.3079,-6.3079,-6.3079,-6.3079,-6.3079,-6.3109,-6.3139,-6.3199,-6.3199,-6.3139,0.0,0.0,0.0,0.0,0.0,0.0,0.0,0.0,0.0,0.0,0.0,0.0,0.0,0.0,0.0,0.0,0.0,0.0,0.0,-3.1989,-3.2365,-3.2742,-3.3495,-3.4073,-3.4399,-3.5504,-3.6508,-3.7387,-3.8718,-4.0579,-4.2877,-4.3353,-4.4313,-4.5663,-4.5155,-4.5454,-4.6279,-4.6279,-4.6711,-4.7309,-4.7309,-4.7309,0.0,0.0,0.0,0.0,0.0,0.0,0.0,0.0,-4.8446,-4.8835,0.0,0.0,-5.0644,-5.1109,-5.1229,-5.1229,-5.1229,-5.1229,-5.1379,-5.2037,0.0,0.0,0.0,0.0,0.0,0.0,0.0,0.0,0.0,0.0,0.0,0.0,0.0,0.0,0.0,-6.9812,-7.0201,-7.0829,-7.0201,-6.9871,-7.029,-6.9363,-6.8555,-6.8166,-6.7508,-6.6729,-6.5832,-6.5353,-6.5084,-6.5024,-6.4246,-6.3887,-6.4006,-6.3617,-6.3438,-6.3438,-6.3199,-6.3199,-6.3408,-6.3169,-6.3199,-6.3408,-6.3169,-6.3079,-6.3079,-6.3079,-6.3079,-6.3079,-6.3079,-6.3079,-6.3079,-6.3079,-6.3079,-6.3079,0.0,0.0,0.0,0.0,0.0,0.0,0.0,0.0,0.0,0.0,0.0,0.0,0.0,0.0,0.0,0.0,0.0,0.0,-3.2164,-3.239,-3.2667,-3.3068,-3.3771,-3.4324,-3.468,-3.5981,-3.7086,-3.8015,-3.9575,-4.1159,-4.2821,-4.3027,-4.3894,-4.5365,-4.5526,-4.5752,-4.6032,-4.645,-4.689,-4.7309,-4.7309,-4.7309,0.0,0.0,0.0,0.0,0.0,0.0,0.0,0.0,0.0,0.0,0.0,0.0,0.0,0.0,-5.1229,-5.1229,-5.1229,-5.1229,-5.1439,0.0,0.0,0.0,0.0,0.0,0.0,0.0,0.0,0.0,0.0,0.0,0.0,0.0,0.0,0.0,0.0,-6.9842,-7.0051,-7.029,-6.9333,-6.8944,-6.9602,-6.8256,-6.7238,-6.6999,-6.6191,-6.5413,-6.4755,-6.4246,-6.4126,-6.4395,-6.3528,-6.3288,-6.3707,-6.3288,-6.3079,-6.3079,-6.3079,-6.3079,-6.3079,-6.3079,-6.3079,-6.3079,-6.3079,-6.3079,-6.3079,-6.3079,-6.3079,-6.3079,-6.3079,-6.3079,-6.3079,-6.3079,-6.3079,-6.3079,0.0,0.0,0.0,0.0,0.0,0.0,0.0,0.0,0.0,0.0,0.0,0.0,0.0,0.0,0.0,0.0,0.0,0.0,-3.2215,-3.2767,-3.3136,-3.3136,-3.4148,-3.4726,-3.4726,-3.6332,-3.7462,-3.8015,-4.0398,-4.2252,-4.3523,-4.4095,-4.4739,-4.5405,-4.6002,-4.5931,-4.5479,-4.6726,-4.7309,-4.7309,-4.7309,-4.7309,-4.7309,0.0,0.0,0.0,0.0,0.0,0.0,0.0,0.0,0.0,0.0,0.0,0.0,0.0,-5.1229,-5.1229,-5.1229,-5.1229,0.0,0.0,0.0,0.0,0.0,0.0,0.0,0.0,0.0,0.0,0.0,0.0,0.0,-6.3558,-6.5682,-6.7448,-6.8794,-6.9542,-6.9722,-6.9064,-6.8375,-6.8196,-6.8914,-6.7178,-6.6251,-6.6909,-6.5742,-6.4725,-6.4036,-6.3977,-6.3707,-6.3109,-6.3079,-6.3079,-6.3079,-6.3079,-6.3079,-6.3079,-6.3079,-6.3079,-6.3079,-6.3079,-6.3079,-6.3079,-6.3079,-6.3079,-6.3079,-6.3079,-6.3079,-6.3079,-6.3079,-6.3079,-6.3079,-6.3079,-6.3079,-6.3079,0.0,0.0,0.0,0.0,0.0,0.0,0.0,0.0,0.0,0.0,0.0,0.0,0.0,0.0,0.0,0.0,0.0,0.0,-3.2792,-3.3345,-3.3646,-3.3646,-3.468,-3.5257,-3.5257,-3.6533,-3.7462,-3.8015,-3.9959,-4.1352,-4.2279,-4.3743,-4.4509,-4.4755,-4.5372,-4.556,-4.5389,-4.5779,-4.6506,-4.7309,-4.7309,-4.7309,-4.7309,0.0,0.0,0.0,0.0,0.0,0.0,0.0,0.0,0.0,0.0,0.0,0.0,-5.1229,-5.1229,-5.1229,-5.1229,0.0,0.0,0.0,0.0,0.0,0.0,0.0,0.0,0.0,0.0,0.0,0.0,0.0,0.0,-6.3139,-6.5024,-6.6759,-6.8076,-6.8046,-6.7986,-6.8256,-6.6879,-6.6161,-6.6819,-6.5951,-6.5203,-6.4904,-6.4515,-6.4006,-6.3378,-6.3348,-6.3258,-6.3079,-6.3079,-6.3079,-6.3079,-6.3079,-6.3079,-6.3079,-6.3079,-6.3079,-6.3079,-6.3079,-6.3079,-6.3079,-6.3079,-6.3079,-6.3079,-6.3079,-6.3079,-6.3079,-6.3079,-6.3079,-6.3079,-6.3079,-6.3079,-6.3079,0.0,0.0,0.0,0.0,0.0,0.0,0.0,0.0,0.0,0.0,0.0,0.0,0.0,0.0,0.0,0.0,0.0,0.0,0.0,-3.3721,-3.3997,-3.4223,-3.5031,-3.5608,-3.5855,-3.6734,-3.7337,-3.7688,-3.9186,-4.0417,-4.1373,-4.2675,-4.3278,-4.3352,-4.4227,-4.4349,-4.3975,-4.4978,-4.5824,-4.6624,-4.7404,-4.7549,-4.7339,0.0,0.0,0.0,0.0,0.0,0.0,0.0,0.0,0.0,0.0,0.0,0.0,-5.1229,-5.1409,-5.1618,0.0,0.0,0.0,0.0,0.0,0.0,0.0,0.0,0.0,0.0,0.0,0.0,0.0,-6.2002,0.0,-6.3288,-6.4665,-6.5892,-6.67,-6.67,-6.664,-6.6789,-6.5503,-6.4874,-6.5562,-6.4784,-6.4186,-6.4006,-6.3767,-6.3468,-6.3109,-6.3079,-6.3079,-6.3079,-6.3079,-6.3079,-6.3079,-6.3079,-6.3079,-6.3079,-6.3079,-6.3079,-6.3079,-6.3079,-6.3079,-6.3079,-6.3079,-6.3079,-6.3079,-6.3079,-6.3079,-6.3079,-6.3079,-6.3079,-6.3079,-6.3079,-6.3079,-6.3079,0.0,0.0,0.0,0.0,0.0,0.0,0.0,0.0,0.0,0.0,-3.0658,0.0,0.0,0.0,0.0,0.0,0.0,0.0,0.0,0.0,-3.4274,-3.4731,-3.5332,-3.5931,-3.648,-3.6985,-3.7262,-3.7262,-3.844,-3.9618,-4.0795,-4.1421,-4.1663,-4.172,-4.2813,-4.2716,-4.1819,-4.4097,-4.5144,-4.5441,-4.7213,-4.7585,-4.7169,-4.7837,0.0,0.0,0.0,0.0,0.0,0.0,0.0,0.0,0.0,0.0,0.0,-5.1229,-5.1678,-5.2187,0.0,0.0,0.0,0.0,0.0,0.0,0.0,0.0,0.0,0.0,0.0,0.0,0.0,-6.26,-6.26,-6.3797,-6.4515,-6.4964,-6.5024,-6.5473,-6.5592,-6.4994,-6.4336,-6.4156,-6.4784,-6.3767,-6.3318,-6.3887,-6.3408,-6.3079,-6.3079,-6.3079,-6.3049,-6.2989,-6.2989,-6.2959,-6.2899,-6.2899,-6.2899,-6.2899,-6.2899,-6.2899,-6.2899,-6.3019,-6.3079,-6.3079,-6.3079,-6.3079,-6.3079,-6.3079,-6.3079,-6.3079,-6.3079,-6.3079,-6.3079,-6.3079,-6.3079,-6.3079,0.0,0.0,0.0,0.0,0.0,0.0,0.0,0.0,0.0,0.0,0.0,0.0,0.0,0.0,0.0,0.0,0.0,0.0,0.0,0.0,-3.5207,-3.5307,-3.6307,-3.6885,-3.7059,-3.7538,-3.7839,-3.7839,-3.902,-4.0035,-4.0843,-4.1835,-4.2258,-4.22,-4.21,-4.2103,-4.2251,-4.2369,-4.3251,-4.4558,-4.4984,-4.5332,-4.5661,-4.639,-4.5759,0.0,0.0,0.0,0.0,0.0,0.0,0.0,0.0,-5.0644,-5.1229,-5.1229,-5.1678,0.0,0.0,0.0,0.0,0.0,0.0,0.0,0.0,0.0,0.0,0.0,0.0,0.0,0.0,-6.2959,-6.3109,-6.3887,-6.4126,-6.4425,-6.4964,-6.4695,-6.4366,-6.4246,-6.3647,-6.3318,-6.3468,-6.3228,-6.3139,-6.3258,-6.3139,-6.3079,-6.3079,-6.3079,-6.2839,-6.2331,-6.2301,-6.2061,-6.1553,-6.1523,-6.1523,-6.1523,-6.1523,-6.1523,-6.1583,-6.26,-6.3079,-6.3079,-6.3079,-6.3079,-6.3079,-6.3079,-6.3079,-6.3079,-6.3079,-6.3079,-6.3079,-6.3079,-6.3079,-6.3079,0.0,0.0,0.0,0.0,0.0,0.0,0.0,0.0,0.0,0.0,0.0,0.0,0.0,0.0,0.0,0.0,0.0,0.0,0.0,0.0,-3.5608,-3.5931,-3.6734,-3.7186,-3.7186,-3.7739,-3.814,-3.8417,-3.9086,-3.9558,-3.9917,-4.0743,-4.1295,-4.1467,-4.0951,-4.1002,-4.1518,-4.1555,-4.2145,-4.3106,-4.4315,-4.4759,-4.4787,-4.5797,-4.5176,-4.404,-4.6063,0.0,0.0,0.0,0.0,0.0,0.0,0.0,-5.0383,-5.1011,-5.1917,0.0,0.0,0.0,0.0,0.0,0.0,0.0,0.0,0.0,0.0,0.0,0.0,0.0,0.0,-6.3079,-6.3169,-6.3498,-6.3558,-6.3677,-6.4036,-6.3797,-6.3558,-6.3558,-6.3258,-6.3079,-6.3079,-6.3079,-6.3079,-6.3079,-6.3079,-6.3079,-6.3079,-6.278,-6.245,-6.2121,-6.1792,-6.1463,-6.1104,-6.1104,-6.1104,-6.1104,-6.1104,-6.1104,-6.1134,-6.1822,-6.2301,-6.26,-6.26,-6.278,-6.3079,-6.3079,-6.3079,-6.3079,-6.3079,-6.3079,-6.3079,-6.3079,-6.3079,-6.3079,0.0,0.0,0.0,0.0,0.0,0.0,0.0,0.0,0.0,0.0,0.0,0.0,0.0,0.0,0.0,0.0,0.0,0.0,0.0,0.0,0.0,-3.6531,-3.7036,-3.7387,-3.7462,-3.7914,-3.8442,-3.907,-3.8969,-3.8969,0.0,-3.9471,-4.0049,-4.0626,-3.9973,-4.0049,-4.0654,-4.1078,-4.1374,-4.1736,-4.3771,-4.4389,-4.4176,-4.5298,-4.4638,-4.3232,-4.4715,-4.431,-4.3544,-4.7151,0.0,0.0,0.0,0.0,-4.9951,-5.1018,-5.2336,-5.3324,0.0,0.0,0.0,0.0,0.0,0.0,0.0,0.0,0.0,0.0,0.0,0.0,0.0,-6.3079,-6.3079,-6.3079,-6.3079,-6.3079,-6.3079,-6.3079,-6.3079,-6.3079,-6.3079,-6.3079,-6.3079,-6.3079,-6.3019,-6.2929,-6.2899,-6.2869,-6.275,-6.2211,-6.1882,-6.1762,-6.1224,-6.0835,-6.0595,-6.0595,-6.0595,-6.0595,-6.0715,-6.0775,-6.0775,-6.0775,-6.1194,-6.1942,-6.2061,-6.2391,-6.2929,-6.3019,-6.3079,-6.3079,-6.3079,-6.3079,-6.3079,-6.3079,-6.3079,-6.3079,0.0,0.0,0.0,0.0,0.0,0.0,0.0,0.0,0.0,0.0,0.0,0.0,0.0,0.0,0.0,0.0,0.0,0.0,0.0,0.0,0.0,-3.7061,-3.7613,-3.814,-3.8693,-3.8718,-3.9019,-3.9597,-3.9145,0.0,0.0,0.0,0.0,-4.1125,-4.0149,-4.0275,-4.1153,-4.0332,-4.0485,-4.137,-4.1734,-4.2373,-4.3274,-4.4071,-4.3542,-4.2659,-4.5083,-4.4411,-4.3033,-4.755,-4.8098,0.0,0.0,0.0,-5.1798,-5.2019,-5.3025,0.0,0.0,0.0,0.0,0.0,0.0,0.0,0.0,0.0,0.0,0.0,0.0,0.0,-6.3079,-6.3079,-6.3079,-6.3079,-6.3079,-6.3079,-6.3079,-6.3079,-6.3079,-6.3079,-6.3079,-6.3079,-6.3079,-6.3079,-6.2839,-6.2271,-6.2241,-6.1972,-6.1403,-6.1283,-6.0984,-6.0386,-6.0266,-5.9668,-5.853,-5.853,-5.853,-5.853,-5.9099,-5.9368,-5.9368,-5.9368,-6.0057,-6.1283,-6.1852,-6.2151,-6.2271,-6.2839,-6.3079,-6.3079,-6.3079,-6.3079,-6.3079,-6.3079,-6.3079,-6.3079,0.0,0.0,0.0,0.0,0.0,0.0,0.0,0.0,0.0,0.0,0.0,0.0,0.0,0.0,0.0,0.0,0.0,0.0,0.0,0.0,0.0,-3.6757,-3.7538,-3.8115,-3.8391,-3.9019,-3.9446,-3.9697,0.0,0.0,0.0,-4.0149,-4.0576,0.0,0.0,0.0,-4.1731,-4.0953,-4.0902,-4.13,-4.1681,-4.2082,-4.262,-4.3274,-4.3136,-4.2831,-4.3955,-4.363,-4.3127,-4.6274,-4.6436,-4.5845,-4.9225,0.0,0.0,0.0,-5.2214,0.0,0.0,0.0,0.0,0.0,0.0,0.0,0.0,0.0,0.0,0.0,0.0,0.0,-6.3079,-6.3079,-6.3079,-6.3079,-6.3079,-6.3079,-6.3079,-6.3079,-6.3079,-6.3079,-6.3079,-6.3079,-6.3079,-6.3079,-6.281,-6.2151,-6.2091,-6.1822,-6.1164,-6.0745,-6.0386,-6.0086,-5.9368,-5.871,-5.8141,-5.7752,-5.7752,-5.8141,-5.88,-5.9099,-5.9099,-5.9099,-5.9638,-6.0565,-6.0835,-6.1194,-6.1583,-6.2241,-6.254,-6.257,-6.2929,-6.3079,-6.3079,-6.3079,-6.3079,-6.3079,0.0,0.0,0.0,0.0,0.0,0.0,0.0,0.0,0.0,0.0,0.0,0.0,0.0,0.0,0.0,0.0,0.0,0.0,0.0,0.0,0.0,-3.6807,-3.7563,-3.814,-3.8442,-3.912,-3.9546,0.0,0.0,0.0,-4.0526,-4.0651,-4.1028,0.0,-4.1351,-4.1656,0.0,0.0,0.0,0.0,-4.2037,-4.2288,-4.2464,-4.2866,-4.2986,-4.2986,-4.2986,-4.3062,-4.3462,-4.5265,-4.5304,-4.5063,-4.8056,-4.83,0.0,0.0,0.0,0.0,0.0,0.0,0.0,0.0,0.0,0.0,0.0,0.0,0.0,0.0,0.0,0.0,-6.278,-6.2959,-6.3079,-6.3079,-6.3079,-6.3019,-6.2839,-6.2959,-6.2959,-6.263,-6.272,-6.275,-6.26,-6.257,-6.2301,-6.1642,-6.1583,-6.1224,-6.0386,-5.9877,-5.9488,-5.9338,-5.8381,-5.7782,-5.7633,-5.7124,-5.7124,-5.7633,-5.8291,-5.868,-5.886,-5.886,-5.9219,-5.9847,-6.0027,-6.0386,-6.0894,-6.1583,-6.1852,-6.1912,-6.257,-6.2839,-6.2839,-6.3019,-6.3079,-6.3079,0.0,0.0,0.0,0.0,0.0,0.0,0.0,0.0,0.0,0.0,0.0,0.0,-3.463,-3.5132,-3.573,-3.6329,-3.6355,0.0,0.0,0.0,0.0,-3.7864,-3.7965,0.0,-3.9597,-3.9145,-3.917,0.0,0.0,0.0,-4.0526,-4.1,-4.158,-4.2137,-4.158,-4.1656,-4.2162,0.0,0.0,0.0,-4.2213,-4.2514,-4.2936,-4.2961,-4.2986,-4.2986,-4.2986,-4.3313,-4.3992,-4.5396,-4.6178,-4.6928,-4.9036,-4.9583,-4.9583,0.0,0.0,0.0,0.0,0.0,0.0,0.0,0.0,0.0,0.0,0.0,0.0,0.0,0.0,0.0,-6.2032,-6.266,-6.3079,-6.3079,-6.3079,-6.2869,-6.2241,-6.269,-6.26,-6.1373,-6.1762,-6.1912,-6.1283,-6.1224,-6.0924,-6.0236,-6.0176,-5.9638,-5.8351,-5.8231,-5.7932,-5.7274,-5.7184,-5.6855,-5.6286,-5.6226,-5.6226,-5.6338,-5.6885,-5.7543,-5.8171,-5.8171,-5.853,-5.9189,-5.9817,-6.0116,-6.0176,-6.0894,-6.1164,-6.1224,-6.1882,-6.2151,-6.2211,-6.2839,-6.3079,-6.3079,0.0,0.0,0.0,0.0,0.0,0.0,0.0,0.0,0.0,0.0,0.0,0.0,0.0,-3.5956,-3.6132,-3.638,-3.6405,0.0,0.0,0.0,0.0,-3.7462,-3.8165,-3.8743,-3.917,-3.932,0.0,0.0,0.0,-3.9798,-4.0526,-4.1025,-4.163,-4.2238,-4.2685,-4.2836,-4.2685,-4.2861,0.0,0.0,-4.3062,-4.3338,-4.3514,-4.3514,-4.374,-4.3991,-4.3639,-4.3865,-4.4425,-4.5355,-4.5783,-4.6155,-4.7192,-4.7548,-4.7869,-4.9773,-5.071,0.0,0.0,0.0,0.0,0.0,0.0,0.0,0.0,0.0,0.0,0.0,0.0,0.0,-6.1433,-6.1642,-6.1822,-6.1822,-6.1822,-6.1732,-6.1493,-6.1672,-6.1642,-6.1164,-6.1313,-6.1373,-6.1134,-6.1104,-6.0835,-6.0146,-6.0086,-5.9518,-5.8201,-5.8112,-5.7812,-5.7124,-5.6705,-5.6196,-5.5538,-5.5957,-5.6218,-5.6248,-5.7244,-5.7872,-5.8141,-5.856,-5.889,-5.9129,-5.9338,-5.9458,-5.9518,-6.0176,-6.0446,-6.0565,-6.1672,-6.2091,-6.2181,-6.2839,-6.3079,-6.3079,0.0,0.0,0.0,0.0,0.0,0.0,0.0,0.0,0.0,-3.4349,0.0,0.0,0.0,0.0,-3.6405,-3.6405,-3.6405,-3.648,-3.6681,-3.6985,-3.7362,-3.7739,-3.8517,-3.8969,-3.9145,0.0,0.0,0.0,0.0,0.0,0.0,-4.0849,-4.1455,-4.2263,-4.3112,-4.3413,0.0,0.0,0.0,-4.3564,-4.394,-4.4091,-4.4091,-4.4091,-4.4292,-4.4593,-4.4443,-4.4719,-4.5271,-4.5849,-4.605,-4.61,-4.6476,-4.6451,-4.6704,-4.8983,-4.9769,0.0,0.0,0.0,0.0,0.0,0.0,0.0,0.0,0.0,0.0,0.0,0.0,0.0,-6.0685,-6.0595,-6.0595,-6.1044,-6.1104,-6.1044,-6.0805,-6.0954,-6.0954,-6.0475,-6.0625,-6.0685,-6.0475,-6.0446,-6.0146,-5.9488,-5.9428,-5.886,-5.7543,-5.7453,-5.7154,-5.6466,-5.6047,-5.5628,-5.5179,-5.5628,-5.6008,-5.6248,-5.7064,-5.7693,-5.8141,-5.859,-5.889,-5.9099,-5.9099,-5.9099,-5.9129,-5.9578,-5.9757,-5.9877,-6.0984,-6.1433,-6.1523,-6.2421,-6.275,-6.278,0.0,0.0,0.0,0.0,0.0,0.0,0.0,0.0,-3.3922,-3.3947,0.0,0.0,0.0,0.0,0.0,-3.6455,-3.6455,-3.6681,-3.7186,-3.7236,-3.7713,-3.8869,0.0,0.0,0.0,0.0,0.0,0.0,0.0,0.0,0.0,0.0,-4.1103,-4.2213,-4.2766,-4.3288,-4.384,0.0,-4.4618,-4.4593,-4.4644,-4.4669,-4.4669,-4.4669,-4.4694,-4.4794,-4.5347,-4.5899,-4.6451,-4.6979,-4.7093,-4.7068,-4.7043,-4.6753,-4.6475,-4.7273,-4.7968,-4.863,0.0,0.0,0.0,0.0,0.0,0.0,0.0,0.0,0.0,0.0,0.0,0.0,-5.9787,-5.9518,-5.9548,-6.0835,-6.1044,-6.0805,-6.0116,-6.0595,-6.0535,-5.9189,-5.9608,-5.9757,-5.9099,-5.9039,-5.877,-5.8141,-5.8082,-5.7513,-5.6308,-5.6188,-5.5837,-5.5209,-5.5179,-5.5179,-5.5179,-5.5209,-5.5538,-5.6218,-5.6248,-5.6885,-5.8112,-5.8141,-5.8501,-5.9099,-5.9099,-5.9099,-5.9099,-5.9099,-5.9099,-5.9159,-5.9817,-6.0086,-6.0236,-6.1583,-6.2091,-6.2181,0.0,0.0,0.0,0.0,0.0,0.0,-3.4198,-3.4399,-3.465,0.0,0.0,0.0,-3.6634,-3.7211,-3.7563,-3.7563,-3.7563,-3.7613,-3.7764,-3.8165,-3.8592,-3.8919,-3.9245,-3.9546,-3.9697,0.0,0.0,0.0,0.0,0.0,0.0,0.0,0.0,0.0,-4.2559,-4.3288,-4.384,-4.4392,0.0,-4.4091,-4.492,-4.5472,-4.5849,-4.5849,-4.6326,-4.6979,-4.6753,-4.7029,-4.7481,-4.7631,-4.7431,-4.6993,-4.6652,-4.6426,-4.655,-4.7827,-4.7639,-4.7154,-4.8493,0.0,0.0,0.0,0.0,0.0,0.0,0.0,0.0,0.0,0.0,0.0,-5.859,-5.8919,-5.9219,-5.9608,-5.9668,-5.9428,-5.877,-5.883,-5.862,-5.7752,-5.7812,-5.7842,-5.7663,-5.7663,-5.7573,-5.7393,-5.7393,-5.7034,-5.6226,-5.5718,-5.5388,-5.5209,-5.5179,-5.5179,-5.5179,-5.5658,-5.6038,-5.6248,-5.7124,-5.7782,-5.8141,-5.862,-5.8919,-5.9099,-5.9099,-5.9099,-5.9099,-5.9099,-5.9099,-5.9159,-5.9817,-6.0086,-6.0176,-6.1074,-6.1672,-6.2121,0.0,0.0,0.0,0.0,0.0,-3.4655,-3.4981,-3.5253,-3.5529,0.0,0.0,0.0,-3.7437,-3.7814,-3.8015,-3.8015,-3.8015,-3.8115,-3.8341,-3.8668,-3.902,-3.9195,-3.9521,-3.9697,-3.9697,0.0,0.0,0.0,0.0,0.0,0.0,0.0,0.0,0.0,0.0,0.0,0.0,0.0,-4.4568,-4.4593,-4.5723,-4.6376,-4.6677,-4.6903,-4.7355,-4.7908,-4.7832,-4.8008,-4.8309,-4.8535,-4.8259,-4.7732,-4.7154,-4.6828,-4.6834,-4.7658,-4.7172,-4.6531,-4.7606,-4.7955,-4.8047,-4.8641,0.0,0.0,-5.1264,-5.2143,0.0,0.0,0.0,0.0,-5.7633,-5.7992,-5.8351,-5.865,-5.871,-5.865,-5.856,-5.8291,-5.7992,-5.7573,-5.7274,-5.7094,-5.7094,-5.7094,-5.7004,-5.6735,-5.6705,-5.6436,-5.5807,-5.5388,-5.5179,-5.5179,-5.5179,-5.5179,-5.5179,-5.5568,-5.6017,-5.6555,-5.7334,-5.7992,-5.853,-5.8919,-5.9099,-5.9099,-5.9099,-5.9099,-5.9099,-5.9099,-5.9099,-5.9129,-5.9518,-5.9668,-5.9757,-6.0446,-6.1104,-6.1732,0.0,0.0,-3.3865,-3.4028,-3.4951,-3.5608,-3.5683,-3.6182,-3.6581,0.0,-3.7036,-3.7563,-3.804,-3.8165,-3.8191,-3.8191,-3.8191,-3.8417,-3.8919,-3.902,-3.917,-3.9672,-3.9697,-3.9697,-3.9697,-3.922,0.0,0.0,0.0,0.0,0.0,0.0,0.0,0.0,0.0,0.0,0.0,0.0,-4.492,-4.5497,-4.6652,-4.7179,-4.728,-4.7807,-4.8033,-4.8159,-4.8686,-4.8912,-4.9012,-4.9439,-4.9213,-4.8661,-4.8083,-4.7581,-4.723,-4.723,-4.6878,-4.6602,-4.7079,-4.723,-4.7485,-4.883,-4.8111,0.0,-5.1514,-5.1373,-5.1375,0.0,0.0,0.0,-5.6436,-5.6585,-5.6799,-5.7393,-5.7732,-5.8107,-5.8865,-5.8411,-5.7992,-5.7932,-5.7304,-5.6885,-5.6885,-5.6885,-5.6645,-5.6107,-5.6128,-5.5807,-5.5209,-5.5179,-5.5179,-5.5179,-5.5179,-5.5239,-5.5299,-5.5359,-5.6017,-5.7214,-5.7274,-5.7962,-5.9099,-5.9099,-5.9099,-5.9099,-5.9099,-5.9099,-5.9099,-5.9099,-5.9099,-5.9099,-5.9099,-5.9099,-5.9189,-5.9757,-6.0446,-6.1194,0.0,0.0,-3.3557,-3.4944,-3.5755,-3.6358,-3.6784,-3.7337,-3.7688,-3.7688,-3.8191,-3.8642,-3.8693,-3.9094,-3.9371,-3.9371,-3.9371,-3.9421,-3.9521,-3.9521,-3.9572,-3.9697,-3.9697,-3.9697,-3.9697,-3.9597,-3.9597,0.0,0.0,0.0,0.0,0.0,0.0,0.0,0.0,0.0,0.0,0.0,0.0,-4.492,-4.6502,-4.738,-4.7832,-4.8385,-4.8887,-4.9289,-4.9389,-4.9715,-5.0042,-4.9715,-4.9213,-4.8661,-4.8083,-4.7832,-4.7757,-4.7757,-4.7682,-4.7631,-4.7732,-4.7757,-4.7819,-4.8103,-4.7615,0.0,-4.8077,-4.8583,-4.9106,0.0,0.0,0.0,-5.2741,-5.3191,-5.3613,-5.3726,-5.5217,-5.6757,-5.8131,-5.7723,-5.7124,-5.6615,-5.5957,-5.5568,-5.5568,-5.5568,-5.5508,-5.5388,-5.5388,-5.5329,-5.5209,-5.5179,-5.5179,-5.5179,-5.5179,-5.5448,-5.5987,-5.6466,-5.7124,-5.7932,-5.8471,-5.886,-5.9099,-5.9099,-5.9099,-5.9099,-5.9099,-5.9099,-5.9099,-5.9099,-5.9099,-5.9099,-5.9099,-5.9099,-5.9129,-5.9249,-6.0057,-6.1134,-3.0306,-3.197,-3.3552,-3.4748,-3.6179,-3.7362,-3.7939,-3.8266,-3.8442,-3.8442,-3.8693,-3.8969,-3.9245,-3.9521,-3.9697,-3.9697,-3.9697,-3.9697,-3.9697,-3.9697,-3.9697,-3.9697,-3.9697,-3.9697,-3.9697,-3.9973,-3.9973,-3.9697,0.0,0.0,0.0,0.0,0.0,0.0,0.0,0.0,0.0,0.0,-4.4618,-4.4794,-4.6753,-4.7682,-4.8008,-4.8862,-4.9515,-4.9967,-4.969,-4.9941,-5.0368,-5.0092,-4.9816,-4.949,-4.8937,-4.856,-4.8335,-4.8335,-4.8134,-4.7983,-4.8259,-4.8335,-4.8335,-4.8335,-4.8134,0.0,0.0,-4.8577,-4.9022,-4.9505,-5.0459,-5.1182,-5.1182,0.0,-5.1791,-5.2152,-5.3723,-5.5005,-5.5377,-5.6397,-5.6974,-5.6675,-5.5777,-5.5179,-5.5179,-5.5179,-5.5179,-5.5179,-5.5179,-5.5179,-5.5179,-5.5179,-5.5179,-5.5179,-5.5508,-5.5837,-5.6218,-5.6795,-5.7453,-5.8112,-5.8112,-5.8441,-5.9099,-5.877,-5.88,-5.9099,-5.9099,-5.9099,-5.9099,-5.9099,-5.9099,-5.9099,-5.9099,-5.9099,-5.9099,-5.9099,-5.9727,-6.0595,-2.9676,-3.1851,-3.3934,-3.4775,-3.6628,-3.8191,-3.8844,-3.902,-3.9019,-3.9019,-3.9019,-3.9195,-3.9647,-3.9798,-3.9898,-3.9998,-3.9923,-3.9898,-3.9998,-3.9798,-3.9697,-3.9697,-3.9697,-3.9747,-3.9848,-4.0199,-4.0249,-4.0023,0.0,0.0,0.0,0.0,0.0,0.0,0.0,0.0,0.0,0.0,0.0,-4.5121,-4.7104,-4.7908,-4.8033,-4.9163,-4.9866,-5.0218,-4.9866,-4.9967,-5.0268,-5.0393,-5.0343,-5.0167,-4.9741,-4.9289,-4.8937,-4.8937,-4.8611,-4.8335,-4.8812,-4.8937,-4.8937,-4.8937,-4.8862,-4.8888,0.0,0.0,0.0,-4.9891,0.0,0.0,0.0,0.0,0.0,0.0,0.0,0.0,0.0,-5.4359,0.0,-5.6067,-5.5323,-5.4794,-5.4794,-5.4794,-5.4896,-5.5179,-5.4692,-5.456,-5.5179,-5.4926,-5.4794,-5.4794,-5.5367,-5.5835,-5.5954,-5.6525,-5.7179,-5.7832,-5.7444,-5.7743,-5.8605,-5.825,-5.831,-5.8689,-5.8991,-5.8936,-5.8689,-5.8991,-5.9099,-5.9099,-5.9099,-5.9099,-5.9099,-5.9099,-5.9518,-6.0116,-3.2305,-3.3668,-3.4847,-3.6599,-3.749,-3.8191,-3.8844,-3.927,-3.9597,-3.9597,-3.9597,-3.9622,-3.9697,-4.0124,-4.0626,-4.105,-4.0701,-4.0626,-4.1075,-4.0249,-3.9697,-3.9697,-3.9697,-3.9923,-4.04,-3.9998,-4.0249,-4.11,0.0,0.0,0.0,0.0,0.0,0.0,-4.3489,0.0,0.0,0.0,-4.5673,0.0,-4.7431,-4.7908,-4.8033,-4.9163,-4.964,-4.9741,-5.0167,-5.0042,-4.9766,-5.0243,-5.0092,-4.9665,-4.9615,-4.9565,-4.9515,-4.9515,-4.9464,-4.9414,-4.949,-4.9515,-4.9515,-4.9515,-4.9138,-4.88,-4.8838,0.0,-4.794,-4.7592,0.0,-4.7399,-4.6891,0.0,0.0,0.0,0.0,0.0,-4.9892,-5.1309,-5.2296,-5.2296,-5.2883,-5.3256,-5.3256,-5.3256,-5.3808,-5.5078,-5.2722,-5.2373,-5.5078,-5.3964,-5.3256,-5.3256,-5.381,-5.4389,-5.5021,-5.5603,-5.6239,-5.6846,-5.7616,-5.7621,-5.6989,-5.7789,-5.771,-5.7075,-5.8495,-5.8276,-5.7075,-5.8495,-5.9099,-5.9099,-5.9099,-5.9099,-5.9099,-5.9099,-5.9518,-6.0176,-3.0167,-3.1287,-3.2729,-3.4953,-3.617,-3.7414,-3.9093,-3.9823,-4.0049,-3.9747,-3.9973,-4.03,-4.0601,-4.0852,-4.1204,-4.1756,-4.1605,-4.143,-4.13,-4.0902,-4.0651,-4.0651,-4.0651,-4.0601,-4.0526,-4.0601,-4.0551,-4.0375,-4.0802,0.0,0.0,0.0,0.0,0.0,-4.3564,0.0,-4.3865,0.0,-4.5623,0.0,-4.7355,-4.7908,-4.8033,-4.9163,-4.959,-4.9715,-5.0594,-5.0544,-5.0117,-5.0343,-5.0268,-5.0017,-4.969,-4.959,-4.959,-4.959,-4.959,-4.959,-4.959,-4.959,-4.959,-4.959,-4.9414,-4.9163,-4.8837,-4.8586,-4.8259,-4.7682,0.0,0.0,0.0,0.0,0.0,0.0,-4.8265,-4.8976,0.0,0.0,-5.0306,-5.154,-5.1654,-5.1997,-5.291,-5.3016,-5.3623,-5.5078,-5.3227,-5.2615,-5.386,-5.4119,-5.4007,-5.3535,-5.4061,-5.4722,-5.5411,-5.5111,-5.4878,-5.488,-5.5776,-5.6191,-5.6272,-5.7143,-5.7217,-5.6792,-5.8386,-5.8221,-5.6849,-5.844,-5.9099,-5.9099,-5.9099,-5.9099,-5.9099,-5.9099,-5.9279,-5.9548,-2.8457,-2.9887,-3.1823,-3.4152,-3.5797,-3.7431,-3.9392,-4.0023,-4.0149,-3.9747,-4.0174,-4.0674,-4.1225,-4.1827,-4.2534,-4.3237,-4.3288,-4.3062,-4.2509,-4.2057,-4.1656,-4.13,-4.1275,-4.1229,-4.0978,-4.1204,-4.1103,-4.0601,-4.1254,0.0,0.0,0.0,0.0,0.0,0.0,-4.4166,-4.4116,0.0,-4.6024,-4.625,-4.7431,-4.8083,-4.846,-4.9289,-4.959,-4.9715,-5.0519,-5.0544,-5.0193,-5.0193,-5.0193,-5.0117,-4.9715,-4.959,-4.959,-4.959,-4.959,-4.959,-4.959,-4.959,-4.959,-4.959,-4.959,-4.949,-4.9088,-4.8987,-4.8837,-4.8259,-4.8134,0.0,0.0,0.0,-4.7782,-4.7405,0.0,-4.8205,-4.6698,-4.7282,0.0,-5.0013,-5.0148,-5.0713,-5.2241,-5.1856,-5.2231,-5.3831,-5.207,-5.1341,-5.2348,-5.3107,-5.3288,-5.2655,-5.336,-5.3923,-5.4289,-5.3941,-5.3348,-5.2615,-5.3669,-5.4541,-5.5308,-5.6079,-5.6326,-5.6137,-5.7749,-5.7552,-5.6194,-5.7804,-5.8689,-5.9099,-5.9099,-5.9099,-5.9099,-5.9099,-5.9099,-5.9129,-2.8906,-3.1138,-3.3691,-3.5585,0.0,-3.9044,-3.9597,-3.9697,-3.9722,-3.9697,-4.0174,-4.0674,-4.1225,-4.3181,-4.497,-4.6075,-4.6175,-4.5949,-4.5397,-4.384,-4.2459,-4.1326,-4.1275,-4.158,-4.2137,-4.1605,-4.1831,-4.2861,-4.2439,0.0,0.0,0.0,0.0,0.0,0.0,-4.5121,-4.4694,-4.6316,-4.738,-4.7832,-4.7883,-4.856,-4.954,-4.959,-4.959,-4.959,-4.964,-4.964,-4.9615,-4.9615,-4.9615,-4.9615,-4.9615,-4.959,-4.959,-4.959,-4.959,-4.959,-4.959,-4.959,-4.959,-4.959,-4.959,-4.959,-4.9565,-4.9565,-4.9414,-4.8862,-4.8736,-4.856,-4.8008,-4.7908,-4.7908,-4.7883,-4.7456,0.0,0.0,-4.6652,-4.6361,-4.6446,-4.771,-4.9137,-5.0657,-4.8996,-4.8691,-5.0713,-4.766,-4.723,-5.0602,-4.9963,-4.9499,-4.9467,-5.0544,-5.0888,-5.0453,-5.153,-5.153,-5.0393,-5.1902,-5.2955,-5.3594,-5.454,-5.4799,-5.4564,-5.6079,-5.5907,-5.4564,-5.6137,-5.7664,-5.9099,-5.9099,-5.9099,-5.9099,-5.9099,-5.9099,-5.9189,0.0,-3.1134,-3.3192,0.0,0.0,-3.7998,-3.9494,-3.9998,-4.0626,-4.1731,-4.266,-4.4016,-4.6024,-4.7255,-4.8058,-4.846,-4.8485,-4.7933,-4.6652,-4.5698,-4.4844,-4.4116,-4.3714,-4.3438,-4.3237,-4.271,-4.2434,-4.2489,-4.1882,0.0,0.0,0.0,0.0,0.0,0.0,-4.5171,0.0,0.0,0.0,0.0,0.0,-4.8937,-4.959,-4.959,-4.959,-4.959,-4.959,-4.959,-4.959,-4.959,-4.9841,-5.0067,-4.9715,-4.9841,-5.0067,-4.969,-4.959,-4.9665,-5.0042,-5.0142,-5.0142,-5.0142,-5.0142,-5.0042,-4.9665,-4.959,-4.954,-4.9364,-4.9615,-4.969,-4.9138,-4.9314,-4.9314,-4.8611,-4.8008,-4.7531,0.0,-4.6652,-4.6301,-4.6301,-4.7593,-4.8705,-4.9194,-4.9137,-4.9748,-5.1428,-4.9502,-4.8811,-4.9996,-5.0512,-5.0559,-4.999,-5.0662,-5.1136,-5.1382,-5.0411,-4.949,-4.8723,-4.9825,-5.1254,-5.2955,-5.3189,-5.3718,-5.4446,-5.4976,-5.4859,-5.4505,-5.6079,-5.7664,-5.8991,-5.7915,-5.8166,-5.9099,-5.9099,-5.9099,-5.9129,-2.9766,-3.134,-3.3053,-3.4356,0.0,-3.8282,-3.8844,-4.0483,-4.2057,-4.3137,-4.4744,-4.6702,-4.9088,-5.0218,-5.0845,-5.1046,-5.1046,-5.0193,-4.8134,-4.7682,-4.6979,-4.5824,-4.5422,-4.497,-4.4418,-4.384,-4.3288,-4.2791,-4.2384,-4.261,0.0,0.0,0.0,0.0,0.0,-4.5522,-4.4769,0.0,-4.7707,0.0,0.0,-4.9264,-4.959,-4.959,-4.959,-4.959,-4.959,-4.959,-4.959,-4.959,-4.9841,-5.0067,-4.9715,-4.9841,-5.0067,-4.969,-4.959,-4.9665,-5.0017,-5.0268,-5.0419,-5.0419,-5.0569,-5.0619,-5.0268,-5.0193,-5.0142,-4.9916,-5.0167,-5.0243,-4.969,-4.9891,-4.9816,-4.8912,-4.8284,-4.7657,0.0,-4.6527,-4.6301,-4.6301,-4.7146,-4.771,-4.771,-4.7793,-4.8403,-4.9611,-4.8596,-4.7958,-4.8172,-4.9377,-4.9817,-4.9464,-4.9939,-5.0406,-5.0831,-4.9482,-4.8385,-4.7631,-4.824,-4.9666,-5.1871,-5.1785,-5.238,-5.3549,-5.3549,-5.385,-5.4446,-5.5444,-5.716,-5.8936,-5.7328,-5.7664,-5.9045,-5.844,-5.8634,-5.9099,0.0,-3.1828,-3.3444,-3.4403,-3.7702,-3.9643,-3.7833,-4.1047,-4.3783,-4.3991,-4.6426,-4.8812,-5.0519,-5.2176,-5.3356,-5.3833,-5.3808,-5.2653,-4.9967,-4.9715,-4.8736,-4.6602,-4.6451,-4.6175,-4.5673,-4.502,-4.4468,-4.3966,-4.389,0.0,0.0,0.0,0.0,0.0,-4.6316,0.0,-4.4819,-4.7029,-4.7958,-4.8033,-4.9138,-4.959,-4.959,-4.959,-4.959,-4.959,-4.959,-4.959,-4.959,-4.959,-4.9615,-4.964,-4.964,-4.9665,-4.9665,-4.9665,-4.9665,-4.969,-4.9715,-5.0092,-5.0494,-5.0494,-5.0921,-5.1297,-5.1247,-5.1247,-5.1071,-5.0494,-5.0393,-5.0243,-4.969,-4.959,-4.9414,-4.8862,-4.8259,-4.7506,-4.6451,-4.6301,-4.6301,-4.6301,-4.6301,-4.6301,-4.6301,-4.533,-4.4961,-4.5515,-4.5036,-4.4961,-4.5515,-4.6527,-4.738,-4.7883,-4.846,-4.8786,-4.8812,-4.8761,-4.8209,-4.7143,-4.7093,-4.8237,-5.036,-5.024,-5.0846,-5.1989,-5.1927,-5.2822,-5.4386,-5.4386,-5.6223,-5.8798,-5.7187,-5.7496,-5.8689,-5.7328,-5.7804,-5.9099,-3.1133,-3.2705,-3.4159,-3.4496,-3.567,-3.7068,-3.8335,-4.061,-4.3301,-4.6456,-4.964,-5.2427,-5.4486,-5.5867,-5.6495,-5.6194,-5.5415,-5.431,-5.2754,-5.1523,-5.0393,-4.9414,-4.8586,-4.8083,-4.7933,-4.6577,-4.5999,-4.6276,-4.502,-4.4568,-4.4844,0.0,0.0,0.0,0.0,0.0,-4.5397,-4.7606,-4.856,-4.8611,-4.9314,-4.959,-4.959,-4.959,-4.959,-4.959,-4.959,-4.959,-4.959,-4.959,-4.9866,-5.0193,-5.0193,-5.0494,-5.0845,-5.0845,-5.0845,-5.0946,-5.1348,-5.1574,-5.1674,-5.1674,-5.1774,-5.1674,-5.082,-5.0645,-5.0469,-4.9916,-5.0117,-5.0243,-4.969,-4.959,-4.9414,-4.8862,-4.7958,-4.7104,-4.6401,-4.6301,-4.6301,-4.6301,-4.6301,-4.6301,-4.6301,-4.6213,-4.6252,-4.6382,-4.6278,-4.6252,-4.6408,-4.6849,-4.738,-4.7883,-4.846,-4.8962,-4.9389,-4.8535,-4.8209,-4.8335,-4.7531,-4.8442,-5.0967,-4.9734,-5.0245,-5.1927,-5.0727,-5.1829,-5.4386,-5.4386,-5.556,-5.7131,-5.5618,-5.5211,-5.5877,-5.7749,-5.8743,-5.9099,-3.1543,-3.2695,-3.3821,-3.4269,-3.5452,-3.7278,-3.9972,-4.2466,-4.5121,-4.8209,-5.1348,-5.3934,-5.5666,-5.7298,-5.8127,-5.7801,-5.6746,-5.5541,-5.416,-5.298,-5.1975,-5.1197,-5.0318,-4.964,-4.9138,-4.7506,-4.6828,-4.7068,-4.5388,-4.4995,-4.5639,0.0,0.0,0.0,0.0,-4.7004,0.0,-4.8309,-4.9138,-4.9163,-4.9464,-4.959,0.0,-4.959,-4.959,-4.959,-4.959,-4.959,-4.964,-4.9866,-5.0167,-5.0469,-5.072,-5.1021,-5.1272,-5.1272,-5.1272,-5.1348,-5.1649,-5.1925,-5.2101,-5.2101,-5.2277,-5.2302,-5.1649,-5.1523,-5.1297,-5.0494,-5.0569,-5.0544,-4.9741,-4.959,-4.9414,-4.8862,-4.7857,-4.6968,-4.6702,-4.6451,-4.6301,-4.6301,-4.6301,-4.6301,-4.6301,-4.6006,-4.5907,-4.6166,-4.5727,-4.5649,-4.6166,-4.6349,-4.6778,-4.7556,-4.8109,-4.8661,-4.9238,-4.8611,-4.846,-4.8761,-4.7883,-4.8379,-5.0126,-4.9178,-4.9609,-5.0916,-5.0014,-5.1042,-5.3368,-5.3368,-5.4268,-5.5676,-5.5502,-5.4976,-5.4741,-5.7915,-5.9099,-5.9099,-3.1914,-3.2461,-3.3344,-3.4344,-3.6403,-3.9143,-4.256,-4.5576,-4.802,-4.9501,-5.2466,-5.4737,-5.5717,-5.7625,-5.8805,-5.873,-5.7675,-5.6369,-5.4787,-5.4059,-5.3256,-5.2251,-5.1674,-5.0896,-4.9841,-4.8109,-4.728,-4.7355,-4.5598,-4.5497,0.0,0.0,0.0,0.0,0.0,0.0,0.0,-4.8761,-4.9364,-4.9389,-4.9464,-4.954,-4.959,-4.959,-4.959,-4.9615,-4.9665,-4.9665,-4.9665,-5.0142,-5.0368,-5.0519,-5.1096,-5.1322,-5.1398,-5.1473,-5.1498,-5.1498,-5.1498,-5.185,-5.2201,-5.2201,-5.2578,-5.2904,-5.2829,-5.2829,-5.2503,-5.1398,-5.1172,-5.0845,-4.9791,-4.954,-4.9314,-4.8761,-4.7857,-4.7143,-4.7093,-4.6728,-4.6401,-4.6326,-4.6376,0.0,-4.6326,-4.5347,-4.4945,-4.5447,-4.4518,-4.4342,-4.5321,-4.5447,-4.5949,-4.6943,-4.7606,-4.8184,-4.8761,-4.8761,-4.8875,-4.8862,-4.8284,-4.8309,-4.8887,-4.8887,-4.9138,-4.959,-4.959,-5.0499,-5.1989,-5.1989,-5.2822,-5.4208,-5.5299,-5.5211,-5.471,-5.7216,-5.858,-5.9099,-3.3125,0.0,0.0,-3.6321,-3.8232,-4.1212,-4.6201,-4.8329,-4.9624,-5.0338,-5.4745,-5.7926,-5.8102,-5.8855,-5.9182,-5.8755,-5.7675,-5.652,-5.5315,-5.4285,-5.3432,-5.2804,-5.2251,-5.1649,-5.0996,-4.8862,-4.8008,-4.8485,-4.6376,-4.5497,0.0,0.0,0.0,0.0,0.0,0.0,-4.7782,-4.8083,-4.8209,-4.8234,-4.8711,-4.9188,-4.959,-4.959,-4.959,-4.9665,-5.0117,-4.9992,-4.9615,-4.9715,-5.0042,-5.0519,-5.1096,-5.1599,-5.2051,-5.2503,-5.2628,-5.2628,-5.2628,-5.2703,-5.2779,-5.2779,-5.2854,-5.2804,-5.2352,-5.2251,-5.1925,-5.0795,-5.0569,-5.0368,-4.9715,-4.9213,-4.8736,-4.8159,-4.7908,-4.7631,-4.7143,-4.6993,-4.6828,-4.6376,-4.6702,-4.6803,-4.6351,-4.5723,-4.5372,-4.5472,-4.4869,-4.4568,-4.4769,-4.5221,-4.5773,-4.6426,-4.7405,-4.8184,-4.8761,-4.8761,-4.9012,-4.9439,-4.8887,-4.8912,-4.9439,-4.9439,-4.9515,-4.959,-4.959,-5.0499,-5.1989,-5.1989,-5.2148,-5.2332,-5.1268,-5.2297,-5.4268,-5.3522,-5.5705,-5.9099,-3.4355,0.0,0.0,0.0,-3.9385,-4.1954,-4.437,-4.7856,-5.0822,-5.2475,-5.3408,-5.4856,-5.7175,-5.7608,-5.8044,-5.8678,-5.7951,-5.7022,-5.5892,-5.4762,-5.3909,-5.3356,-5.2829,-5.2277,-5.1724,-4.9515,-4.8761,-4.9615,-4.6853,-4.5773,-4.6351,-4.6326,0.0,0.0,0.0,-4.8234,0.0,-4.8786,-4.8786,-4.8812,-4.9088,-4.9364,-4.959,-4.959,-4.959,-4.9615,-4.9891,-5.0017,-5.0117,-5.0695,-5.1071,-5.1398,-5.195,-5.2327,-5.2578,-5.2854,-5.2929,-5.2929,-5.2929,-5.2929,-5.2929,-5.2929,-5.2929,-5.2854,-5.2578,-5.2528,-5.2302,-5.1473,-5.1297,-5.1021,-5.0167,-4.9565,-4.9113,-4.8837,-4.8535,-4.8259,-4.8033,-4.7481,-4.6968,-4.6778,-4.6728,-4.6602,-4.6326,-4.5799,-4.5497,-4.5497,-4.4694,-4.4317,-4.4618,-4.4895,-4.5296,-4.5874,-4.7205,-4.8033,-4.8309,-4.8912,-4.9339,-4.959,-4.9314,-4.9339,-4.959,-4.959,-4.959,-4.959,-4.959,-5.0014,-5.079,-5.079,-5.079,-5.079,-5.0853,-5.1803,-5.3187,-5.3248,-5.4682,-5.6821,-3.5644,-3.5879,0.0,-3.75,-4.0112,-4.2084,-4.2403,-4.6363,-5.0289,-5.3027,-5.2007,-5.2333,-5.5805,-5.6493,-5.7223,-5.8426,-5.8027,-5.7248,-5.6118,-5.5114,-5.431,-5.3733,-5.3206,-5.2678,-5.2126,-5.0017,-4.9264,-4.9891,-4.7154,-4.61,-4.6602,-4.6527,0.0,0.0,0.0,-4.851,-4.9238,-4.9238,-4.9314,-4.9414,-4.9414,-4.949,-4.959,-4.959,-4.959,-4.9615,-4.9715,-5.0117,-5.077,-5.1774,-5.2026,-5.1975,-5.2302,-5.2553,-5.2754,-5.2754,-5.2829,-5.2929,-5.2929,-5.2929,-5.2929,-5.2929,-5.2929,-5.2929,-5.2929,-5.2929,-5.2779,-5.2226,-5.2026,-5.1624,-5.0594,-5.0067,-4.9766,-4.9766,-4.9314,-4.8937,-4.8937,-4.8209,-4.7531,-4.7118,-4.6954,-4.6652,-4.6175,-4.5849,-4.5522,-4.5171,-4.4317,-4.3991,-4.4418,-4.4568,-4.4844,-4.5296,-4.7004,-4.7908,-4.7908,-4.9038,-4.959,-4.959,-4.959,-4.959,-4.959,-4.959,-4.959,-4.959,-4.959,-4.959,-4.959,-4.959,-4.959,-4.9719,-5.1016,-5.1678,-5.2086,-5.3005,-5.379,-5.4505,-3.7031,0.0,-3.7969,-3.8867,-4.0269,-4.2062,-4.4245,-4.4825,-4.6077,-4.9105,-5.3047,-5.5747,-5.6144,-5.7544,-5.8325,-5.8027,-5.7449,-5.6646,-5.5541,-5.4913,-5.431,-5.3733,-5.3206,-5.2678,-5.2126,-5.0419,-4.9063,-4.8134,-4.7355,-4.625,-4.4895,-4.6376,-4.7029,-4.7029,-4.8184,-4.846,-4.8058,-4.8058,-4.836,-4.8837,-4.8837,-4.9163,-4.959,-4.959,-4.959,-4.9665,-5.0167,-5.072,-5.1297,-5.19,-5.1774,-5.1272,-5.0795,-5.1348,-5.2176,-5.2176,-5.2528,-5.2929,-5.2929,-5.2929,-5.2929,-5.2929,-5.2929,-5.2929,-5.2929,-5.2929,-5.2779,-5.2226,-5.1699,-5.1172,-5.0544,-5.0368,-5.0343,-5.0343,-4.9866,-4.9515,-4.9515,-4.9414,-4.8812,-4.7244,-4.7958,-4.7757,-4.5748,-4.5974,-4.5598,-4.4066,-4.3865,-4.3815,-4.3865,-4.4342,-4.4644,-4.4694,-4.6778,-4.7908,-4.7908,-4.9038,-4.959,-4.959,-4.959,-4.959,-4.959,-4.959,-4.959,-4.959,-4.959,-4.959,-4.959,-4.959,-4.959,-4.959,-4.9783,-5.0727,-5.1865,-5.0563,-5.1891,-5.4208,-3.8359,-3.8574,-3.9043,-4.0195,-4.123,-4.2545,-4.4301,-4.4723,-4.532,-4.6831,-4.8691,-5.1039,-5.386,-5.3391,-5.3211,-5.3913,-5.4367,-5.4202,-5.3035,-5.3672,-5.3808,-5.3256,-5.303,-5.2829,-5.2603,-5.1297,-5.0218,-4.9414,-4.8535,-4.7431,-4.615,-4.6476,-4.6652,-4.6652,-4.7104,-4.7531,-4.7933,-4.8284,-4.856,-4.8812,-4.9138,-4.9389,-4.959,-4.959,-4.959,-4.9615,-4.9841,-5.0293,-5.0745,-5.0645,-5.1348,-5.2226,-5.2,-5.2226,-5.2603,-5.2603,-5.2754,-5.2929,-5.2929,-5.2929,-5.2929,-5.2929,-5.2929,-5.2929,-5.2929,-5.2929,-5.2854,-5.2653,-5.2151,-5.1599,-5.1046,-5.0645,-5.0318,-4.9967,-4.9741,-4.959,-4.959,-4.9314,-4.8736,-4.7707,-4.7707,-4.7305,-4.61,-4.5573,-4.5171,-4.4844,-4.4192,-4.3664,-4.3313,-4.4141,-4.4794,-4.5121,-4.6954,-4.8083,-4.8435,-4.9213,-4.959,-4.959,-4.959,-4.959,-4.959,-4.959,-4.959,-4.959,-4.959,-4.959,-4.959,-4.959,-4.959,-4.959,-4.959,-5.0014,-5.0499,-4.9822,-5.0436,-5.158,-3.9687,-3.998,-4.0527,-4.1719,-4.2519,-4.3359,-4.4414,-4.4726,-4.5,-4.543,-4.5371,-4.6925,-5.1053,-5.0483,-5.0093,-5.1126,-5.2349,-5.2791,-5.1956,-5.322,-5.3783,-5.3432,-5.3105,-5.2929,-5.2929,-5.2,-5.1071,-5.0167,-4.9389,-4.8209,-4.6652,-4.6426,-4.6401,-4.6552,-4.6702,-4.7305,-4.8184,-4.8611,-4.8862,-4.9063,-4.9439,-4.959,-4.959,-4.959,-4.959,-4.959,-4.959,-4.9941,-5.0393,-5.0167,-5.1147,-5.2377,-5.2051,-5.2051,-5.2226,-5.2402,-5.2553,-5.2729,-5.2879,-5.2929,-5.2929,-5.2929,-5.2929,-5.2929,-5.2929,-5.2929,-5.2929,-5.2929,-5.2628,-5.2176,-5.1624,-5.1071,-5.0544,-5.0167,-4.9816,-4.9665,-4.9816,-4.9364,-4.8736,-4.7983,-4.7581,-4.7029,-4.615,-4.5347,-4.492,-4.4995,-4.4392,-4.3865,-4.3489,-4.4367,-4.5146,-4.5723,-4.7154,-4.8184,-4.8761,-4.9314,-4.959,-4.959,-4.959,-4.959,-4.959,-4.959,-4.959,-4.959,-4.959,-4.959,-4.959,-4.959,-4.959,-4.959,-4.959,-4.959,-4.959,-4.959,-4.959,-4.9783,-4.1055,-4.1816,-4.2656,-4.3516,-4.4062,-4.4512,-4.4961,-4.4668,-4.4551,-4.498,-4.4668,-4.5453,-4.8066,-5.0174,-5.1183,-5.0849,-5.224,-5.31,-5.3076,-5.4007,-5.4632,-5.4536,-5.3507,-5.2929,-5.2929,-5.2377,-5.1272,-4.9615,-4.959,-4.8184,-4.5522,-4.605,-4.6602,-4.7093,-4.7657,-4.8209,-4.8761,-4.8761,-4.9088,-4.959,-4.959,-4.959,-4.959,-4.959,-4.959,-4.959,-4.959,-4.9941,-5.0494,-5.1071,-5.1272,-5.1096,-4.9992,-5.0017,-5.0569,-5.1122,-5.1674,-5.2226,-5.2779,-5.2929,-5.2929,-5.2929,-5.2929,-5.2929,-5.2929,-5.2929,-5.2929,-5.2929,-5.2929,-5.2754,-5.2201,-5.1649,-5.1272,-5.1272,-5.0318,-4.9791,-5.0318,-4.9941,-4.9163,-4.8033,-4.7908,-4.7255,-4.5648,-4.5497,-4.502,-4.389,-4.4317,-4.4618,-4.4593,-4.5171,-4.5723,-4.6276,-4.7355,-4.8184,-4.8761,-4.9314,-4.959,-4.959,-4.959,-4.959,-4.959,-4.959,-4.959,-4.959,-4.959,-4.959,-4.959,-4.959,-4.959,-4.959,-4.959,-4.959,-4.959,-4.959,-4.959,-4.959,-4.2754,-4.3105,-4.3574,-4.4453,-4.498,-4.5215,-4.5058,-4.4902,-4.4766,-4.4629,-4.4492,-4.4567,-4.5098,-4.6083,-4.6619,-4.6475,-4.7544,-4.8252,-4.8252,-4.9306,-4.989,-4.989,-5.0556,-5.0928,-5.0928,-5.2015,-5.2026,-5.0745,-5.0745,-4.9515,-4.7129,-4.733,-4.7305,-4.7118,-4.8083,-4.8812,-4.9364,-4.9741,-4.9992,-5.0117,-4.9741,-4.959,-4.959,-4.959,-4.959,-4.959,-4.959,-4.9715,-4.9891,-5.0067,-5.0368,-5.0619,-5.0268,-5.082,-5.1674,-5.2251,-5.2528,-5.2703,-5.2879,-5.2929,-5.2929,-5.2929,-5.2929,-5.2929,-5.2929,-5.2929,-5.2829,-5.2452,-5.2678,-5.2528,-5.1197,-5.1147,-5.1021,-5.0268,-4.9515,-4.9088,-4.9264,-4.8812,-4.8184,-4.7456,-4.738,-4.7029,-4.6125,-4.5698,-4.5497,-4.5497,-4.5321,-4.4869,-4.4116,-4.5321,-4.6301,-4.6853,-4.7933,-4.8761,-4.9339,-4.9515,-4.959,-4.959,-4.959,-4.959,-4.959,-4.959,-4.959,-4.959,-4.959,-4.959,-4.959,-4.959,-4.959,-4.959,-4.959,-4.959,-4.959,-4.959,-4.959,-4.959,-4.3359,-4.373,-4.418,-4.4902,-4.5391,-4.5644,-4.5527,-4.5371,-4.5176,-4.4922,-4.459,-4.4297,-4.4004,-4.4062,-4.4082,-4.3906,-4.5269,-4.6011,-4.5844,-4.7029,-4.779,-4.779,-4.8492,-4.8866,-4.8866,-5.0056,-5.0656,-5.0487,-5.0389,-4.9515,-4.7908,-4.7707,-4.7657,-4.7782,-4.846,-4.9088,-4.9615,-4.9967,-5.0117,-5.0067,-4.9741,-4.959,-4.959,-4.959,-4.959,-4.959,-4.959,-4.959,-4.9615,-4.9841,-5.0117,-5.0494,-5.0921,-5.1548,-5.2176,-5.2528,-5.2628,-5.2653,-5.2879,-5.2929,-5.2929,-5.2929,-5.2929,-5.2929,-5.2929,-5.2929,-5.2829,-5.2477,-5.2528,-5.2302,-5.1247,-5.0996,-5.072,-5.0017,-4.9264,-4.8761,-4.8761,-4.8109,-4.7506,-4.7179,-4.7068,-4.6943,-4.6652,-4.6301,-4.6175,-4.6301,-4.5999,-4.5497,-4.4769,-4.5949,-4.6878,-4.7405,-4.8309,-4.9038,-4.959,-4.959,-4.959,-4.959,-4.959,-4.959,-4.959,-4.959,-4.959,-4.959,-4.959,-4.959,-4.959,-4.959,-4.959,-4.959,-4.959,-4.959,-4.959,-4.959,-4.959,-4.959,-4.3203,-4.3887,-4.459,-4.5039,-4.5449,-4.584,-4.6211,-4.5898,-4.5625,-4.5586,-4.4863,-4.4355,-4.4355,-4.3965,-4.3535,-4.3105,-4.4843,-4.5828,-4.5466,-4.6724,-4.7492,-4.7492,-4.7002,-4.6809,-4.6809,-4.6955,-4.7653,-4.9083,-4.8846,-4.8509,-4.8058,-4.7556,-4.7857,-4.8837,-4.8862,-4.9163,-4.9665,-4.9665,-4.9665,-4.964,-4.9615,-4.959,-4.959,-4.959,-4.959,-4.959,-4.959,-4.959,-4.9665,-5.0193,-5.0393,-5.0619,-5.1699,-5.2076,-5.2126,-5.2151,-5.2176,-5.2277,-5.2779,-5.2929,-5.2929,-5.2929,-5.2929,-5.2929,-5.2929,-5.2929,-5.2929,-5.2879,-5.2503,-5.2126,-5.2,-5.1172,-5.0444,-5.0368,-4.9439,-4.8711,-4.8711,-4.7757,-4.7018,-4.7018,-4.7043,-4.7068,-4.7068,-4.7093,-4.6954,-4.6401,-4.6376,-4.6376,-4.6376,-4.6878,-4.7431,-4.7958,-4.8535,-4.9088,-4.959,-4.959,-4.959,-4.959,-4.959,-4.959,-4.959,-4.959,-4.959,-4.959,-4.959,-4.959,-4.959,-4.959,-4.959,-4.959,-4.959,-4.959,-4.959,-4.959,-4.959,-4.959,-4.4433,-4.4726,-4.5117,-4.5859,-4.6074,-4.6074,-4.5859,-4.5449,-4.5058,-4.4746,-4.4219,-4.3867,-4.3867,-4.3769,-4.3535,-4.3105,-4.3534,-4.3798,-4.3698,-4.3436,-4.3227,-4.3227,-4.4196,-4.4752,-4.4752,-4.6219,-4.7653,-4.9083,-4.8615,-4.8883,-4.9816,-4.9264,-4.9138,-4.9414,-4.9841,-5.0092,-5.0218,-5.0218,-5.0218,-5.0193,-4.9766,-4.959,-4.959,-4.959,-4.959,-4.959,-4.959,-4.959,-4.9615,-4.9741,-5.0067,-5.0544,-5.1247,-5.1774,-5.2176,-5.2603,-5.2729,-5.2754,-5.2904,-5.2929,-5.2929,-5.2929,-5.2929,-5.2929,-5.2929,-5.2929,-5.2804,-5.2377,-5.2528,-5.2327,-5.1046,-5.0971,-5.0795,-4.9916,-4.8837,-4.8109,-4.8109,-4.7179,-4.6502,-4.6502,-4.6878,-4.7068,-4.7068,-4.7481,-4.7506,-4.6979,-4.6928,-4.6928,-4.6928,-4.7431,-4.7983,-4.856,-4.9113,-4.9464,-4.959,-4.959,-4.959,-4.959,-4.959,-4.959,-4.959,-4.959,-4.959,-4.959,-4.959,-4.959,-4.959,-4.959,-4.959,-4.959,-4.959,-4.959,-4.959,-4.959,-4.959,-4.959,-4.4316,-4.4414,-4.4629,-4.5312,-4.5586,-4.5644,-4.541,-4.5351,-4.5176,-4.4746,-4.4297,-4.4023,-4.4023,-4.3828,-4.3535,-4.3105,-4.3086,-4.2988,-4.2793,-4.2168,-4.1797,-4.1797,-4.2436,-4.279,-4.279,-4.3815,-4.4931,-4.6145,-4.6746,-4.7646,-4.8763,-4.8469,-4.8763,-4.9615,-4.9916,-5.0042,-5.0042,-5.0042,-5.0042,-5.0017,-4.9715,-4.959,-4.959,-4.959,-4.959,-4.959,-4.959,-4.959,-4.959,-4.959,-4.9967,-5.0469,-5.0795,-5.1272,-5.1825,-5.2402,-5.2729,-5.2929,-5.2929,-5.2929,-5.2929,-5.2929,-5.2929,-5.2929,-5.2929,-5.2929,-5.2854,-5.2553,-5.2528,-5.2201,-5.1021,-5.0845,-5.0519,-4.9389,-4.8485,-4.7832,-4.7581,-4.6828,-4.6301,-4.6301,-4.7004,-4.7481,-4.7481,-4.7983,-4.8184,-4.7908,-4.7631,-4.7606,-4.7857,-4.8159,-4.8435,-4.8761,-4.9314,-4.959,-4.959,-4.959,-4.959,-4.959,-4.959,-4.959,-4.959,-4.959,-4.959,-4.959,-4.959,-4.959,-4.959,-4.959,-4.959,-4.959,-4.959,-4.959,-4.959,-4.959,-4.959,-4.959,-4.3789,-4.3808,-4.3945,-4.4414,-4.4785,-4.5019,-4.5019,-4.5293,-4.5351,-4.498,-4.4551,-4.4297,-4.4297,-4.3945,-4.3535,-4.3105,-4.3086,-4.2871,-4.2363,-4.1933,-4.1699,-4.1699,-4.1367,-4.1172,-4.1172,-4.1113,-4.1619,-4.2638,-4.4292,-4.5733,-4.6917,-4.6846,-4.7773,-4.959,-4.959,-4.959,-4.959,-4.959,-4.959,-4.959,-4.959,-4.959,-4.959,-4.959,-4.959,-4.959,-4.959,-4.959,-4.959,-4.959,-4.9916,-5.0318,-5.0494,-5.0896,-5.1398,-5.2051,-5.2553,-5.2929,-5.2929,-5.2929,-5.2929,-5.2929,-5.2929,-5.2929,-5.2929,-5.2929,-5.2929,-5.2929,-5.2553,-5.2026,-5.1398,-5.082,-5.0092,-4.9063,-4.8284,-4.7657,-4.7244,-4.6702,-4.6351,-4.6426,-4.7305,-4.7933,-4.8033,-4.856,-4.8862,-4.8786,-4.8309,-4.8259,-4.8736,-4.8761,-4.8812,-4.8887,-4.9339,-4.959,-4.959,-4.959,-4.959,-4.959,-4.959,-4.959,-4.959,-4.959,-4.959,-4.959,-4.959,-4.959,-4.959,-4.959,-4.959,-4.959,-4.959,-4.959,-4.959,-4.959,-4.959,-4.959,-4.4219,-4.4297,-4.4433,-4.4844,-4.498,-4.5019,-4.5019,-4.4785,-4.457,-4.4512,-4.4101,-4.3808,-4.3808,-4.375,-4.3535,-4.3105,-4.3086,-4.2734,-4.1953,-4.1504,-4.1269,-4.1269,-4.1211,-4.1172,-4.1172,-4.082,-4.1318,-4.2784,-4.2623,-4.4295,-4.7556,-4.7012,-4.7773,-4.959,-4.959,-4.959,-4.959,-4.959,-4.959,-4.959,-4.959,-4.959,-4.959,-4.959,-4.959,-4.959,-4.959,-4.959,-4.959,-4.959,-4.9665,-4.9891,-5.0845,-5.1197,-5.1473,-5.2503,-5.2854,-5.2929,-5.2929,-5.2929,-5.2929,-5.2929,-5.2929,-5.2929,-5.2929,-5.2929,-5.2929,-5.2929,-5.2854,-5.2477,-5.1473,-5.082,-5.0218,-4.9565,-4.8234,-4.738,-4.7732,-4.6928,-4.6476,-4.6892,-4.7531,-4.8109,-4.8586,-4.9138,-4.9264,-4.8812,-4.8686,-4.8686,-4.8761,-4.8761,-4.8987,-4.9464,-4.9565,-4.959,-4.959,-4.959,-4.959,-4.959,-4.959,-4.959,-4.959,-4.959,-4.959,-4.959,-4.959,-4.959,-4.959,-4.959,-4.959,-4.959,-4.959,-4.959,-4.959,-4.959,-4.959,-4.959,-4.3652,-4.3867,-4.4023,-4.3984,-4.416,-4.4238,-4.4004,-4.4004,-4.3867,-4.3398,-4.3359,-4.3281,-4.3047,-4.3008,-4.2851,-4.2422,-4.2383,-4.2129,-4.1504,-4.1484,-4.1504,-4.1504,-4.1289,-4.1172,-4.1172,-4.0976,-4.0986,-4.1245,-4.0969,-4.2576,-4.5735,-4.5504,-4.6913,-4.959,-4.959,-4.959,-4.959,-4.959,-4.959,-4.959,-4.959,-4.959,-4.959,-4.959,-4.959,-4.959,-4.959,-4.959,-4.959,-4.959,-4.9791,-5.0117,-5.0645,-5.1021,-5.1448,-5.2251,-5.2703,-5.2929,-5.2929,-5.2929,-5.2929,-5.2929,-5.2929,-5.2929,-5.2929,-5.2929,-5.2929,-5.2929,-5.2929,-5.2578,-5.1498,-5.082,-5.0142,-4.9289,-4.8008,-4.723,-4.7456,-4.6803,-4.6527,-4.7079,-4.7581,-4.8134,-4.8711,-4.9264,-4.949,-4.9238,-4.9213,-4.9213,-4.9213,-4.9213,-4.9339,-4.959,-4.959,-4.959,-4.959,-4.959,-4.959,-4.959,-4.959,-4.959,-4.959,-4.959,-4.959,-4.959,-4.959,-4.959,-4.959,-4.959,-4.959,-4.959,-4.959,-4.959,-4.959,-4.959,-4.959,-4.959,-4.2949,-4.3262,-4.3418,-4.3008,-4.3183,-4.3301,-4.2969,-4.3203,-4.3164,-4.2519,-4.2715,-4.2793,-4.2461,-4.2422,-4.2266,-4.1836,-4.1797,-4.1621,-4.1211,-4.1484,-4.166,-4.166,-4.1348,-4.1133,-4.1035,-4.1016,-4.0605,-3.9726,-3.9726,-4.1045,-4.3473,-4.3473,-4.5412,-4.8958,-4.8958,-4.9177,-4.959,-4.959,-4.959,-4.959,-4.959,-4.959,-4.959,-4.959,-4.959,-4.959,-4.959,-4.959,-4.959,-4.959,-4.9967,-5.0444,-5.0569,-5.1021,-5.1574,-5.2126,-5.2603,-5.2929,-5.2929,-5.2929,-5.2929,-5.2929,-5.2929,-5.2929,-5.2929,-5.2929,-5.2929,-5.2929,-5.2929,-5.2628,-5.1649,-5.0896,-5.0092,-4.9113,-4.7933,-4.7118,-4.7305,-4.6853,-4.6753,-4.7431,-4.7857,-4.8335,-4.8912,-4.9339,-4.959,-4.959,-4.959,-4.959,-4.959,-4.959,-4.959,-4.959,-4.959,-4.959,-4.959,-4.959,-4.959,-4.959,-4.959,-4.959,-4.959,-4.959,-4.959,-4.959,-4.959,-4.959,-4.959,-4.959,-4.959,-4.959,-4.959,-4.959,-4.959,-4.959,-4.959,-4.959,-4.2558,-4.2832,-4.2988,-4.2558,-4.25,-4.25,-4.248,-4.25,-4.25,-4.2441,-4.2461,-4.2461,-4.2422,-4.2422,-4.2266,-4.1836,-4.1797,-4.1621,-4.1211,-4.1211,-4.1211,-4.1211,-4.1191,-4.0976,-4.0586,-4.0566,-4.0137,-3.9258,-3.9258,-3.9991,-4.1538,-4.1538,-4.3451,-4.7022,-4.7022,-4.7994,-4.959,-4.959,-4.959,-4.959,-4.959,-4.959,-4.959,-4.959,-4.959,-4.959,-4.959,-4.959,-4.959,-4.959,-4.9967,-5.0519,-5.1046,-5.1599,-5.2151,-5.2703,-5.2904,-5.2929,-5.2929,-5.2929,-5.2929,-5.2929,-5.2929,-5.2929,-5.2929,-5.2929,-5.2929,-5.2929,-5.2929,-5.2754,-5.2151,-5.1147,-5.0218,-4.9615,-4.8184,-4.7244,-4.7782,-4.7405,-4.7456,-4.851,-4.8686,-4.8937,-4.949,-4.9565,-4.959,-4.959,-4.959,-4.959,-4.959,-4.959,-4.959,-4.959,-4.959,-4.959,-4.959,-4.959,-4.959,-4.959,-4.959,-4.959,-4.959,-4.959,-4.959,-4.959,-4.959,-4.959,-4.959,-4.959,-4.959,-4.959,-4.959,-4.959,-4.959,-4.959,-4.959,-4.959,-4.207,-4.2383,-4.2539,-4.2109,-4.2031,-4.2031,-4.2031,-4.2031,-4.1953,-4.168,-4.1875,-4.1933,-4.168,-4.166,-4.1582,-4.1426,-4.1406,-4.1348,-4.1191,-4.1172,-4.1172,-4.1172,-4.1172,-4.1094,-4.0937,-4.0664,-4.0234,-3.9629,-3.9336,-3.9898,-4.1326,-4.1326,-4.3244,-4.6798,-4.6798,-4.7839,-4.959,-4.959,-4.959,-4.959,-4.959,-4.959,-4.959,-4.959,-4.959,-4.959,-4.959,-4.959,-4.959,-4.959,-5.0193,-5.0996,-5.1222,-5.19,-5.2653,-5.2879,-5.2929,-5.2929,-5.2929,-5.2929,-5.2929,-5.2929,-5.2929,-5.2929,-5.2929,-5.2929,-5.2929,-5.2929,-5.2929,-5.2754,-5.2201,-5.1172,-5.0343,-5.0142,-4.8711,-4.7807,-4.836,-4.7958,-4.7908,-4.8686,-4.8761,-4.8987,-4.954,-4.959,-4.959,-4.959,-4.959,-4.959,-4.959,-4.959,-4.959,-4.959,-4.959,-4.959,-4.959,-4.959,-4.959,-4.959,-4.959,-4.959,-4.959,-4.959,-4.959,-4.959,-4.959,-4.959,-4.959,-4.959,-4.959,-4.959,-4.959,-4.959,-4.959,-4.959,-4.959,-4.959,-4.1621,-4.1953,-4.209,-4.168,-4.1601,-4.1601,-4.1601,-4.1601,-4.1504,-4.1211,-4.1426,-4.1484,-4.1211,-4.1172,-4.1172,-4.1172,-4.1172,-4.1172,-4.1172,-4.1172,-4.1172,-4.1172,-4.1035,-4.0976,-4.0976,-4.0547,-4.0117,-3.9668,-3.9355,-3.9625,-4.0443,-4.0443,-4.208,-4.5095,-4.5727,-4.6955,-4.8763,-4.9371,-4.959,-4.959,-4.959,-4.959,-4.959,-4.959,-4.959,-4.959,-4.959,-4.959,-4.959,-4.959,-5.0343,-5.1272,-5.1272,-5.2051,-5.2929,-5.2929,-5.2929,-5.2929,-5.2929,-5.2929,-5.2929,-5.2929,-5.2929,-5.2929,-5.2929,-5.2929,-5.2929,-5.2929,-5.2929,-5.2804,-5.2427,-5.1574,-5.082,-5.0469,-4.9314,-4.851,-4.8736,-4.8435,-4.8385,-4.8962,-4.9038,-4.9188,-4.9565,-4.959,-4.959,-4.959,-4.959,-4.959,-4.959,-4.959,-4.959,-4.959,-4.959,-4.959,-4.959,-4.959,-4.959,-4.959,-4.959,-4.959,-4.959,-4.959,-4.959,-4.959,-4.959,-4.959,-4.959,-4.959,-4.959,-4.959,-4.959,-4.959,-4.959,-4.959,-4.959,-4.959,-4.125,-4.1504,-4.166,-4.125,-4.1172,-4.1172,-4.1172,-4.1172,-4.1172,-4.1172,-4.1172,-4.1172,-4.1172,-4.1172,-4.1172,-4.1172,-4.1172,-4.1172,-4.1172,-4.1172,-4.1172,-4.1172,-4.0762,-4.0527,-4.0527,-4.0098,-3.9668,-3.9199,-3.9199,-3.8984,-3.8574,-3.8574,-3.955,-4.1397,-4.3288,-4.505,-4.6865,-4.8763,-4.959,-4.959,-4.959,-4.959,-4.959,-4.959,-4.959,-4.959,-4.959,-4.959,-4.959,-4.959,-5.0343,-5.1272,-5.1297,-5.2051,-5.2929,-5.2929,-5.2929,-5.2929,-5.2929,-5.2929,-5.2929,-5.2929,-5.2929,-5.2929,-5.2929,-5.2929,-5.2929,-5.2929,-5.2929,-5.2929,-5.2929,-5.2477,-5.1724,-5.0619,-4.9967,-4.9414,-4.8862,-4.8786,-4.8987,-4.954,-4.9615,-4.9615,-4.9615,-4.959,-4.959,-4.959,-4.959,-4.959,-4.959,-4.959,-4.959,-4.959,-4.959,-4.959,-4.959,-4.959,-4.959,-4.959,-4.959,-4.959,-4.959,-4.959,-4.959,-4.959,-4.959,-4.959,-4.959,-4.959,-4.959,-4.959,-4.959,-4.959,-4.959,-4.959,-4.959,-4.959,-4.1191,-4.1269,-4.1328,-4.1191,-4.1172,-4.1172,-4.1172,-4.1172,-4.1172,-4.1172,-4.1172,-4.1172,-4.1172,-4.1172,-4.1172,-4.1172,-4.1172,-4.1172,-4.1172,-4.1172,-4.1035,-4.0723,-4.0586,-4.0391,-4.0098,-3.9648,-3.9336,-3.9199,-3.8906,-3.8691,-3.8574,-3.8574,-3.955,-4.1326,-4.189,-4.3196,-4.505,-4.6889,-4.7641,-4.7773,-4.9112,-4.959,-4.959,-4.959,-4.959,-4.959,-4.959,-4.959,-4.9665,-5.0042,-5.067,-5.1423,-5.2201,-5.2653,-5.2929,-5.2929,-5.2929,-5.2929,-5.2929,-5.2929,-5.2929,-5.2929,-5.2929,-5.2929,-5.2929,-5.2929,-5.2929,-5.2929,-5.2929,-5.2929,-5.2929,-5.2477,-5.2,-5.1649,-5.1147,-5.072,-5.0544,-5.0544,-5.0594,-5.0745,-5.0419,-5.0167,-5.0167,-4.9816,-4.959,-4.959,-4.959,-4.959,-4.959,-4.959,-4.959,-4.959,-4.959,-4.959,-4.959,-4.959,-4.959,-4.959,-4.959,-4.959,-4.959,-4.959,-4.959,-4.959,-4.959,-4.959,-4.959,-4.959,-4.959,-4.959,-4.959,-4.959,-4.959,-4.959,-4.959,-4.959,-4.1172,-4.1172,-4.1172,-4.1172,-4.1172,-4.1172,-4.1172,-4.1172,-4.1172,-4.1172,-4.1172,-4.1172,-4.1172,-4.1172,-4.1172,-4.1172,-4.1172,-4.1172,-4.1172,-4.1172,-4.0898,-4.0293,-4.0273,-4.0078,-3.9629,-3.918,-3.8945,-3.8945,-3.8691,-3.8574,-3.8574,-3.8574,-3.9188,-4.0228,-4.0992,-4.1961,-4.3127,-4.5727,-4.6798,-4.6955,-4.8828,-4.959,-4.959,-4.959,-4.959,-4.959,-4.959,-4.9741,-4.9967,-5.0293,-5.0946,-5.1749,-5.2653,-5.2929,-5.2929,-5.2929,-5.2929,-5.2929,-5.2929,-5.2929,-5.2929,-5.2929,-5.2929,-5.2929,-5.2929,-5.2929,-5.2929,-5.2929,-5.2929,-5.2929,-5.2929,-5.2653,-5.2352,-5.2126,-5.1825,-5.1523,-5.1322,-5.1272,-5.1272,-5.1272,-5.0971,-5.077,-5.077,-5.0469,-5.0167,-4.9941,-4.9916,-4.9816,-4.9615,-4.959,-4.959,-4.959,-4.959,-4.959,-4.959,-4.959,-4.959,-4.959,-4.959,-4.959,-4.959,-4.959,-4.959,-4.959,-4.959,-4.959,-4.959,-4.959,-4.959,-4.959,-4.959,-4.959,-4.959,-4.959,-4.959,-4.959,-4.1172,-4.1172,-4.1172,-4.1172,-4.1172,-4.1172,-4.1172,-4.1172,-4.1172,-4.1172,-4.1172,-4.1172,-4.1172,-4.1172,-4.1172,-4.1172,-4.1172,-4.1172,-4.1172,-4.1172,-4.0781,-3.9941,-3.9902,-3.9668,-3.916,-3.8769,-3.8574,-3.8574,-3.8574,-3.8574,-3.8574,-3.8574,-3.8574,-3.8647,-4.03,-4.1063,-4.1255,-4.4823,-4.6398,-4.6732,-4.8608,-4.9461,-4.959,-4.959,-4.959,-4.959,-4.959,-4.9916,-5.0343,-5.0393,-5.1172,-5.2201,-5.2703,-5.2879,-5.2929,-5.2929,-5.2929,-5.2929,-5.2929,-5.2929,-5.2929,-5.2929,-5.2929,-5.2929,-5.2929,-5.2929,-5.2929,-5.2929,-5.2929,-5.2929,-5.2929,-5.2929,-5.2754,-5.2251,-5.2176,-5.2,-5.1498,-5.1423,-5.1423,-5.1423,-5.1398,-5.1348,-5.1348,-5.1322,-5.1046,-5.0469,-5.0419,-5.0167,-4.9615,-4.959,-4.959,-4.959,-4.959,-4.959,-4.959,-4.959,-4.959,-4.959,-4.959,-4.959,-4.959,-4.959,-4.959,-4.959,-4.959,-4.959,-4.959,-4.959,-4.959,-4.959,-4.959,-4.959,-4.959,-4.959,-4.959,-4.959,-4.1172,-4.1172,-4.1172,-4.1172,-4.1172,-4.1172,-4.1172,-4.1172,-4.1172,-4.1172,-4.1172,-4.1172,-4.1172,-4.1172,-4.1172,-4.1172,-4.1172,-4.1172,-4.1172,-4.1172,-4.0781,-3.9941,-3.9902,-3.9531,-3.873,-3.8613,-3.8574,-3.8574,-3.8574,-3.8574,-3.8574,-3.8574,-3.8574,-3.8647,-3.8991,-3.9208,-3.9333,-4.1538,-4.3335,-4.4846,-4.6689,-4.8257,-4.959,-4.959,-4.959,-4.959,-4.959,-4.9665,-4.9841,-5.0268,-5.1172,-5.2126,-5.2251,-5.2578,-5.2929,-5.2929,-5.2929,-5.2929,-5.2929,-5.2929,-5.2929,-5.2929,-5.2929,-5.2929,-5.2929,-5.2929,-5.2929,-5.2929,-5.2929,-5.2929,-5.2929,-5.2929,-5.2879,-5.2779,-5.2754,-5.2703,-5.2578,-5.2578,-5.2578,-5.2578,-5.2176,-5.1925,-5.1925,-5.1548,-5.1046,-5.0469,-5.0419,-5.0167,-4.9615,-4.959,-4.959,-4.959,-4.959,-4.959,-4.959,-4.959,-4.959,-4.959,-4.959,-4.959,-4.959,-4.959,-4.959,-4.959,-4.959,-4.959,-4.959,-4.959,-4.959,-4.959,-4.959,-4.959,-4.959,-4.959,-4.959,-4.959,-4.1172,-4.1172,-4.1172,-4.1172,-4.1172,-4.1172,-4.1172,-4.1172,-4.1172,-4.1172,-4.1172,-4.1172,-4.1172,-4.1172,-4.1172,-4.1172,-4.1172,-4.1172,-4.1172,-4.1172,-4.0781,-3.9941,-3.9902,-3.9473,-3.8594,-3.8574,-3.8574,-3.8574,-3.8574,-3.8574,-3.8574,-3.8574,-3.8574,-3.8574,-3.8574,-3.8574,-3.872,-4.0514,-4.189,-4.2988,-4.5704,-4.7353,-4.8347,-4.9242,-4.959,-4.959,-4.959,-4.9766,-5.0067,-5.0645,-5.1222,-5.1699,-5.1699,-5.19,-5.2201,-5.2452,-5.2528,-5.2578,-5.2854,-5.2929,-5.2929,-5.2929,-5.2929,-5.2929,-5.2929,-5.2929,-5.2929,-5.2929,-5.2929,-5.2929,-5.2929,-5.2929,-5.2929,-5.2929,-5.2929,-5.2929,-5.2929,-5.2929,-5.2929,-5.2929,-5.2678,-5.2503,-5.2503,-5.2226,-5.1724,-5.0896,-5.082,-5.0469,-4.964,-4.959,-4.959,-4.959,-4.959,-4.959,-4.959,-4.959,-4.959,-4.959,-4.959,-4.959,-4.959,-4.959,-4.959,-4.959,-4.959,-4.959,-4.959,-4.959,-4.959,-4.959,-4.959,-4.959,-4.959,-4.959,-4.959,-4.959,-4.1172,-4.1172,-4.1172,-4.1172,-4.1172,-4.1172,-4.1172,-4.1172,-4.1172,-4.1172,-4.1172,-4.1172,-4.1172,-4.1172,-4.1172,-4.1172,-4.1172,-4.1172,-4.1172,-4.1094,-4.0723,-3.9922,-3.9824,-3.9394,-3.8594,-3.8574,-3.8574,-3.8574,-3.8574,-3.8574,-3.8574,-3.8574,-3.8574,-3.8574,-3.8574,-3.8574,-3.872,-4.0228,-4.0992,-4.1608,-4.4959,-4.6532,-4.7022,-4.8893,-4.959,-4.959,-4.959,-4.9891,-5.0343,-5.082,-5.1046,-5.1147,-5.1147,-5.1197,-5.1373,-5.1825,-5.2026,-5.2201,-5.2653,-5.2854,-5.2929,-5.2929,-5.2929,-5.2929,-5.2929,-5.2929,-5.2929,-5.2929,-5.2929,-5.2929,-5.2929,-5.2929,-5.2929,-5.2929,-5.2929,-5.2929,-5.2929,-5.2929,-5.2929,-5.2929,-5.2929,-5.2929,-5.2929,-5.2929,-5.2477,-5.1373,-5.1272,-5.0795,-4.9665,-4.959,-4.959,-4.959,-4.959,-4.959,-4.959,-4.959,-4.959,-4.959,-4.959,-4.959,-4.959,-4.959,-4.959,-4.959,-4.959,-4.959,-4.959,-4.959,-4.959,-4.959,-4.959,-4.959,-4.959,-4.959,-4.959,-4.959,-4.1172,-4.1172,-4.1172,-4.1172,-4.1172,-4.1172,-4.1172,-4.1172,-4.1172,-4.1172,-4.1172,-4.1172,-4.1172,-4.1172,-4.1172,-4.1172,-4.1172,-4.1172,-4.1172,-4.082,-4.0391,-3.9922,-3.9512,-3.9062,-3.8594,-3.8574,-3.8574,-3.8574,-3.8574,-3.8574,-3.8574,-3.8574,-3.8574,-3.8574,-3.8574,-3.8574,-3.8647,-3.8846,-3.989,-4.1467,-4.3611,-4.5389,-4.7022,-4.8893,-4.959,-4.959,-4.959,-4.964,-4.9715,-4.9791,-5.0142,-5.0544,-5.0544,-5.087,-5.1297,-5.1373,-5.1724,-5.2126,-5.2201,-5.2578,-5.2929,-5.2929,-5.2929,-5.2929,-5.2929,-5.2929,-5.2929,-5.2929,-5.2929,-5.2929,-5.2929,-5.2929,-5.2929,-5.2929,-5.2929,-5.2929,-5.2929,-5.2929,-5.2929,-5.2929,-5.2929,-5.2929,-5.2929,-5.2929,-5.2477,-5.1373,-5.1272,-5.0795,-4.9665,-4.959,-4.959,-4.959,-4.959,-4.959,-4.959,-4.959,-4.959,-4.959,-4.959,-4.959,-4.959,-4.959,-4.959,-4.959,-4.959,-4.959,-4.959,-4.959,-4.959,-4.959,-4.959,-4.959,-4.959,-4.959,-4.959,-4.959,-4.1172,-4.1172,-4.1172,-4.1172,-4.1172,-4.1172,-4.1172,-4.1172,-4.1172,-4.1172,-4.1172,-4.1074,-4.084,-4.0605,-4.0449,-4.0449,-4.0449,-4.0449,-4.0449,-4.0273,-3.998,-3.9531,-3.9316,-3.9004,-3.8594,-3.8574,-3.8574,-3.8574,-3.8574,-3.8574,-3.8574,-3.8574,-3.8574,-3.8574,-3.8574,-3.8574,-3.8574,-3.8574,-3.9063,-3.9962,-4.182,-4.2988,-4.4071,-4.6955,-4.806,-4.8191,-4.9242,-4.959,-4.959,-4.959,-4.9766,-4.9967,-4.9967,-5.0142,-5.0393,-5.072,-5.1197,-5.1699,-5.2026,-5.2503,-5.2929,-5.2929,-5.2929,-5.2929,-5.2929,-5.2929,-5.2929,-5.2929,-5.2929,-5.2929,-5.2929,-5.2929,-5.2929,-5.2929,-5.2929,-5.2929,-5.2929,-5.2929,-5.2929,-5.2929,-5.2929,-5.2929,-5.2929,-5.2653,-5.2126,-5.1348,-5.0971,-5.0444,-4.964,-4.959,-4.959,-4.959,-4.959,-4.959,-4.959,-4.959,-4.959,-4.959,-4.959,-4.959,-4.959,-4.959,-4.959,-4.959,-4.959,-4.959,-4.959,-4.959,-4.959,-4.959,-4.959,-4.959,-4.959,-4.959,-4.959,-4.959]}]]